Wetterdaten: Sonntag, 20.08.2017
Datum Zeit Temp. A. Pool Temp. Feuchte A. Luftdruck Regen Wind Richtung Richtung Sonnenschein ET UV Solar Taupunkt Windchill Windben Empfang
20.08.2017 00:00 14,5 C 22,8 C 95 % 1019,2 hPa 0,0 l/m 0,0 km/h (0 Bft) O-SO 111 0 min 0,000 mm 0,0 UV-I 0 W/m 13,7 C 14,5 C 0,0 km/h (0 Bft) 98,08 %
20.08.2017 00:02 14,5 C 22,8 C 95 % 1019,2 hPa 0,0 l/m 0,0 km/h (0 Bft) O-SO 111 0 min 0,000 mm 0,0 UV-I 0 W/m 13,7 C 14,5 C 0,0 km/h (0 Bft) 94,59 %
20.08.2017 00:04 14,5 C 22,8 C 95 % 1019,2 hPa 0,0 l/m 0,0 km/h (0 Bft) O-SO 111 0 min 0,000 mm 0,0 UV-I 0 W/m 13,7 C 14,5 C 0,0 km/h (0 Bft) 96,00 %
20.08.2017 00:06 14,5 C 22,8 C 95 % 1019,1 hPa 0,0 l/m 0,0 km/h (0 Bft) O-SO 111 0 min 0,000 mm 0,0 UV-I 0 W/m 13,7 C 14,5 C 0,0 km/h (0 Bft) 97,87 %
20.08.2017 00:08 14,5 C 22,8 C 95 % 1019,2 hPa 0,0 l/m 0,3 km/h (0 Bft) O-SO 111 0 min 0,000 mm 0,0 UV-I 0 W/m 13,7 C 14,5 C 1,6 km/h (1 Bft) 98,00 %
20.08.2017 00:10 14,5 C 22,8 C 95 % 1019,2 hPa 0,0 l/m 1,7 km/h (1 Bft) O-SO 119 0 min 0,000 mm 0,0 UV-I 0 W/m 13,7 C 14,5 C 3,2 km/h (1 Bft) 97,87 %
20.08.2017 00:12 14,5 C 22,8 C 95 % 1019,2 hPa 0,0 l/m 0,7 km/h (0 Bft) O-SO 119 0 min 0,000 mm 0,0 UV-I 0 W/m 13,7 C 14,5 C 1,6 km/h (1 Bft) 96,00 %
20.08.2017 00:14 14,5 C 22,8 C 95 % 1019,2 hPa 0,0 l/m 0,0 km/h (0 Bft) O-SO 119 0 min 0,000 mm 0,0 UV-I 0 W/m 13,7 C 14,5 C 0,0 km/h (0 Bft) 95,74 %
20.08.2017 00:16 14,5 C 22,8 C 95 % 1019,2 hPa 0,0 l/m 0,0 km/h (0 Bft) O-SO 119 0 min 0,000 mm 0,0 UV-I 0 W/m 13,7 C 14,5 C 0,0 km/h (0 Bft) 97,56 %
20.08.2017 00:18 14,5 C 22,8 C 95 % 1019,2 hPa 0,0 l/m 0,0 km/h (0 Bft) O-SO 119 0 min 0,000 mm 0,0 UV-I 0 W/m 13,7 C 14,5 C 0,0 km/h (0 Bft) 98,00 %
20.08.2017 00:20 14,5 C 22,8 C 95 % 1019,2 hPa 0,0 l/m 0,0 km/h (0 Bft) O-SO 119 0 min 0,000 mm 0,0 UV-I 0 W/m 13,7 C 14,5 C 0,0 km/h (0 Bft) 97,56 %
20.08.2017 00:22 14,5 C 22,8 C 95 % 1019,2 hPa 0,0 l/m 0,0 km/h (0 Bft) O-SO 119 0 min 0,000 mm 0,0 UV-I 0 W/m 13,7 C 14,5 C 0,0 km/h (0 Bft) 98,00 %
20.08.2017 00:24 14,5 C 22,8 C 95 % 1019,2 hPa 0,0 l/m 0,0 km/h (0 Bft) O-SO 119 0 min 0,000 mm 0,0 UV-I 0 W/m 13,7 C 14,5 C 0,0 km/h (0 Bft) 98,00 %
20.08.2017 00:26 14,5 C 22,8 C 95 % 1019,2 hPa 0,0 l/m 0,0 km/h (0 Bft) O-SO 119 0 min 0,000 mm 0,0 UV-I 0 W/m 13,7 C 14,5 C 0,0 km/h (0 Bft) 97,37 %
20.08.2017 00:28 14,5 C 22,8 C 95 % 1019,2 hPa 0,0 l/m 0,0 km/h (0 Bft) O-SO 119 0 min 0,000 mm 0,0 UV-I 0 W/m 13,7 C 14,5 C 0,0 km/h (0 Bft) 100,00 %
20.08.2017 00:30 14,5 C 22,8 C 95 % 1019,3 hPa 0,0 l/m 0,0 km/h (0 Bft) O-SO 119 0 min 0,000 mm 0,0 UV-I 0 W/m 13,7 C 14,5 C 1,6 km/h (1 Bft) 96,23 %
20.08.2017 00:32 14,5 C 22,8 C 95 % 1019,3 hPa 0,0 l/m 0,9 km/h (0 Bft) O-SO 119 0 min 0,000 mm 0,0 UV-I 0 W/m 13,7 C 14,5 C 3,2 km/h (1 Bft) 97,56 %
20.08.2017 00:34 14,5 C 22,8 C 95 % 1019,4 hPa 0,0 l/m 2,0 km/h (1 Bft) O-SO 119 0 min 0,000 mm 0,0 UV-I 0 W/m 13,7 C 14,5 C 4,8 km/h (1 Bft) 100,00 %
20.08.2017 00:36 14,5 C 22,8 C 95 % 1019,4 hPa 0,0 l/m 2,1 km/h (1 Bft) SO 126 0 min 0,000 mm 0,0 UV-I 0 W/m 13,7 C 14,5 C 4,8 km/h (1 Bft) 100,00 %
20.08.2017 00:38 14,5 C 22,8 C 95 % 1019,4 hPa 0,0 l/m 2,1 km/h (1 Bft) SO 126 0 min 0,000 mm 0,0 UV-I 0 W/m 13,7 C 14,5 C 3,2 km/h (1 Bft) 100,00 %
20.08.2017 00:40 14,5 C 22,8 C 95 % 1019,4 hPa 0,0 l/m 1,9 km/h (1 Bft) SO 126 0 min 0,000 mm 0,0 UV-I 0 W/m 13,7 C 14,5 C 3,2 km/h (1 Bft) 100,00 %
20.08.2017 00:42 14,5 C 22,8 C 95 % 1019,3 hPa 0,0 l/m 3,5 km/h (1 Bft) W-SW 246 0 min 0,000 mm 0,0 UV-I 0 W/m 13,7 C 14,5 C 4,8 km/h (1 Bft) 98,00 %
20.08.2017 00:44 14,6 C 22,8 C 96 % 1019,4 hPa 0,0 l/m 2,8 km/h (1 Bft) W-SW 242 0 min 0,000 mm 0,0 UV-I 0 W/m 14,0 C 14,6 C 4,8 km/h (1 Bft) 100,00 %
20.08.2017 00:46 14,6 C 22,8 C 96 % 1019,3 hPa 0,0 l/m 3,2 km/h (1 Bft) W-SW 239 0 min 0,000 mm 0,0 UV-I 0 W/m 14,0 C 14,6 C 6,4 km/h (2 Bft) 100,00 %
20.08.2017 00:48 14,6 C 22,8 C 96 % 1019,3 hPa 0,0 l/m 3,8 km/h (1 Bft) SW 223 0 min 0,000 mm 0,0 UV-I 0 W/m 14,0 C 14,6 C 6,4 km/h (2 Bft) 100,00 %
20.08.2017 00:50 14,6 C 22,8 C 96 % 1019,3 hPa 0,0 l/m 2,1 km/h (1 Bft) S-SW 199 0 min 0,000 mm 0,0 UV-I 0 W/m 14,0 C 14,6 C 8,0 km/h (2 Bft) 95,74 %
20.08.2017 00:52 14,6 C 22,8 C 96 % 1019,5 hPa 0,0 l/m 1,3 km/h (1 Bft) S-SW 200 0 min 0,000 mm 0,0 UV-I 0 W/m 14,0 C 14,6 C 4,8 km/h (1 Bft) 97,87 %
20.08.2017 00:54 14,6 C 22,8 C 96 % 1019,5 hPa 0,0 l/m 1,5 km/h (1 Bft) S-SW 200 0 min 0,000 mm 0,0 UV-I 0 W/m 14,0 C 14,6 C 4,8 km/h (1 Bft) 100,00 %
20.08.2017 00:56 14,6 C 22,8 C 96 % 1019,5 hPa 0,0 l/m 1,9 km/h (1 Bft) S-SW 200 0 min 0,000 mm 0,0 UV-I 0 W/m 14,0 C 14,6 C 4,8 km/h (1 Bft) 100,00 %
20.08.2017 00:58 14,6 C 22,8 C 96 % 1019,6 hPa 0,0 l/m 4,5 km/h (1 Bft) S-SW 210 0 min 0,000 mm 0,0 UV-I 0 W/m 14,0 C 14,6 C 8,0 km/h (2 Bft) 98,00 %
20.08.2017 01:00 14,6 C 22,8 C 96 % 1019,5 hPa 0,0 l/m 2,5 km/h (1 Bft) S-SW 210 0 min 0,000 mm 0,0 UV-I 0 W/m 14,0 C 14,6 C 4,8 km/h (1 Bft) 100,00 %
20.08.2017 01:01 14,6 C 22,8 C 96 % 1019,5 hPa 0,0 l/m 4,1 km/h (1 Bft) S-SW 210 0 min 0,000 mm 0,0 UV-I 0 W/m 14,0 C 14,6 C 6,4 km/h (2 Bft) 97,14 %
20.08.2017 01:04 14,6 C 22,8 C 96 % 1019,6 hPa 0,0 l/m 4,2 km/h (1 Bft) S-SW 211 0 min 0,000 mm 0,0 UV-I 0 W/m 14,0 C 14,6 C 6,4 km/h (2 Bft) 100,00 %
20.08.2017 01:06 14,6 C 22,8 C 96 % 1019,5 hPa 0,0 l/m 2,9 km/h (1 Bft) S-SW 211 0 min 0,000 mm 0,0 UV-I 0 W/m 14,0 C 14,6 C 4,8 km/h (1 Bft) 100,00 %
20.08.2017 01:08 14,6 C 22,8 C 96 % 1019,4 hPa 0,0 l/m 3,3 km/h (1 Bft) S-SW 211 0 min 0,000 mm 0,0 UV-I 0 W/m 14,0 C 14,6 C 6,4 km/h (2 Bft) 100,00 %
20.08.2017 01:10 14,6 C 22,8 C 96 % 1019,4 hPa 0,0 l/m 1,4 km/h (1 Bft) S-SW 211 0 min 0,000 mm 0,0 UV-I 0 W/m 14,0 C 14,6 C 3,2 km/h (1 Bft) 97,87 %
20.08.2017 01:12 14,6 C 22,8 C 96 % 1019,3 hPa 0,0 l/m 1,3 km/h (1 Bft) S-SW 211 0 min 0,000 mm 0,0 UV-I 0 W/m 14,0 C 14,6 C 4,8 km/h (1 Bft) 100,00 %
20.08.2017 01:14 14,6 C 22,8 C 96 % 1019,3 hPa 0,0 l/m 1,8 km/h (1 Bft) S-SW 211 0 min 0,000 mm 0,0 UV-I 0 W/m 14,0 C 14,6 C 4,8 km/h (1 Bft) 100,00 %
20.08.2017 01:16 14,6 C 22,8 C 96 % 1019,4 hPa 0,0 l/m 1,3 km/h (1 Bft) S-SW 202 0 min 0,000 mm 0,0 UV-I 0 W/m 14,0 C 14,6 C 3,2 km/h (1 Bft) 97,56 %
20.08.2017 01:18 14,5 C 22,8 C 96 % 1019,4 hPa 0,0 l/m 3,4 km/h (1 Bft) S-SW 202 0 min 0,000 mm 0,0 UV-I 0 W/m 13,9 C 14,5 C 6,4 km/h (2 Bft) 100,00 %
20.08.2017 01:20 14,5 C 22,8 C 96 % 1019,5 hPa 0,0 l/m 4,3 km/h (1 Bft) S-SW 211 0 min 0,000 mm 0,0 UV-I 0 W/m 13,9 C 14,5 C 6,4 km/h (2 Bft) 97,87 %
20.08.2017 01:22 14,5 C 22,8 C 96 % 1019,6 hPa 0,0 l/m 3,5 km/h (1 Bft) S-SW 207 0 min 0,000 mm 0,0 UV-I 0 W/m 13,9 C 14,5 C 6,4 km/h (2 Bft) 100,00 %
20.08.2017 01:24 14,5 C 22,8 C 96 % 1019,5 hPa 0,0 l/m 4,6 km/h (1 Bft) W-SW 240 0 min 0,000 mm 0,0 UV-I 0 W/m 13,9 C 14,5 C 8,0 km/h (2 Bft) 100,00 %
20.08.2017 01:26 14,4 C 22,8 C 96 % 1019,6 hPa 0,0 l/m 5,4 km/h (1 Bft) S-SW 203 0 min 0,000 mm 0,0 UV-I 0 W/m 13,8 C 14,4 C 8,0 km/h (2 Bft) 94,34 %
20.08.2017 01:28 14,4 C 22,8 C 96 % 1019,5 hPa 0,0 l/m 4,6 km/h (1 Bft) SW 235 0 min 0,000 mm 0,0 UV-I 0 W/m 13,8 C 14,4 C 6,4 km/h (2 Bft) 97,14 %
20.08.2017 01:30 14,4 C 22,8 C 96 % 1019,5 hPa 0,0 l/m 4,7 km/h (1 Bft) SW 219 0 min 0,000 mm 0,0 UV-I 0 W/m 13,8 C 14,4 C 6,4 km/h (2 Bft) 94,64 %
20.08.2017 01:32 14,4 C 22,8 C 96 % 1019,4 hPa 0,0 l/m 3,1 km/h (1 Bft) W-SW 241 0 min 0,000 mm 0,0 UV-I 0 W/m 13,8 C 14,4 C 4,8 km/h (1 Bft) 97,56 %
20.08.2017 01:34 14,4 C 22,8 C 96 % 1019,4 hPa 0,0 l/m 4,0 km/h (1 Bft) SW 236 0 min 0,000 mm 0,0 UV-I 0 W/m 13,8 C 14,4 C 8,0 km/h (2 Bft) 96,00 %
20.08.2017 01:36 14,4 C 22,8 C 96 % 1019,4 hPa 0,0 l/m 2,4 km/h (1 Bft) W-SW 244 0 min 0,000 mm 0,0 UV-I 0 W/m 13,8 C 14,4 C 6,4 km/h (2 Bft) 97,87 %
20.08.2017 01:38 14,4 C 22,8 C 96 % 1019,3 hPa 0,0 l/m 2,6 km/h (1 Bft) W-SW 244 0 min 0,000 mm 0,0 UV-I 0 W/m 13,8 C 14,4 C 4,8 km/h (1 Bft) 97,87 %
20.08.2017 01:40 14,4 C 22,8 C 96 % 1019,3 hPa 0,0 l/m 3,9 km/h (1 Bft) SW 214 0 min 0,000 mm 0,0 UV-I 0 W/m 13,8 C 14,4 C 6,4 km/h (2 Bft) 96,00 %
20.08.2017 01:42 14,4 C 22,8 C 96 % 1019,3 hPa 0,0 l/m 1,1 km/h (1 Bft) SW 214 0 min 0,000 mm 0,0 UV-I 0 W/m 13,8 C 14,4 C 3,2 km/h (1 Bft) 95,74 %
20.08.2017 01:44 14,4 C 22,8 C 96 % 1019,3 hPa 0,0 l/m 1,3 km/h (1 Bft) SW 214 0 min 0,000 mm 0,0 UV-I 0 W/m 13,8 C 14,4 C 3,2 km/h (1 Bft) 95,12 %
20.08.2017 01:46 14,4 C 22,8 C 96 % 1019,3 hPa 0,0 l/m 0,4 km/h (0 Bft) SW 214 0 min 0,000 mm 0,0 UV-I 0 W/m 13,8 C 14,4 C 3,2 km/h (1 Bft) 95,74 %
20.08.2017 01:48 14,4 C 22,8 C 96 % 1019,3 hPa 0,0 l/m 1,6 km/h (1 Bft) SW 214 0 min 0,000 mm 0,0 UV-I 0 W/m 13,8 C 14,4 C 3,2 km/h (1 Bft) 97,87 %
20.08.2017 01:50 14,4 C 22,8 C 96 % 1019,4 hPa 0,0 l/m 2,3 km/h (1 Bft) S-SW 208 0 min 0,000 mm 0,0 UV-I 0 W/m 13,8 C 14,4 C 4,8 km/h (1 Bft) 97,73 %
20.08.2017 01:52 14,4 C 22,8 C 96 % 1019,4 hPa 0,0 l/m 3,9 km/h (1 Bft) S-SW 208 0 min 0,000 mm 0,0 UV-I 0 W/m 13,8 C 14,4 C 6,4 km/h (2 Bft) 98,00 %
20.08.2017 01:54 14,4 C 22,8 C 96 % 1019,4 hPa 0,0 l/m 1,6 km/h (1 Bft) S 190 0 min 0,000 mm 0,0 UV-I 0 W/m 13,8 C 14,4 C 3,2 km/h (1 Bft) 94,00 %
20.08.2017 01:56 14,4 C 22,8 C 96 % 1019,5 hPa 0,0 l/m 1,5 km/h (1 Bft) S 190 0 min 0,000 mm 0,0 UV-I 0 W/m 13,8 C 14,4 C 4,8 km/h (1 Bft) 97,22 %
20.08.2017 01:58 14,4 C 22,8 C 96 % 1019,5 hPa 0,0 l/m 2,5 km/h (1 Bft) S 190 0 min 0,000 mm 0,0 UV-I 0 W/m 13,8 C 14,4 C 4,8 km/h (1 Bft) 100,00 %
20.08.2017 02:00 14,4 C 22,8 C 96 % 1019,5 hPa 0,0 l/m 1,3 km/h (1 Bft) S 190 0 min 0,000 mm 0,0 UV-I 0 W/m 13,8 C 14,4 C 3,2 km/h (1 Bft) 100,00 %
20.08.2017 02:02 14,4 C 22,8 C 96 % 1019,4 hPa 0,0 l/m 0,1 km/h (0 Bft) S 190 0 min 0,000 mm 0,0 UV-I 0 W/m 13,8 C 14,4 C 1,6 km/h (1 Bft) 95,83 %
20.08.2017 02:04 14,4 C 22,8 C 96 % 1019,3 hPa 0,0 l/m 0,4 km/h (0 Bft) S 190 0 min 0,000 mm 0,0 UV-I 0 W/m 13,8 C 14,4 C 3,2 km/h (1 Bft) 100,00 %
20.08.2017 02:06 14,4 C 22,8 C 96 % 1019,3 hPa 0,0 l/m 0,0 km/h (0 Bft) S 190 0 min 0,000 mm 0,0 UV-I 0 W/m 13,8 C 14,4 C 0,0 km/h (0 Bft) 100,00 %
20.08.2017 02:08 14,4 C 22,8 C 96 % 1019,2 hPa 0,0 l/m 0,0 km/h (0 Bft) S 190 0 min 0,000 mm 0,0 UV-I 0 W/m 13,8 C 14,4 C 0,0 km/h (0 Bft) 100,00 %
20.08.2017 02:10 14,4 C 22,8 C 96 % 1019,3 hPa 0,0 l/m 0,0 km/h (0 Bft) S 190 0 min 0,000 mm 0,0 UV-I 0 W/m 13,8 C 14,4 C 0,0 km/h (0 Bft) 100,00 %
20.08.2017 02:12 14,4 C 22,8 C 96 % 1019,3 hPa 0,0 l/m 0,0 km/h (0 Bft) S 190 0 min 0,000 mm 0,0 UV-I 0 W/m 13,8 C 14,4 C 0,0 km/h (0 Bft) 100,00 %
20.08.2017 02:14 14,4 C 22,8 C 95 % 1019,3 hPa 0,0 l/m 0,0 km/h (0 Bft) S 190 0 min 0,000 mm 0,0 UV-I 0 W/m 13,6 C 14,4 C 0,0 km/h (0 Bft) 100,00 %
20.08.2017 02:16 14,4 C 22,8 C 95 % 1019,4 hPa 0,0 l/m 0,0 km/h (0 Bft) S 190 0 min 0,000 mm 0,0 UV-I 0 W/m 13,6 C 14,4 C 0,0 km/h (0 Bft) 97,56 %
20.08.2017 02:18 14,4 C 22,8 C 95 % 1019,4 hPa 0,0 l/m 0,0 km/h (0 Bft) S 190 0 min 0,000 mm 0,0 UV-I 0 W/m 13,6 C 14,4 C 0,0 km/h (0 Bft) 100,00 %
20.08.2017 02:20 14,3 C 22,8 C 95 % 1019,4 hPa 0,0 l/m 0,4 km/h (0 Bft) S 190 0 min 0,000 mm 0,0 UV-I 0 W/m 13,5 C 14,3 C 1,6 km/h (1 Bft) 100,00 %
20.08.2017 02:22 14,4 C 22,8 C 95 % 1019,4 hPa 0,0 l/m 1,0 km/h (0 Bft) S 190 0 min 0,000 mm 0,0 UV-I 0 W/m 13,6 C 14,4 C 3,2 km/h (1 Bft) 98,00 %
20.08.2017 02:24 14,4 C 22,8 C 96 % 1019,5 hPa 0,0 l/m 0,9 km/h (0 Bft) S 190 0 min 0,000 mm 0,0 UV-I 0 W/m 13,8 C 14,4 C 1,6 km/h (1 Bft) 100,00 %
20.08.2017 02:26 14,4 C 22,8 C 96 % 1019,5 hPa 0,0 l/m 2,0 km/h (1 Bft) S 190 0 min 0,000 mm 0,0 UV-I 0 W/m 13,8 C 14,4 C 3,2 km/h (1 Bft) 100,00 %
20.08.2017 02:28 14,4 C 22,8 C 95 % 1019,6 hPa 0,0 l/m 1,3 km/h (1 Bft) S 190 0 min 0,000 mm 0,0 UV-I 0 W/m 13,6 C 14,4 C 3,2 km/h (1 Bft) 100,00 %
20.08.2017 02:30 14,4 C 22,8 C 95 % 1019,6 hPa 0,0 l/m 2,2 km/h (1 Bft) S 190 0 min 0,000 mm 0,0 UV-I 0 W/m 13,6 C 14,4 C 4,8 km/h (1 Bft) 97,62 %
20.08.2017 02:32 14,3 C 22,8 C 95 % 1019,7 hPa 0,0 l/m 3,3 km/h (1 Bft) S 190 0 min 0,000 mm 0,0 UV-I 0 W/m 13,5 C 14,3 C 4,8 km/h (1 Bft) 100,00 %
20.08.2017 02:34 14,3 C 22,8 C 95 % 1019,6 hPa 0,0 l/m 2,5 km/h (1 Bft) S 190 0 min 0,000 mm 0,0 UV-I 0 W/m 13,5 C 14,3 C 4,8 km/h (1 Bft) 100,00 %
20.08.2017 02:36 14,3 C 22,8 C 95 % 1019,7 hPa 0,0 l/m 3,8 km/h (1 Bft) SW 221 0 min 0,000 mm 0,0 UV-I 0 W/m 13,5 C 14,3 C 8,0 km/h (2 Bft) 100,00 %
20.08.2017 02:38 14,3 C 22,8 C 95 % 1019,7 hPa 0,0 l/m 5,5 km/h (1 Bft) S-SW 209 0 min 0,000 mm 0,0 UV-I 0 W/m 13,5 C 14,3 C 8,0 km/h (2 Bft) 100,00 %
20.08.2017 02:40 14,3 C 22,8 C 95 % 1019,6 hPa 0,0 l/m 4,3 km/h (1 Bft) SW 215 0 min 0,000 mm 0,0 UV-I 0 W/m 13,5 C 14,3 C 6,4 km/h (2 Bft) 100,00 %
20.08.2017 02:42 14,3 C 22,8 C 96 % 1019,6 hPa 0,0 l/m 2,9 km/h (1 Bft) SW 215 0 min 0,000 mm 0,0 UV-I 0 W/m 13,7 C 14,3 C 4,8 km/h (1 Bft) 100,00 %
20.08.2017 02:44 14,3 C 22,8 C 96 % 1019,6 hPa 0,0 l/m 3,4 km/h (1 Bft) SW 229 0 min 0,000 mm 0,0 UV-I 0 W/m 13,7 C 14,3 C 6,4 km/h (2 Bft) 97,73 %
20.08.2017 02:46 14,3 C 22,8 C 95 % 1019,5 hPa 0,0 l/m 3,7 km/h (1 Bft) SW 229 0 min 0,000 mm 0,0 UV-I 0 W/m 13,5 C 14,3 C 4,8 km/h (1 Bft) 100,00 %
20.08.2017 02:48 14,3 C 22,8 C 96 % 1019,5 hPa 0,0 l/m 4,7 km/h (1 Bft) S-SW 211 0 min 0,000 mm 0,0 UV-I 0 W/m 13,7 C 14,3 C 6,4 km/h (2 Bft) 100,00 %
20.08.2017 02:50 14,3 C 22,8 C 96 % 1019,4 hPa 0,0 l/m 5,7 km/h (1 Bft) S-SW 208 0 min 0,000 mm 0,0 UV-I 0 W/m 13,7 C 14,3 C 8,0 km/h (2 Bft) 100,00 %
20.08.2017 02:52 14,3 C 22,8 C 96 % 1019,4 hPa 0,0 l/m 4,7 km/h (1 Bft) SW 215 0 min 0,000 mm 0,0 UV-I 0 W/m 13,7 C 14,3 C 6,4 km/h (2 Bft) 100,00 %
20.08.2017 02:54 14,3 C 22,8 C 96 % 1019,3 hPa 0,0 l/m 4,1 km/h (1 Bft) W-SW 240 0 min 0,000 mm 0,0 UV-I 0 W/m 13,7 C 14,3 C 6,4 km/h (2 Bft) 97,14 %
20.08.2017 02:56 14,3 C 22,8 C 96 % 1019,4 hPa 0,0 l/m 3,4 km/h (1 Bft) W-SW 240 0 min 0,000 mm 0,0 UV-I 0 W/m 13,7 C 14,3 C 4,8 km/h (1 Bft) 100,00 %
20.08.2017 02:58 14,3 C 22,8 C 96 % 1019,4 hPa 0,0 l/m 3,4 km/h (1 Bft) W-SW 240 0 min 0,000 mm 0,0 UV-I 0 W/m 13,7 C 14,3 C 4,8 km/h (1 Bft) 100,00 %
20.08.2017 03:00 14,3 C 22,8 C 96 % 1019,4 hPa 0,0 l/m 5,0 km/h (1 Bft) SW 225 0 min 0,000 mm 0,0 UV-I 0 W/m 13,7 C 14,3 C 8,0 km/h (2 Bft) 100,00 %
20.08.2017 03:02 14,3 C 22,8 C 96 % 1019,4 hPa 0,0 l/m 5,0 km/h (1 Bft) SW 221 0 min 0,000 mm 0,0 UV-I 0 W/m 13,7 C 14,3 C 8,0 km/h (2 Bft) 94,00 %
20.08.2017 03:04 14,3 C 22,8 C 96 % 1019,3 hPa 0,0 l/m 4,9 km/h (1 Bft) SW 234 0 min 0,000 mm 0,0 UV-I 0 W/m 13,7 C 14,3 C 6,4 km/h (2 Bft) 97,87 %
20.08.2017 03:06 14,3 C 22,8 C 96 % 1019,3 hPa 0,0 l/m 5,0 km/h (1 Bft) S-SW 209 0 min 0,000 mm 0,0 UV-I 0 W/m 13,7 C 14,3 C 8,0 km/h (2 Bft) 97,56 %
20.08.2017 03:08 14,3 C 22,8 C 96 % 1019,2 hPa 0,0 l/m 4,4 km/h (1 Bft) SW 235 0 min 0,000 mm 0,0 UV-I 0 W/m 13,7 C 14,3 C 6,4 km/h (2 Bft) 97,62 %
20.08.2017 03:10 14,3 C 22,8 C 96 % 1019,2 hPa 0,0 l/m 4,7 km/h (1 Bft) W-SW 240 0 min 0,000 mm 0,0 UV-I 0 W/m 13,7 C 14,3 C 6,4 km/h (2 Bft) 98,28 %
20.08.2017 03:12 14,3 C 22,8 C 96 % 1019,2 hPa 0,0 l/m 5,4 km/h (1 Bft) W-SW 237 0 min 0,000 mm 0,0 UV-I 0 W/m 13,7 C 14,3 C 8,0 km/h (2 Bft) 98,11 %
20.08.2017 03:14 14,3 C 22,8 C 95 % 1019,1 hPa 0,0 l/m 4,1 km/h (1 Bft) W-SW 238 0 min 0,000 mm 0,0 UV-I 0 W/m 13,5 C 14,3 C 6,4 km/h (2 Bft) 97,44 %
20.08.2017 03:16 14,3 C 22,8 C 96 % 1019,2 hPa 0,0 l/m 4,8 km/h (1 Bft) W-SW 238 0 min 0,000 mm 0,0 UV-I 0 W/m 13,7 C 14,3 C 6,4 km/h (2 Bft) 98,00 %
20.08.2017 03:18 14,3 C 22,8 C 95 % 1019,2 hPa 0,0 l/m 5,3 km/h (1 Bft) W-SW 247 0 min 0,000 mm 0,0 UV-I 0 W/m 13,5 C 14,3 C 8,0 km/h (2 Bft) 97,56 %
20.08.2017 03:20 14,3 C 22,8 C 95 % 1019,2 hPa 0,0 l/m 6,3 km/h (2 Bft) W-SW 242 0 min 0,000 mm 0,0 UV-I 0 W/m 13,5 C 14,3 C 9,7 km/h (2 Bft) 98,00 %
20.08.2017 03:22 14,3 C 22,8 C 96 % 1019,2 hPa 0,0 l/m 6,5 km/h (2 Bft) W-SW 249 0 min 0,000 mm 0,0 UV-I 0 W/m 13,7 C 14,3 C 12,9 km/h (3 Bft) 98,00 %
20.08.2017 03:24 14,3 C 22,8 C 96 % 1019,2 hPa 0,0 l/m 6,8 km/h (2 Bft) W-SW 255 0 min 0,000 mm 0,0 UV-I 0 W/m 13,7 C 14,1 C 12,9 km/h (3 Bft) 90,57 %
20.08.2017 03:26 14,3 C 22,8 C 96 % 1019,2 hPa 0,0 l/m 5,2 km/h (1 Bft) W-SW 239 0 min 0,000 mm 0,0 UV-I 0 W/m 13,7 C 14,3 C 8,0 km/h (2 Bft) 95,45 %
20.08.2017 03:28 14,3 C 22,8 C 96 % 1019,2 hPa 0,0 l/m 6,2 km/h (2 Bft) W 271 0 min 0,000 mm 0,0 UV-I 0 W/m 13,7 C 14,3 C 11,3 km/h (2 Bft) 95,12 %
20.08.2017 03:30 14,3 C 22,8 C 96 % 1019,2 hPa 0,0 l/m 5,1 km/h (1 Bft) W-SW 249 0 min 0,000 mm 0,0 UV-I 0 W/m 13,7 C 14,3 C 9,7 km/h (2 Bft) 96,00 %
20.08.2017 03:32 14,3 C 22,8 C 96 % 1019,1 hPa 0,0 l/m 3,9 km/h (1 Bft) W-SW 257 0 min 0,000 mm 0,0 UV-I 0 W/m 13,7 C 14,3 C 6,4 km/h (2 Bft) 96,00 %
20.08.2017 03:34 14,3 C 22,8 C 96 % 1019,1 hPa 0,0 l/m 3,5 km/h (1 Bft) W 263 0 min 0,000 mm 0,0 UV-I 0 W/m 13,7 C 14,3 C 6,4 km/h (2 Bft) 95,74 %
20.08.2017 03:36 14,3 C 22,8 C 96 % 1019,1 hPa 0,0 l/m 2,1 km/h (1 Bft) W 269 0 min 0,000 mm 0,0 UV-I 0 W/m 13,7 C 14,3 C 4,8 km/h (1 Bft) 94,29 %
20.08.2017 03:38 14,3 C 22,8 C 96 % 1019,1 hPa 0,0 l/m 1,2 km/h (1 Bft) W 269 0 min 0,000 mm 0,0 UV-I 0 W/m 13,7 C 14,3 C 3,2 km/h (1 Bft) 98,31 %
20.08.2017 03:40 14,3 C 22,2 C 96 % 1019,2 hPa 0,0 l/m 1,5 km/h (1 Bft) W 269 0 min 0,000 mm 0,0 UV-I 0 W/m 13,7 C 14,3 C 4,8 km/h (1 Bft) 94,29 %
20.08.2017 03:42 14,3 C 22,2 C 96 % 1019,2 hPa 0,0 l/m 1,8 km/h (1 Bft) W 271 0 min 0,000 mm 0,0 UV-I 0 W/m 13,7 C 14,3 C 3,2 km/h (1 Bft) 96,00 %
20.08.2017 03:44 14,3 C 22,2 C 96 % 1019,2 hPa 0,0 l/m 2,7 km/h (1 Bft) W 262 0 min 0,000 mm 0,0 UV-I 0 W/m 13,7 C 14,3 C 4,8 km/h (1 Bft) 92,86 %
20.08.2017 03:46 14,3 C 22,2 C 96 % 1019,2 hPa 0,0 l/m 5,5 km/h (1 Bft) W-SW 246 0 min 0,000 mm 0,0 UV-I 0 W/m 13,7 C 14,3 C 8,0 km/h (2 Bft) 95,12 %
20.08.2017 03:48 14,3 C 22,2 C 96 % 1019,3 hPa 0,0 l/m 4,6 km/h (1 Bft) W 264 0 min 0,000 mm 0,0 UV-I 0 W/m 13,7 C 14,3 C 8,0 km/h (2 Bft) 95,74 %
20.08.2017 03:50 14,3 C 22,2 C 96 % 1019,3 hPa 0,0 l/m 7,1 km/h (2 Bft) W-SW 248 0 min 0,000 mm 0,0 UV-I 0 W/m 13,7 C 13,9 C 12,9 km/h (3 Bft) 100,00 %
20.08.2017 03:52 14,3 C 22,2 C 96 % 1019,3 hPa 0,0 l/m 6,6 km/h (2 Bft) W 260 0 min 0,000 mm 0,0 UV-I 0 W/m 13,7 C 14,2 C 12,9 km/h (3 Bft) 95,29 %
20.08.2017 03:54 14,3 C 22,2 C 96 % 1019,1 hPa 0,0 l/m 5,8 km/h (2 Bft) W-SW 244 0 min 0,000 mm 0,0 UV-I 0 W/m 13,7 C 14,3 C 9,7 km/h (2 Bft) 96,00 %
20.08.2017 03:56 14,3 C 22,2 C 96 % 1019,1 hPa 0,0 l/m 3,7 km/h (1 Bft) W-SW 252 0 min 0,000 mm 0,0 UV-I 0 W/m 13,7 C 14,3 C 6,4 km/h (2 Bft) 95,24 %
20.08.2017 03:58 14,3 C 22,2 C 96 % 1019,1 hPa 0,0 l/m 4,1 km/h (1 Bft) W-SW 252 0 min 0,000 mm 0,0 UV-I 0 W/m 13,7 C 14,3 C 6,4 km/h (2 Bft) 97,56 %
20.08.2017 04:00 14,3 C 22,2 C 96 % 1019,1 hPa 0,0 l/m 3,2 km/h (1 Bft) SW 228 0 min 0,000 mm 0,0 UV-I 0 W/m 13,7 C 14,3 C 4,8 km/h (1 Bft) 97,87 %
20.08.2017 04:02 14,3 C 22,2 C 96 % 1019,1 hPa 0,0 l/m 3,5 km/h (1 Bft) SW 228 0 min 0,000 mm 0,0 UV-I 0 W/m 13,7 C 14,3 C 6,4 km/h (2 Bft) 100,00 %
20.08.2017 04:04 14,3 C 22,2 C 96 % 1019,1 hPa 0,0 l/m 3,3 km/h (1 Bft) SW 228 0 min 0,000 mm 0,0 UV-I 0 W/m 13,7 C 14,3 C 4,8 km/h (1 Bft) 98,00 %
20.08.2017 04:06 14,3 C 22,2 C 96 % 1019,1 hPa 0,0 l/m 2,4 km/h (1 Bft) SW 228 0 min 0,000 mm 0,0 UV-I 0 W/m 13,7 C 14,3 C 4,8 km/h (1 Bft) 97,87 %
20.08.2017 04:08 14,3 C 22,2 C 95 % 1019,1 hPa 0,0 l/m 1,7 km/h (1 Bft) SW 228 0 min 0,000 mm 0,0 UV-I 0 W/m 13,5 C 14,3 C 3,2 km/h (1 Bft) 100,00 %
20.08.2017 04:10 14,3 C 22,2 C 95 % 1019,1 hPa 0,0 l/m 3,1 km/h (1 Bft) SW 228 0 min 0,000 mm 0,0 UV-I 0 W/m 13,5 C 14,3 C 4,8 km/h (1 Bft) 100,00 %
20.08.2017 04:12 14,2 C 22,2 C 95 % 1019,2 hPa 0,0 l/m 4,1 km/h (1 Bft) SW 228 0 min 0,000 mm 0,0 UV-I 0 W/m 13,4 C 14,2 C 6,4 km/h (2 Bft) 100,00 %
20.08.2017 04:14 14,2 C 22,2 C 95 % 1019,2 hPa 0,0 l/m 3,1 km/h (1 Bft) SW 228 0 min 0,000 mm 0,0 UV-I 0 W/m 13,4 C 14,2 C 4,8 km/h (1 Bft) 100,00 %
20.08.2017 04:16 14,2 C 22,2 C 95 % 1019,2 hPa 0,0 l/m 4,1 km/h (1 Bft) SW 228 0 min 0,000 mm 0,0 UV-I 0 W/m 13,4 C 14,2 C 4,8 km/h (1 Bft) 100,00 %
20.08.2017 04:18 14,2 C 22,2 C 95 % 1019,3 hPa 0,0 l/m 3,6 km/h (1 Bft) SW 229 0 min 0,000 mm 0,0 UV-I 0 W/m 13,4 C 14,2 C 4,8 km/h (1 Bft) 100,00 %
20.08.2017 04:20 14,2 C 22,2 C 95 % 1019,3 hPa 0,0 l/m 3,2 km/h (1 Bft) SW 229 0 min 0,000 mm 0,0 UV-I 0 W/m 13,4 C 14,2 C 4,8 km/h (1 Bft) 100,00 %
20.08.2017 04:22 14,2 C 22,2 C 95 % 1019,2 hPa 0,0 l/m 1,9 km/h (1 Bft) SW 229 0 min 0,000 mm 0,0 UV-I 0 W/m 13,4 C 14,2 C 4,8 km/h (1 Bft) 100,00 %
20.08.2017 04:24 14,2 C 22,2 C 95 % 1019,3 hPa 0,0 l/m 3,3 km/h (1 Bft) SW 229 0 min 0,000 mm 0,0 UV-I 0 W/m 13,4 C 14,2 C 6,4 km/h (2 Bft) 100,00 %
20.08.2017 04:26 14,2 C 22,2 C 95 % 1019,2 hPa 0,0 l/m 4,3 km/h (1 Bft) SW 229 0 min 0,000 mm 0,0 UV-I 0 W/m 13,4 C 14,2 C 6,4 km/h (2 Bft) 100,00 %
20.08.2017 04:28 14,1 C 22,2 C 96 % 1019,2 hPa 0,0 l/m 4,5 km/h (1 Bft) SW 221 0 min 0,000 mm 0,0 UV-I 0 W/m 13,5 C 14,1 C 6,4 km/h (2 Bft) 97,56 %
20.08.2017 04:30 14,1 C 22,2 C 96 % 1019,2 hPa 0,0 l/m 4,2 km/h (1 Bft) W-SW 257 0 min 0,000 mm 0,0 UV-I 0 W/m 13,5 C 14,1 C 6,4 km/h (2 Bft) 100,00 %
20.08.2017 04:32 14,1 C 22,2 C 96 % 1019,2 hPa 0,0 l/m 4,6 km/h (1 Bft) W-SW 250 0 min 0,000 mm 0,0 UV-I 0 W/m 13,5 C 14,1 C 6,4 km/h (2 Bft) 100,00 %
20.08.2017 04:34 14,1 C 22,2 C 96 % 1019,2 hPa 0,0 l/m 3,8 km/h (1 Bft) W-SW 250 0 min 0,000 mm 0,0 UV-I 0 W/m 13,5 C 14,1 C 6,4 km/h (2 Bft) 100,00 %
20.08.2017 04:36 14,1 C 22,2 C 96 % 1019,2 hPa 0,0 l/m 3,9 km/h (1 Bft) W-SW 250 0 min 0,000 mm 0,0 UV-I 0 W/m 13,5 C 14,1 C 4,8 km/h (1 Bft) 100,00 %
20.08.2017 04:38 14,1 C 22,2 C 96 % 1019,2 hPa 0,0 l/m 4,9 km/h (1 Bft) W-SW 252 0 min 0,000 mm 0,0 UV-I 0 W/m 13,5 C 14,1 C 6,4 km/h (2 Bft) 100,00 %
20.08.2017 04:40 14,1 C 22,2 C 96 % 1019,2 hPa 0,0 l/m 4,8 km/h (1 Bft) SW 225 0 min 0,000 mm 0,0 UV-I 0 W/m 13,5 C 14,1 C 6,4 km/h (2 Bft) 98,00 %
20.08.2017 04:42 14,1 C 22,2 C 96 % 1019,2 hPa 0,0 l/m 4,9 km/h (1 Bft) SW 223 0 min 0,000 mm 0,0 UV-I 0 W/m 13,5 C 14,1 C 8,0 km/h (2 Bft) 97,87 %
20.08.2017 04:44 14,1 C 22,2 C 96 % 1019,2 hPa 0,0 l/m 5,4 km/h (1 Bft) S-SW 209 0 min 0,000 mm 0,0 UV-I 0 W/m 13,5 C 14,1 C 8,0 km/h (2 Bft) 100,00 %
20.08.2017 04:46 14,1 C 22,2 C 96 % 1019,2 hPa 0,0 l/m 6,3 km/h (2 Bft) S-SW 207 0 min 0,000 mm 0,0 UV-I 0 W/m 13,5 C 14,1 C 9,7 km/h (2 Bft) 97,87 %
20.08.2017 04:48 14,1 C 22,2 C 96 % 1019,2 hPa 0,0 l/m 6,0 km/h (2 Bft) S-SW 202 0 min 0,000 mm 0,0 UV-I 0 W/m 13,5 C 14,1 C 8,0 km/h (2 Bft) 97,87 %
20.08.2017 04:50 14,1 C 22,2 C 96 % 1019,2 hPa 0,0 l/m 6,1 km/h (2 Bft) S-SW 207 0 min 0,000 mm 0,0 UV-I 0 W/m 13,5 C 14,1 C 8,0 km/h (2 Bft) 100,00 %
20.08.2017 04:52 14,1 C 22,2 C 96 % 1019,1 hPa 0,0 l/m 5,5 km/h (1 Bft) SW 225 0 min 0,000 mm 0,0 UV-I 0 W/m 13,5 C 14,1 C 9,7 km/h (2 Bft) 100,00 %
20.08.2017 04:54 14,1 C 22,2 C 96 % 1019,2 hPa 0,0 l/m 4,8 km/h (1 Bft) SW 216 0 min 0,000 mm 0,0 UV-I 0 W/m 13,5 C 14,1 C 6,4 km/h (2 Bft) 100,00 %
20.08.2017 04:56 14,1 C 22,2 C 96 % 1019,1 hPa 0,0 l/m 4,6 km/h (1 Bft) S 177 0 min 0,000 mm 0,0 UV-I 0 W/m 13,5 C 14,1 C 6,4 km/h (2 Bft) 100,00 %
20.08.2017 04:58 14,2 C 22,2 C 96 % 1019,1 hPa 0,0 l/m 5,8 km/h (2 Bft) S-SW 199 0 min 0,000 mm 0,0 UV-I 0 W/m 13,6 C 14,2 C 8,0 km/h (2 Bft) 100,00 %
20.08.2017 05:00 14,2 C 22,2 C 96 % 1019,1 hPa 0,0 l/m 5,7 km/h (1 Bft) SW 216 0 min 0,000 mm 0,0 UV-I 0 W/m 13,6 C 14,2 C 8,0 km/h (2 Bft) 100,00 %
20.08.2017 05:02 14,2 C 22,2 C 96 % 1019,1 hPa 0,0 l/m 5,0 km/h (1 Bft) SW 235 0 min 0,000 mm 0,0 UV-I 0 W/m 13,6 C 14,2 C 8,0 km/h (2 Bft) 100,00 %
20.08.2017 05:04 14,1 C 22,2 C 96 % 1019,1 hPa 0,0 l/m 7,3 km/h (2 Bft) SW 229 0 min 0,000 mm 0,0 UV-I 0 W/m 13,5 C 13,6 C 11,3 km/h (2 Bft) 97,37 %
20.08.2017 05:06 14,1 C 22,2 C 96 % 1019,1 hPa 0,0 l/m 7,2 km/h (2 Bft) W-SW 237 0 min 0,000 mm 0,0 UV-I 0 W/m 13,5 C 13,6 C 11,3 km/h (2 Bft) 100,00 %
20.08.2017 05:08 14,2 C 22,2 C 96 % 1019,2 hPa 0,0 l/m 6,2 km/h (2 Bft) S-SW 199 0 min 0,000 mm 0,0 UV-I 0 W/m 13,6 C 14,2 C 9,7 km/h (2 Bft) 100,00 %
20.08.2017 05:10 14,1 C 22,2 C 96 % 1019,1 hPa 0,0 l/m 6,9 km/h (2 Bft) SW 229 0 min 0,000 mm 0,0 UV-I 0 W/m 13,5 C 13,8 C 9,7 km/h (2 Bft) 100,00 %
20.08.2017 05:12 14,1 C 22,2 C 96 % 1019,1 hPa 0,0 l/m 5,1 km/h (1 Bft) W-SW 252 0 min 0,000 mm 0,0 UV-I 0 W/m 13,5 C 14,1 C 12,9 km/h (3 Bft) 100,00 %
20.08.2017 05:14 14,1 C 22,2 C 96 % 1019,1 hPa 0,0 l/m 7,5 km/h (2 Bft) SW 234 0 min 0,000 mm 0,0 UV-I 0 W/m 13,5 C 13,4 C 9,7 km/h (2 Bft) 100,00 %
20.08.2017 05:16 14,1 C 22,2 C 96 % 1019,2 hPa 0,0 l/m 8,4 km/h (2 Bft) SW 223 0 min 0,000 mm 0,0 UV-I 0 W/m 13,5 C 12,9 C 11,3 km/h (2 Bft) 100,00 %
20.08.2017 05:18 14,1 C 22,2 C 96 % 1019,2 hPa 0,0 l/m 7,0 km/h (2 Bft) W-SW 244 0 min 0,000 mm 0,0 UV-I 0 W/m 13,5 C 13,7 C 11,3 km/h (2 Bft) 100,00 %
20.08.2017 05:20 14,1 C 22,2 C 96 % 1019,2 hPa 0,0 l/m 9,2 km/h (2 Bft) SW 215 0 min 0,000 mm 0,0 UV-I 0 W/m 13,5 C 12,5 C 14,5 km/h (3 Bft) 100,00 %
20.08.2017 05:22 14,1 C 22,2 C 96 % 1019,2 hPa 0,0 l/m 7,8 km/h (2 Bft) S-SW 211 0 min 0,000 mm 0,0 UV-I 0 W/m 13,5 C 13,3 C 12,9 km/h (3 Bft) 100,00 %
20.08.2017 05:24 14,1 C 22,2 C 96 % 1019,2 hPa 0,0 l/m 6,0 km/h (2 Bft) SW 232 0 min 0,000 mm 0,0 UV-I 0 W/m 13,5 C 14,1 C 9,7 km/h (2 Bft) 98,11 %
20.08.2017 05:26 14,1 C 22,2 C 96 % 1019,2 hPa 0,0 l/m 6,8 km/h (2 Bft) SW 222 0 min 0,000 mm 0,0 UV-I 0 W/m 13,5 C 13,9 C 9,7 km/h (2 Bft) 97,37 %
20.08.2017 05:28 14,1 C 22,2 C 96 % 1019,2 hPa 0,0 l/m 7,5 km/h (2 Bft) SW 225 0 min 0,000 mm 0,0 UV-I 0 W/m 13,5 C 13,4 C 9,7 km/h (2 Bft) 97,87 %
20.08.2017 05:30 14,1 C 22,2 C 96 % 1019,2 hPa 0,0 l/m 5,4 km/h (1 Bft) SW 236 0 min 0,000 mm 0,0 UV-I 0 W/m 13,5 C 14,1 C 9,7 km/h (2 Bft) 96,23 %
20.08.2017 05:32 14,1 C 22,2 C 96 % 1019,3 hPa 0,0 l/m 5,7 km/h (1 Bft) SW 235 0 min 0,000 mm 0,0 UV-I 0 W/m 13,5 C 14,1 C 9,7 km/h (2 Bft) 97,56 %
20.08.2017 05:34 14,1 C 22,2 C 96 % 1019,2 hPa 0,0 l/m 6,1 km/h (2 Bft) SW 235 0 min 0,000 mm 0,0 UV-I 0 W/m 13,5 C 14,1 C 9,7 km/h (2 Bft) 98,00 %
20.08.2017 05:36 14,1 C 22,2 C 96 % 1019,2 hPa 0,0 l/m 6,2 km/h (2 Bft) SW 226 0 min 0,000 mm 0,0 UV-I 0 W/m 13,5 C 14,1 C 8,0 km/h (2 Bft) 97,56 %
20.08.2017 05:38 14,0 C 22,2 C 96 % 1019,3 hPa 0,0 l/m 6,9 km/h (2 Bft) SW 232 0 min 0,000 mm 0,0 UV-I 0 W/m 13,4 C 13,7 C 9,7 km/h (2 Bft) 97,56 %
20.08.2017 05:40 14,0 C 22,2 C 96 % 1019,3 hPa 0,0 l/m 7,9 km/h (2 Bft) SW 235 0 min 0,000 mm 0,0 UV-I 0 W/m 13,4 C 13,1 C 11,3 km/h (2 Bft) 98,11 %
20.08.2017 05:42 13,9 C 22,2 C 96 % 1019,3 hPa 0,0 l/m 7,2 km/h (2 Bft) SW 217 0 min 0,000 mm 0,0 UV-I 0 W/m 13,3 C 13,4 C 11,3 km/h (2 Bft) 98,21 %
20.08.2017 05:44 13,9 C 22,2 C 96 % 1019,3 hPa 0,0 l/m 6,7 km/h (2 Bft) SW 221 0 min 0,000 mm 0,0 UV-I 0 W/m 13,3 C 13,7 C 9,7 km/h (2 Bft) 97,14 %
20.08.2017 05:46 13,9 C 22,2 C 96 % 1019,3 hPa 0,0 l/m 7,3 km/h (2 Bft) W-SW 237 0 min 0,000 mm 0,0 UV-I 0 W/m 13,3 C 13,4 C 9,7 km/h (2 Bft) 94,00 %
20.08.2017 05:48 13,9 C 22,2 C 96 % 1019,3 hPa 0,0 l/m 7,2 km/h (2 Bft) SW 235 0 min 0,000 mm 0,0 UV-I 0 W/m 13,3 C 13,4 C 11,3 km/h (2 Bft) 96,00 %
20.08.2017 05:50 13,9 C 22,2 C 96 % 1019,3 hPa 0,0 l/m 7,1 km/h (2 Bft) SW 232 0 min 0,000 mm 0,0 UV-I 0 W/m 13,3 C 13,5 C 9,7 km/h (2 Bft) 98,11 %
20.08.2017 05:52 13,9 C 22,2 C 96 % 1019,4 hPa 0,0 l/m 7,6 km/h (2 Bft) SW 217 0 min 0,000 mm 0,0 UV-I 0 W/m 13,3 C 13,2 C 9,7 km/h (2 Bft) 97,62 %
20.08.2017 05:54 13,9 C 22,2 C 96 % 1019,4 hPa 0,0 l/m 8,7 km/h (2 Bft) SW 229 0 min 0,000 mm 0,0 UV-I 0 W/m 13,3 C 12,6 C 11,3 km/h (2 Bft) 97,56 %
20.08.2017 05:56 13,8 C 22,2 C 96 % 1019,4 hPa 0,0 l/m 7,6 km/h (2 Bft) SW 221 0 min 0,000 mm 0,0 UV-I 0 W/m 13,2 C 13,1 C 11,3 km/h (2 Bft) 98,21 %
20.08.2017 05:58 13,8 C 22,2 C 96 % 1019,4 hPa 0,0 l/m 6,0 km/h (2 Bft) SW 216 0 min 0,000 mm 0,0 UV-I 3 W/m 13,2 C 13,8 C 8,0 km/h (2 Bft) 100,00 %
20.08.2017 06:00 13,8 C 22,2 C 96 % 1019,4 hPa 0,0 l/m 7,6 km/h (2 Bft) SW 227 0 min 0,000 mm 0,0 UV-I 5 W/m 13,2 C 13,1 C 9,7 km/h (2 Bft) 98,00 %
20.08.2017 06:02 13,8 C 22,2 C 96 % 1019,4 hPa 0,0 l/m 5,8 km/h (2 Bft) SW 234 0 min 0,000 mm 0,0 UV-I 5 W/m 13,2 C 13,8 C 8,0 km/h (2 Bft) 100,00 %
20.08.2017 06:04 13,8 C 22,2 C 96 % 1019,4 hPa 0,0 l/m 6,3 km/h (2 Bft) SW 233 0 min 0,000 mm 0,0 UV-I 5 W/m 13,2 C 13,8 C 9,7 km/h (2 Bft) 98,00 %
20.08.2017 06:06 13,8 C 22,2 C 96 % 1019,4 hPa 0,2 l/m 7,2 km/h (2 Bft) SW 230 0 min 0,000 mm 0,0 UV-I 5 W/m 13,2 C 13,3 C 11,3 km/h (2 Bft) 97,56 %
20.08.2017 06:08 13,8 C 22,2 C 96 % 1019,4 hPa 0,0 l/m 6,8 km/h (2 Bft) SW 229 0 min 0,000 mm 0,0 UV-I 6 W/m 13,2 C 13,6 C 11,3 km/h (2 Bft) 100,00 %
20.08.2017 06:10 13,7 C 22,2 C 96 % 1019,4 hPa 0,0 l/m 6,2 km/h (2 Bft) SW 223 0 min 0,000 mm 0,0 UV-I 7 W/m 13,1 C 13,7 C 11,3 km/h (2 Bft) 100,00 %
20.08.2017 06:12 13,7 C 22,2 C 96 % 1019,4 hPa 0,0 l/m 5,2 km/h (1 Bft) SW 223 0 min 0,000 mm 0,0 UV-I 7 W/m 13,1 C 13,7 C 8,0 km/h (2 Bft) 100,00 %
20.08.2017 06:14 13,7 C 22,2 C 96 % 1019,5 hPa 0,0 l/m 6,3 km/h (2 Bft) W-SW 237 0 min 0,000 mm 0,0 UV-I 9 W/m 13,1 C 13,7 C 9,7 km/h (2 Bft) 100,00 %
20.08.2017 06:16 13,7 C 22,2 C 96 % 1019,5 hPa 0,0 l/m 5,4 km/h (1 Bft) W-SW 238 2 min 0,000 mm 0,0 UV-I 11 W/m 13,1 C 13,7 C 11,3 km/h (2 Bft) 100,00 %
20.08.2017 06:18 13,7 C 22,2 C 96 % 1019,5 hPa 0,0 l/m 6,6 km/h (2 Bft) W-SW 238 2 min 0,000 mm 0,0 UV-I 12 W/m 13,1 C 13,6 C 11,3 km/h (2 Bft) 100,00 %
20.08.2017 06:20 13,7 C 22,2 C 96 % 1019,5 hPa 0,0 l/m 6,5 km/h (2 Bft) W-SW 238 0 min 0,000 mm 0,0 UV-I 14 W/m 13,1 C 13,7 C 9,7 km/h (2 Bft) 100,00 %
20.08.2017 06:22 13,7 C 22,2 C 96 % 1019,5 hPa 0,0 l/m 7,0 km/h (2 Bft) W-SW 238 0 min 0,000 mm 0,0 UV-I 17 W/m 13,1 C 13,3 C 9,7 km/h (2 Bft) 97,87 %
20.08.2017 06:24 13,7 C 22,2 C 96 % 1019,6 hPa 0,0 l/m 7,1 km/h (2 Bft) SW 227 0 min 0,000 mm 0,0 UV-I 18 W/m 13,1 C 13,3 C 9,7 km/h (2 Bft) 98,11 %
20.08.2017 06:26 13,7 C 22,2 C 96 % 1019,6 hPa 0,0 l/m 7,1 km/h (2 Bft) SW 215 0 min 0,000 mm 0,0 UV-I 19 W/m 13,1 C 13,3 C 12,9 km/h (3 Bft) 100,00 %
20.08.2017 06:28 13,7 C 22,2 C 96 % 1019,7 hPa 0,0 l/m 6,1 km/h (2 Bft) SW 227 0 min 0,000 mm 0,0 UV-I 20 W/m 13,1 C 13,7 C 8,0 km/h (2 Bft) 100,00 %
20.08.2017 06:30 13,7 C 22,2 C 96 % 1019,7 hPa 0,0 l/m 5,4 km/h (1 Bft) SW 225 0 min 0,000 mm 0,0 UV-I 23 W/m 13,1 C 13,7 C 8,0 km/h (2 Bft) 100,00 %
20.08.2017 06:32 13,7 C 22,2 C 96 % 1019,7 hPa 0,0 l/m 7,2 km/h (2 Bft) SW 228 0 min 0,000 mm 0,0 UV-I 27 W/m 13,1 C 13,2 C 9,7 km/h (2 Bft) 100,00 %
20.08.2017 06:34 13,7 C 22,2 C 96 % 1019,7 hPa 0,0 l/m 5,1 km/h (1 Bft) W-SW 250 0 min 0,000 mm 0,0 UV-I 28 W/m 13,1 C 13,7 C 9,7 km/h (2 Bft) 100,00 %
20.08.2017 06:36 13,8 C 22,2 C 96 % 1019,8 hPa 0,0 l/m 6,1 km/h (2 Bft) W-SW 246 0 min 0,000 mm 0,0 UV-I 27 W/m 13,2 C 13,8 C 9,7 km/h (2 Bft) 97,37 %
20.08.2017 06:38 13,8 C 22,2 C 96 % 1019,8 hPa 0,0 l/m 6,6 km/h (2 Bft) W-SW 251 0 min 0,000 mm 0,0 UV-I 26 W/m 13,2 C 13,7 C 9,7 km/h (2 Bft) 100,00 %
20.08.2017 06:40 13,8 C 22,2 C 96 % 1019,8 hPa 0,0 l/m 7,6 km/h (2 Bft) W-SW 247 0 min 0,000 mm 0,0 UV-I 25 W/m 13,2 C 13,1 C 12,9 km/h (3 Bft) 96,23 %
20.08.2017 06:42 13,8 C 22,2 C 96 % 1019,8 hPa 0,0 l/m 6,0 km/h (2 Bft) W-SW 243 0 min 0,000 mm 0,0 UV-I 26 W/m 13,2 C 13,8 C 9,7 km/h (2 Bft) 95,74 %
20.08.2017 06:44 13,8 C 22,2 C 96 % 1019,8 hPa 0,0 l/m 5,8 km/h (2 Bft) W-SW 246 0 min 0,000 mm 0,0 UV-I 28 W/m 13,2 C 13,8 C 9,7 km/h (2 Bft) 97,73 %
20.08.2017 06:46 13,9 C 22,2 C 96 % 1019,8 hPa 0,0 l/m 6,4 km/h (2 Bft) SW 226 0 min 0,000 mm 0,0 UV-I 31 W/m 13,3 C 13,9 C 9,7 km/h (2 Bft) 98,11 %
20.08.2017 06:48 13,9 C 22,2 C 96 % 1019,8 hPa 0,0 l/m 6,3 km/h (2 Bft) SW 225 0 min 0,000 mm 0,0 UV-I 35 W/m 13,3 C 13,9 C 11,3 km/h (2 Bft) 98,00 %
20.08.2017 06:50 13,9 C 22,2 C 96 % 1019,8 hPa 0,0 l/m 5,2 km/h (1 Bft) SW 229 0 min 0,000 mm 0,0 UV-I 35 W/m 13,3 C 13,9 C 9,7 km/h (2 Bft) 97,56 %
20.08.2017 06:52 14,1 C 22,2 C 96 % 1019,9 hPa 0,0 l/m 4,4 km/h (1 Bft) W-SW 240 0 min 0,000 mm 0,0 UV-I 34 W/m 13,5 C 14,1 C 6,4 km/h (2 Bft) 98,11 %
20.08.2017 06:54 14,1 C 22,2 C 96 % 1019,9 hPa 0,0 l/m 4,8 km/h (1 Bft) W-SW 253 0 min 0,000 mm 0,0 UV-I 34 W/m 13,5 C 14,1 C 11,3 km/h (2 Bft) 97,37 %
20.08.2017 06:56 14,1 C 22,2 C 96 % 1019,9 hPa 0,0 l/m 8,3 km/h (2 Bft) W-SW 250 0 min 0,000 mm 0,0 UV-I 35 W/m 13,5 C 13,0 C 12,9 km/h (3 Bft) 94,34 %
20.08.2017 06:58 14,1 C 22,2 C 96 % 1020,0 hPa 0,0 l/m 8,7 km/h (2 Bft) W 268 0 min 0,000 mm 0,0 UV-I 39 W/m 13,5 C 12,8 C 12,9 km/h (3 Bft) 96,00 %
20.08.2017 07:00 14,2 C 22,2 C 96 % 1020,0 hPa 0,0 l/m 5,0 km/h (1 Bft) W-SW 244 0 min 0,025 mm 0,0 UV-I 49 W/m 13,6 C 14,2 C 9,7 km/h (2 Bft) 97,56 %
20.08.2017 07:02 14,2 C 22,2 C 96 % 1020,0 hPa 0,0 l/m 6,7 km/h (2 Bft) W-SW 245 0 min 0,000 mm 0,0 UV-I 55 W/m 13,6 C 14,0 C 11,3 km/h (2 Bft) 98,11 %
20.08.2017 07:04 14,2 C 22,2 C 96 % 1020,0 hPa 0,0 l/m 5,4 km/h (1 Bft) W-SW 247 0 min 0,000 mm 0,0 UV-I 59 W/m 13,6 C 14,2 C 9,7 km/h (2 Bft) 95,12 %
20.08.2017 07:06 14,3 C 22,2 C 96 % 1020,0 hPa 0,0 l/m 5,1 km/h (1 Bft) W-SW 254 0 min 0,000 mm 0,0 UV-I 62 W/m 13,7 C 14,3 C 8,0 km/h (2 Bft) 97,87 %
20.08.2017 07:08 14,3 C 22,2 C 96 % 1020,0 hPa 0,0 l/m 6,0 km/h (2 Bft) W 259 0 min 0,000 mm 0,0 UV-I 67 W/m 13,7 C 14,3 C 9,7 km/h (2 Bft) 95,74 %
20.08.2017 07:10 14,3 C 22,2 C 96 % 1020,1 hPa 0,0 l/m 3,9 km/h (1 Bft) W-SW 258 0 min 0,000 mm 0,0 UV-I 76 W/m 13,7 C 14,3 C 6,4 km/h (2 Bft) 96,00 %
20.08.2017 07:12 14,3 C 22,2 C 96 % 1020,0 hPa 0,0 l/m 5,2 km/h (1 Bft) W-SW 246 0 min 0,000 mm 0,0 UV-I 70 W/m 13,7 C 14,3 C 9,7 km/h (2 Bft) 97,87 %
20.08.2017 07:14 14,3 C 22,2 C 96 % 1020,0 hPa 0,0 l/m 5,1 km/h (1 Bft) W-SW 248 0 min 0,000 mm 0,0 UV-I 67 W/m 13,7 C 14,3 C 8,0 km/h (2 Bft) 97,92 %
20.08.2017 07:16 14,3 C 22,2 C 96 % 1020,1 hPa 0,0 l/m 4,8 km/h (1 Bft) W 265 0 min 0,000 mm 0,0 UV-I 69 W/m 13,7 C 14,3 C 8,0 km/h (2 Bft) 97,37 %
20.08.2017 07:18 14,4 C 22,2 C 96 % 1020,1 hPa 0,0 l/m 4,1 km/h (1 Bft) SW 224 0 min 0,000 mm 0,0 UV-I 72 W/m 13,8 C 14,4 C 6,4 km/h (2 Bft) 96,43 %
20.08.2017 07:20 14,4 C 22,2 C 95 % 1020,1 hPa 0,0 l/m 5,1 km/h (1 Bft) SW 221 0 min 0,000 mm 0,0 UV-I 69 W/m 13,6 C 14,4 C 8,0 km/h (2 Bft) 97,73 %
20.08.2017 07:22 14,4 C 22,2 C 95 % 1020,0 hPa 0,0 l/m 4,5 km/h (1 Bft) SW 229 0 min 0,000 mm 0,0 UV-I 70 W/m 13,6 C 14,4 C 6,4 km/h (2 Bft) 98,00 %
20.08.2017 07:24 14,4 C 22,2 C 95 % 1020,1 hPa 0,0 l/m 6,1 km/h (2 Bft) SW 227 0 min 0,000 mm 0,0 UV-I 72 W/m 13,6 C 14,4 C 9,7 km/h (2 Bft) 95,74 %
20.08.2017 07:26 14,4 C 22,2 C 95 % 1020,1 hPa 0,0 l/m 5,9 km/h (2 Bft) SW 234 0 min 0,000 mm 0,0 UV-I 77 W/m 13,6 C 14,4 C 9,7 km/h (2 Bft) 95,74 %
20.08.2017 07:28 14,4 C 22,2 C 95 % 1020,0 hPa 0,0 l/m 5,3 km/h (1 Bft) SW 231 0 min 0,000 mm 0,0 UV-I 80 W/m 13,6 C 14,4 C 6,4 km/h (2 Bft) 94,29 %
20.08.2017 07:30 14,4 C 22,2 C 95 % 1020,0 hPa 0,0 l/m 4,8 km/h (1 Bft) W-SW 248 0 min 0,000 mm 0,0 UV-I 76 W/m 13,6 C 14,4 C 6,4 km/h (2 Bft) 94,34 %
20.08.2017 07:32 14,5 C 22,2 C 95 % 1020,0 hPa 0,0 l/m 4,0 km/h (1 Bft) SW 234 0 min 0,000 mm 0,0 UV-I 71 W/m 13,7 C 14,5 C 6,4 km/h (2 Bft) 96,23 %
20.08.2017 07:34 14,5 C 22,2 C 95 % 1020,1 hPa 0,0 l/m 6,0 km/h (2 Bft) W-SW 238 0 min 0,000 mm 0,0 UV-I 71 W/m 13,7 C 14,5 C 8,0 km/h (2 Bft) 94,74 %
20.08.2017 07:36 14,5 C 22,2 C 95 % 1020,1 hPa 0,0 l/m 6,7 km/h (2 Bft) SW 231 0 min 0,000 mm 0,0 UV-I 79 W/m 13,7 C 14,3 C 9,7 km/h (2 Bft) 93,62 %
20.08.2017 07:38 14,5 C 22,2 C 95 % 1020,1 hPa 0,0 l/m 5,4 km/h (1 Bft) SW 228 0 min 0,000 mm 0,0 UV-I 85 W/m 13,7 C 14,5 C 9,7 km/h (2 Bft) 96,00 %
20.08.2017 07:40 14,5 C 22,2 C 95 % 1020,2 hPa 0,0 l/m 6,0 km/h (2 Bft) S-SW 210 0 min 0,000 mm 0,0 UV-I 88 W/m 13,7 C 14,5 C 8,0 km/h (2 Bft) 96,00 %
20.08.2017 07:42 14,5 C 22,2 C 95 % 1020,1 hPa 0,0 l/m 5,3 km/h (1 Bft) SW 229 0 min 0,000 mm 0,0 UV-I 90 W/m 13,7 C 14,5 C 9,7 km/h (2 Bft) 97,37 %
20.08.2017 07:44 14,5 C 22,2 C 95 % 1020,2 hPa 0,0 l/m 6,9 km/h (2 Bft) W-SW 238 0 min 0,000 mm 0,0 UV-I 93 W/m 13,7 C 14,2 C 11,3 km/h (2 Bft) 98,11 %
20.08.2017 07:46 14,5 C 22,2 C 95 % 1020,2 hPa 0,0 l/m 5,4 km/h (1 Bft) S-SW 201 0 min 0,000 mm 0,0 UV-I 91 W/m 13,7 C 14,5 C 11,3 km/h (2 Bft) 95,24 %
20.08.2017 07:48 14,5 C 22,2 C 95 % 1020,2 hPa 0,0 l/m 5,5 km/h (1 Bft) W-SW 241 0 min 0,000 mm 0,0 UV-I 102 W/m 13,7 C 14,5 C 8,0 km/h (2 Bft) 94,74 %
20.08.2017 07:50 14,5 C 22,2 C 95 % 1020,1 hPa 0,0 l/m 6,4 km/h (2 Bft) W-SW 246 0 min 0,000 mm 0,0 UV-I 82 W/m 13,7 C 14,5 C 9,7 km/h (2 Bft) 96,23 %
20.08.2017 07:52 14,5 C 22,2 C 95 % 1020,2 hPa 0,0 l/m 6,5 km/h (2 Bft) W-SW 240 0 min 0,000 mm 0,0 UV-I 72 W/m 13,7 C 14,5 C 11,3 km/h (2 Bft) 98,00 %
20.08.2017 07:54 14,5 C 22,2 C 95 % 1020,2 hPa 0,0 l/m 6,6 km/h (2 Bft) W-SW 243 0 min 0,000 mm 0,0 UV-I 72 W/m 13,7 C 14,4 C 9,7 km/h (2 Bft) 98,00 %
20.08.2017 07:56 14,5 C 22,2 C 95 % 1020,3 hPa 0,0 l/m 6,9 km/h (2 Bft) SW 229 0 min 0,000 mm 0,0 UV-I 73 W/m 13,7 C 14,2 C 9,7 km/h (2 Bft) 98,11 %
20.08.2017 07:58 14,5 C 22,2 C 95 % 1020,3 hPa 0,0 l/m 6,7 km/h (2 Bft) SW 230 0 min 0,000 mm 0,0 UV-I 76 W/m 13,7 C 14,3 C 9,7 km/h (2 Bft) 97,56 %
20.08.2017 08:00 14,5 C 22,2 C 95 % 1020,2 hPa 0,0 l/m 6,3 km/h (2 Bft) W-SW 242 0 min 0,051 mm 0,0 UV-I 86 W/m 13,7 C 14,5 C 9,7 km/h (2 Bft) 98,00 %
20.08.2017 08:02 14,4 C 22,2 C 95 % 1020,3 hPa 0,0 l/m 6,4 km/h (2 Bft) SW 236 0 min 0,000 mm 0,0 UV-I 92 W/m 13,6 C 14,4 C 9,7 km/h (2 Bft) 95,12 %
20.08.2017 08:04 14,4 C 22,2 C 95 % 1020,3 hPa 0,0 l/m 5,8 km/h (2 Bft) SW 225 0 min 0,000 mm 0,0 UV-I 96 W/m 13,6 C 14,4 C 9,7 km/h (2 Bft) 100,00 %
20.08.2017 08:06 14,4 C 22,2 C 95 % 1020,3 hPa 0,0 l/m 6,4 km/h (2 Bft) SW 232 0 min 0,000 mm 0,0 UV-I 105 W/m 13,6 C 14,4 C 9,7 km/h (2 Bft) 100,00 %
20.08.2017 08:08 14,4 C 22,2 C 95 % 1020,3 hPa 0,0 l/m 6,4 km/h (2 Bft) W-SW 244 0 min 0,000 mm 0,5 UV-I 163 W/m 13,6 C 14,4 C 12,9 km/h (3 Bft) 100,00 %
20.08.2017 08:10 14,6 C 22,2 C 95 % 1020,3 hPa 0,0 l/m 6,2 km/h (2 Bft) S-SW 205 2 min 0,000 mm 0,5 UV-I 279 W/m 13,8 C 14,6 C 9,7 km/h (2 Bft) 92,11 %
20.08.2017 08:12 14,6 C 22,2 C 95 % 1020,4 hPa 0,0 l/m 6,7 km/h (2 Bft) W-SW 239 2 min 0,000 mm 0,5 UV-I 284 W/m 13,8 C 14,4 C 11,3 km/h (2 Bft) 100,00 %
20.08.2017 08:14 14,7 C 22,2 C 95 % 1020,4 hPa 0,0 l/m 6,9 km/h (2 Bft) W-SW 248 0 min 0,000 mm 0,5 UV-I 177 W/m 13,9 C 14,4 C 11,3 km/h (2 Bft) 100,00 %
20.08.2017 08:16 14,8 C 22,2 C 95 % 1020,5 hPa 0,0 l/m 5,7 km/h (1 Bft) W-SW 246 0 min 0,000 mm 0,5 UV-I 158 W/m 14,0 C 14,8 C 11,3 km/h (2 Bft) 100,00 %
20.08.2017 08:18 14,8 C 22,2 C 95 % 1020,4 hPa 0,0 l/m 7,9 km/h (2 Bft) W-SW 254 2 min 0,000 mm 0,6 UV-I 241 W/m 14,0 C 13,9 C 12,9 km/h (3 Bft) 100,00 %
20.08.2017 08:20 14,9 C 22,2 C 95 % 1020,5 hPa 0,0 l/m 7,6 km/h (2 Bft) W-SW 240 2 min 0,000 mm 0,6 UV-I 285 W/m 14,1 C 14,2 C 12,9 km/h (3 Bft) 100,00 %
20.08.2017 08:22 15,1 C 22,2 C 95 % 1020,5 hPa 0,0 l/m 8,4 km/h (2 Bft) W 262 2 min 0,000 mm 0,6 UV-I 248 W/m 14,3 C 14,0 C 16,1 km/h (3 Bft) 98,11 %
20.08.2017 08:24 15,2 C 22,2 C 94 % 1020,4 hPa 0,0 l/m 7,7 km/h (2 Bft) W-SW 243 2 min 0,000 mm 0,6 UV-I 272 W/m 14,2 C 14,5 C 12,9 km/h (3 Bft) 100,00 %
20.08.2017 08:26 15,2 C 22,2 C 93 % 1020,4 hPa 0,0 l/m 9,8 km/h (2 Bft) W-SW 254 2 min 0,000 mm 0,7 UV-I 276 W/m 14,1 C 13,4 C 14,5 km/h (3 Bft) 97,87 %
20.08.2017 08:28 15,2 C 22,2 C 93 % 1020,4 hPa 0,0 l/m 10,4 km/h (2 Bft) W-SW 244 2 min 0,000 mm 0,7 UV-I 312 W/m 14,1 C 13,2 C 16,1 km/h (3 Bft) 100,00 %
20.08.2017 08:30 15,3 C 22,2 C 94 % 1020,5 hPa 0,0 l/m 8,4 km/h (2 Bft) W-SW 252 2 min 0,000 mm 0,7 UV-I 361 W/m 14,3 C 14,2 C 14,5 km/h (3 Bft) 100,00 %
20.08.2017 08:32 15,4 C 22,2 C 93 % 1020,5 hPa 0,0 l/m 10,4 km/h (2 Bft) W 278 2 min 0,000 mm 0,8 UV-I 398 W/m 14,3 C 13,4 C 17,7 km/h (3 Bft) 100,00 %
20.08.2017 08:34 15,6 C 22,2 C 93 % 1020,5 hPa 0,0 l/m 12,1 km/h (2 Bft) SW 221 2 min 0,000 mm 0,8 UV-I 427 W/m 14,5 C 12,9 C 17,7 km/h (3 Bft) 100,00 %
20.08.2017 08:36 15,7 C 22,2 C 93 % 1020,6 hPa 0,0 l/m 8,0 km/h (2 Bft) W 267 2 min 0,000 mm 0,7 UV-I 423 W/m 14,6 C 14,8 C 16,1 km/h (3 Bft) 100,00 %
20.08.2017 08:38 15,8 C 22,2 C 92 % 1020,6 hPa 0,0 l/m 13,5 km/h (3 Bft) S-SW 207 2 min 0,000 mm 0,7 UV-I 268 W/m 14,5 C 12,7 C 20,9 km/h (4 Bft) 100,00 %
20.08.2017 08:40 15,8 C 22,2 C 92 % 1020,6 hPa 0,0 l/m 12,3 km/h (3 Bft) W-SW 246 2 min 0,000 mm 0,8 UV-I 292 W/m 14,5 C 13,1 C 19,3 km/h (3 Bft) 100,00 %
20.08.2017 08:42 15,8 C 22,2 C 92 % 1020,6 hPa 0,0 l/m 12,3 km/h (3 Bft) W-SW 248 2 min 0,000 mm 0,9 UV-I 366 W/m 14,5 C 13,1 C 16,1 km/h (3 Bft) 98,00 %
20.08.2017 08:44 15,9 C 22,2 C 91 % 1020,6 hPa 0,0 l/m 10,2 km/h (2 Bft) NW 305 2 min 0,000 mm 0,9 UV-I 394 W/m 14,4 C 14,0 C 14,5 km/h (3 Bft) 100,00 %
20.08.2017 08:46 16,0 C 22,2 C 91 % 1020,6 hPa 0,0 l/m 9,9 km/h (2 Bft) W-SW 240 2 min 0,000 mm 0,9 UV-I 385 W/m 14,5 C 14,3 C 20,9 km/h (4 Bft) 100,00 %
20.08.2017 08:48 16,0 C 22,2 C 90 % 1020,6 hPa 0,0 l/m 13,0 km/h (3 Bft) W 263 2 min 0,000 mm 0,9 UV-I 347 W/m 14,4 C 13,1 C 19,3 km/h (3 Bft) 100,00 %
20.08.2017 08:50 16,1 C 22,2 C 90 % 1020,7 hPa 0,0 l/m 13,7 km/h (3 Bft) W-SW 254 2 min 0,000 mm 0,9 UV-I 361 W/m 14,5 C 12,9 C 22,5 km/h (4 Bft) 100,00 %
20.08.2017 08:52 16,0 C 22,2 C 90 % 1020,8 hPa 0,0 l/m 12,7 km/h (3 Bft) W-SW 246 2 min 0,000 mm 0,6 UV-I 296 W/m 14,4 C 13,2 C 19,3 km/h (3 Bft) 94,44 %
20.08.2017 08:54 16,0 C 22,2 C 90 % 1020,7 hPa 0,0 l/m 10,3 km/h (2 Bft) W 271 0 min 0,000 mm 0,0 UV-I 209 W/m 14,4 C 14,1 C 19,3 km/h (3 Bft) 100,00 %
20.08.2017 08:56 15,9 C 22,2 C 90 % 1020,7 hPa 0,0 l/m 10,9 km/h (2 Bft) S-SW 206 0 min 0,000 mm 0,0 UV-I 131 W/m 14,3 C 13,7 C 16,1 km/h (3 Bft) 100,00 %
20.08.2017 08:58 15,8 C 22,2 C 90 % 1020,7 hPa 0,0 l/m 13,3 km/h (3 Bft) W-SW 256 0 min 0,000 mm 0,0 UV-I 98 W/m 14,2 C 12,7 C 17,7 km/h (3 Bft) 100,00 %
20.08.2017 09:00 15,7 C 22,2 C 90 % 1020,7 hPa 0,0 l/m 10,8 km/h (2 Bft) W 276 0 min 0,153 mm 0,1 UV-I 140 W/m 14,1 C 13,6 C 17,7 km/h (3 Bft) 100,00 %
20.08.2017 09:02 15,7 C 22,2 C 90 % 1020,7 hPa 0,0 l/m 10,3 km/h (2 Bft) SW 221 0 min 0,000 mm 0,3 UV-I 154 W/m 14,1 C 13,8 C 17,7 km/h (3 Bft) 100,00 %
20.08.2017 09:04 15,6 C 22,2 C 91 % 1020,8 hPa 0,0 l/m 9,5 km/h (2 Bft) SW 236 0 min 0,000 mm 0,0 UV-I 122 W/m 14,1 C 14,0 C 14,5 km/h (3 Bft) 98,11 %
20.08.2017 09:06 15,6 C 22,2 C 91 % 1020,8 hPa 0,0 l/m 10,0 km/h (2 Bft) W 267 0 min 0,000 mm 0,0 UV-I 106 W/m 14,1 C 13,8 C 14,5 km/h (3 Bft) 100,00 %
20.08.2017 09:08 15,6 C 22,2 C 91 % 1020,9 hPa 0,0 l/m 10,5 km/h (2 Bft) W-SW 245 0 min 0,000 mm 0,0 UV-I 83 W/m 14,1 C 13,6 C 17,7 km/h (3 Bft) 100,00 %
20.08.2017 09:10 15,6 C 22,2 C 91 % 1021,0 hPa 0,0 l/m 12,2 km/h (2 Bft) W-SW 247 0 min 0,000 mm 0,0 UV-I 64 W/m 14,1 C 12,9 C 17,7 km/h (3 Bft) 100,00 %
20.08.2017 09:12 15,5 C 22,2 C 91 % 1020,9 hPa 0,0 l/m 15,7 km/h (3 Bft) W 266 0 min 0,000 mm 0,0 UV-I 62 W/m 14,0 C 11,6 C 22,5 km/h (4 Bft) 100,00 %
20.08.2017 09:14 15,4 C 22,2 C 91 % 1021,0 hPa 0,0 l/m 15,2 km/h (3 Bft) W-SW 248 0 min 0,000 mm 0,0 UV-I 63 W/m 13,9 C 11,6 C 24,1 km/h (4 Bft) 100,00 %
20.08.2017 09:16 15,3 C 22,2 C 91 % 1021,0 hPa 0,2 l/m 17,8 km/h (3 Bft) W-SW 248 0 min 0,000 mm 0,0 UV-I 69 W/m 13,8 C 10,7 C 30,6 km/h (5 Bft) 100,00 %
20.08.2017 09:18 15,2 C 22,2 C 91 % 1021,0 hPa 0,0 l/m 9,1 km/h (2 Bft) W-SW 258 0 min 0,000 mm 0,0 UV-I 75 W/m 13,7 C 13,8 C 14,5 km/h (3 Bft) 96,43 %
20.08.2017 09:20 15,0 C 22,2 C 91 % 1021,0 hPa 0,0 l/m 10,5 km/h (2 Bft) W 262 0 min 0,000 mm 0,0 UV-I 81 W/m 13,5 C 12,9 C 17,7 km/h (3 Bft) 100,00 %
20.08.2017 09:22 14,9 C 22,2 C 92 % 1021,0 hPa 0,2 l/m 11,5 km/h (2 Bft) W-SW 244 0 min 0,000 mm 0,0 UV-I 93 W/m 13,6 C 12,4 C 17,7 km/h (3 Bft) 97,56 %
20.08.2017 09:24 14,9 C 22,2 C 92 % 1021,0 hPa 0,0 l/m 7,9 km/h (2 Bft) W-SW 248 0 min 0,000 mm 0,1 UV-I 103 W/m 13,6 C 14,1 C 14,5 km/h (3 Bft) 97,37 %
20.08.2017 09:26 14,8 C 22,2 C 92 % 1021,0 hPa 0,0 l/m 6,7 km/h (2 Bft) W 269 0 min 0,000 mm 0,5 UV-I 110 W/m 13,5 C 14,6 C 12,9 km/h (3 Bft) 98,31 %
20.08.2017 09:28 14,8 C 22,2 C 92 % 1021,0 hPa 0,0 l/m 8,8 km/h (2 Bft) W 267 0 min 0,000 mm 0,5 UV-I 113 W/m 13,5 C 13,5 C 16,1 km/h (3 Bft) 92,11 %
20.08.2017 09:30 14,8 C 22,2 C 93 % 1021,1 hPa 0,0 l/m 7,1 km/h (2 Bft) W 264 0 min 0,000 mm 0,5 UV-I 109 W/m 13,7 C 14,4 C 12,9 km/h (3 Bft) 96,23 %
20.08.2017 09:32 14,8 C 22,2 C 93 % 1021,1 hPa 0,0 l/m 5,6 km/h (1 Bft) SW 225 0 min 0,000 mm 0,5 UV-I 105 W/m 13,7 C 14,8 C 9,7 km/h (2 Bft) 97,56 %
20.08.2017 09:34 14,9 C 22,2 C 93 % 1021,1 hPa 0,0 l/m 7,0 km/h (2 Bft) S-SW 198 0 min 0,000 mm 0,1 UV-I 102 W/m 13,8 C 14,6 C 16,1 km/h (3 Bft) 95,74 %
20.08.2017 09:36 15,0 C 22,2 C 94 % 1021,1 hPa 0,0 l/m 6,1 km/h (2 Bft) SW 236 0 min 0,000 mm 0,1 UV-I 105 W/m 14,0 C 15,0 C 14,5 km/h (3 Bft) 93,62 %
20.08.2017 09:38 15,1 C 22,2 C 94 % 1021,1 hPa 0,0 l/m 9,3 km/h (2 Bft) SW 219 0 min 0,000 mm 0,5 UV-I 111 W/m 14,1 C 13,6 C 12,9 km/h (3 Bft) 97,87 %
20.08.2017 09:40 15,1 C 22,2 C 94 % 1021,2 hPa 0,0 l/m 7,4 km/h (2 Bft) S-SW 204 0 min 0,000 mm 0,5 UV-I 119 W/m 14,1 C 14,5 C 11,3 km/h (2 Bft) 96,00 %
20.08.2017 09:42 15,2 C 22,2 C 94 % 1021,2 hPa 0,0 l/m 9,1 km/h (2 Bft) W 265 0 min 0,000 mm 0,6 UV-I 128 W/m 14,2 C 13,8 C 14,5 km/h (3 Bft) 96,00 %
20.08.2017 09:44 15,2 C 22,2 C 94 % 1021,1 hPa 0,0 l/m 6,9 km/h (2 Bft) W-SW 242 0 min 0,000 mm 0,7 UV-I 145 W/m 14,2 C 14,9 C 16,1 km/h (3 Bft) 97,62 %
20.08.2017 09:46 15,2 C 22,2 C 94 % 1021,1 hPa 0,0 l/m 9,2 km/h (2 Bft) SW 232 0 min 0,000 mm 0,8 UV-I 161 W/m 14,2 C 13,7 C 16,1 km/h (3 Bft) 96,36 %
20.08.2017 09:48 15,3 C 22,2 C 94 % 1021,2 hPa 0,0 l/m 6,7 km/h (2 Bft) W-SW 250 0 min 0,000 mm 0,9 UV-I 175 W/m 14,3 C 15,1 C 12,9 km/h (3 Bft) 100,00 %
20.08.2017 09:50 15,3 C 22,2 C 93 % 1021,1 hPa 0,0 l/m 9,4 km/h (2 Bft) W 263 0 min 0,000 mm 0,9 UV-I 187 W/m 14,2 C 13,7 C 17,7 km/h (3 Bft) 96,23 %
20.08.2017 09:52 15,3 C 22,2 C 93 % 1021,2 hPa 0,0 l/m 11,8 km/h (2 Bft) SW 234 0 min 0,000 mm 1,0 UV-I 190 W/m 14,2 C 12,7 C 16,1 km/h (3 Bft) 97,87 %
20.08.2017 09:54 15,4 C 22,2 C 93 % 1021,2 hPa 0,0 l/m 12,1 km/h (2 Bft) W 275 0 min 0,000 mm 0,9 UV-I 184 W/m 14,3 C 12,7 C 17,7 km/h (3 Bft) 100,00 %
20.08.2017 09:56 15,4 C 22,2 C 93 % 1021,2 hPa 0,0 l/m 9,0 km/h (2 Bft) SW 229 0 min 0,000 mm 0,9 UV-I 172 W/m 14,3 C 14,0 C 14,5 km/h (3 Bft) 100,00 %
20.08.2017 09:58 15,4 C 22,2 C 93 % 1021,2 hPa 0,0 l/m 13,3 km/h (3 Bft) W 261 0 min 0,000 mm 0,9 UV-I 162 W/m 14,3 C 12,3 C 17,7 km/h (3 Bft) 95,45 %
20.08.2017 10:00 15,4 C 22,2 C 92 % 1021,3 hPa 0,0 l/m 9,5 km/h (2 Bft) W-SW 257 0 min 0,076 mm 0,9 UV-I 158 W/m 14,1 C 13,8 C 16,1 km/h (3 Bft) 100,00 %
20.08.2017 10:02 15,4 C 22,2 C 92 % 1021,3 hPa 0,0 l/m 11,1 km/h (2 Bft) W-SW 254 0 min 0,000 mm 0,9 UV-I 155 W/m 14,1 C 13,1 C 14,5 km/h (3 Bft) 98,11 %
20.08.2017 10:04 15,4 C 22,2 C 92 % 1021,3 hPa 0,0 l/m 13,6 km/h (3 Bft) W-SW 258 0 min 0,000 mm 0,9 UV-I 153 W/m 14,1 C 12,1 C 20,9 km/h (4 Bft) 100,00 %
20.08.2017 10:06 15,4 C 22,2 C 91 % 1021,3 hPa 0,0 l/m 11,5 km/h (2 Bft) W-SW 257 0 min 0,000 mm 0,9 UV-I 155 W/m 13,9 C 12,9 C 17,7 km/h (3 Bft) 98,00 %
20.08.2017 10:08 15,4 C 22,2 C 91 % 1021,3 hPa 0,0 l/m 12,6 km/h (3 Bft) SW 225 0 min 0,000 mm 0,9 UV-I 161 W/m 13,9 C 12,5 C 24,1 km/h (4 Bft) 100,00 %
20.08.2017 10:10 15,4 C 22,2 C 91 % 1021,3 hPa 0,0 l/m 12,8 km/h (3 Bft) W 259 0 min 0,000 mm 1,0 UV-I 173 W/m 13,9 C 12,4 C 17,7 km/h (3 Bft) 97,87 %
20.08.2017 10:12 15,4 C 22,2 C 90 % 1021,4 hPa 0,0 l/m 14,3 km/h (3 Bft) W-SW 242 0 min 0,000 mm 1,0 UV-I 184 W/m 13,8 C 11,9 C 25,7 km/h (4 Bft) 97,87 %
20.08.2017 10:14 15,4 C 22,2 C 90 % 1021,3 hPa 0,0 l/m 14,1 km/h (3 Bft) W-SW 243 0 min 0,000 mm 1,0 UV-I 190 W/m 13,8 C 12,0 C 20,9 km/h (4 Bft) 100,00 %
20.08.2017 10:16 15,4 C 22,2 C 90 % 1021,4 hPa 0,0 l/m 12,7 km/h (3 Bft) SW 235 0 min 0,000 mm 1,1 UV-I 194 W/m 13,8 C 12,5 C 24,1 km/h (4 Bft) 94,74 %
20.08.2017 10:18 15,4 C 22,2 C 90 % 1021,4 hPa 0,0 l/m 10,5 km/h (2 Bft) W 269 0 min 0,000 mm 1,2 UV-I 212 W/m 13,8 C 13,3 C 22,5 km/h (4 Bft) 98,21 %
20.08.2017 10:20 15,4 C 22,2 C 90 % 1021,4 hPa 0,0 l/m 9,4 km/h (2 Bft) W-SW 248 0 min 0,000 mm 1,2 UV-I 227 W/m 13,8 C 13,8 C 19,3 km/h (3 Bft) 94,74 %
20.08.2017 10:22 15,5 C 22,2 C 90 % 1021,4 hPa 0,0 l/m 12,4 km/h (3 Bft) W-SW 246 0 min 0,000 mm 1,3 UV-I 226 W/m 13,9 C 12,7 C 20,9 km/h (4 Bft) 97,92 %
20.08.2017 10:24 15,5 C 22,2 C 90 % 1021,4 hPa 0,0 l/m 10,1 km/h (2 Bft) W-SW 238 0 min 0,000 mm 1,3 UV-I 232 W/m 13,9 C 13,6 C 16,1 km/h (3 Bft) 96,23 %
20.08.2017 10:26 15,6 C 22,2 C 90 % 1021,4 hPa 0,0 l/m 12,6 km/h (3 Bft) SW 233 0 min 0,000 mm 1,3 UV-I 221 W/m 14,0 C 12,7 C 20,9 km/h (4 Bft) 97,62 %
20.08.2017 10:28 15,6 C 22,2 C 90 % 1021,5 hPa 0,0 l/m 12,9 km/h (3 Bft) W-SW 246 0 min 0,000 mm 1,5 UV-I 263 W/m 14,0 C 12,6 C 20,9 km/h (4 Bft) 96,15 %
20.08.2017 10:30 15,5 C 22,2 C 90 % 1021,5 hPa 0,0 l/m 12,2 km/h (2 Bft) W-SW 238 0 min 0,000 mm 1,7 UV-I 260 W/m 13,9 C 12,8 C 17,7 km/h (3 Bft) 95,56 %
20.08.2017 10:32 15,6 C 22,2 C 90 % 1021,5 hPa 0,0 l/m 12,8 km/h (3 Bft) SW 232 0 min 0,000 mm 1,9 UV-I 306 W/m 14,0 C 12,7 C 17,7 km/h (3 Bft) 97,56 %
20.08.2017 10:34 15,6 C 22,2 C 90 % 1021,4 hPa 0,0 l/m 13,8 km/h (3 Bft) W-SW 240 0 min 0,000 mm 2,0 UV-I 358 W/m 14,0 C 12,3 C 22,5 km/h (4 Bft) 98,00 %
20.08.2017 10:36 15,7 C 22,2 C 90 % 1021,4 hPa 0,0 l/m 13,5 km/h (3 Bft) W-SW 240 2 min 0,000 mm 2,4 UV-I 542 W/m 14,1 C 12,5 C 19,3 km/h (3 Bft) 98,11 %
20.08.2017 10:38 15,9 C 22,2 C 89 % 1021,4 hPa 0,0 l/m 17,7 km/h (3 Bft) W-SW 253 2 min 0,000 mm 2,3 UV-I 653 W/m 14,1 C 11,5 C 30,6 km/h (5 Bft) 97,56 %
20.08.2017 10:40 16,1 C 22,2 C 89 % 1021,4 hPa 0,0 l/m 13,8 km/h (3 Bft) SW 229 2 min 0,000 mm 1,8 UV-I 445 W/m 14,3 C 12,9 C 19,3 km/h (3 Bft) 97,87 %
20.08.2017 10:42 16,2 C 22,2 C 88 % 1021,4 hPa 0,0 l/m 15,0 km/h (3 Bft) W 263 0 min 0,000 mm 1,9 UV-I 346 W/m 14,2 C 12,6 C 22,5 km/h (4 Bft) 98,00 %
20.08.2017 10:44 16,2 C 22,2 C 87 % 1021,4 hPa 0,0 l/m 16,3 km/h (3 Bft) S-SW 192 0 min 0,000 mm 1,7 UV-I 337 W/m 14,0 C 12,3 C 22,5 km/h (4 Bft) 97,56 %
20.08.2017 10:46 16,2 C 22,2 C 87 % 1021,5 hPa 0,0 l/m 16,1 km/h (3 Bft) W-SW 248 0 min 0,000 mm 1,8 UV-I 293 W/m 14,0 C 12,3 C 24,1 km/h (4 Bft) 98,21 %
20.08.2017 10:48 16,1 C 22,2 C 86 % 1021,4 hPa 0,0 l/m 21,1 km/h (4 Bft) S-SW 202 0 min 0,000 mm 2,0 UV-I 338 W/m 13,8 C 10,9 C 27,4 km/h (4 Bft) 97,14 %
20.08.2017 10:50 16,1 C 22,2 C 87 % 1021,5 hPa 0,0 l/m 14,7 km/h (3 Bft) W 271 0 min 0,000 mm 1,9 UV-I 290 W/m 13,9 C 12,6 C 22,5 km/h (4 Bft) 98,11 %
20.08.2017 10:52 16,0 C 22,2 C 87 % 1021,5 hPa 0,0 l/m 14,6 km/h (3 Bft) W 263 0 min 0,000 mm 2,1 UV-I 282 W/m 13,8 C 12,5 C 20,9 km/h (4 Bft) 96,00 %
20.08.2017 10:54 16,0 C 22,2 C 88 % 1021,5 hPa 0,0 l/m 13,6 km/h (3 Bft) SW 232 0 min 0,000 mm 2,3 UV-I 340 W/m 14,0 C 12,9 C 19,3 km/h (3 Bft) 100,00 %
20.08.2017 10:56 16,2 C 22,2 C 88 % 1021,5 hPa 0,0 l/m 17,7 km/h (3 Bft) W-SW 250 2 min 0,000 mm 2,7 UV-I 895 W/m 14,2 C 11,9 C 27,4 km/h (4 Bft) 96,43 %
20.08.2017 10:58 16,2 C 22,2 C 86 % 1021,5 hPa 0,0 l/m 19,6 km/h (3 Bft) SW 228 2 min 0,000 mm 2,7 UV-I 909 W/m 13,9 C 11,4 C 25,7 km/h (4 Bft) 97,56 %
20.08.2017 11:00 16,2 C 22,2 C 86 % 1021,5 hPa 0,0 l/m 12,7 km/h (3 Bft) SW 233 2 min 0,203 mm 2,7 UV-I 499 W/m 13,9 C 13,4 C 22,5 km/h (4 Bft) 98,11 %
20.08.2017 11:02 16,3 C 22,2 C 86 % 1021,5 hPa 0,0 l/m 14,7 km/h (3 Bft) W-SW 239 2 min 0,000 mm 2,8 UV-I 453 W/m 14,0 C 12,9 C 24,1 km/h (4 Bft) 97,56 %
20.08.2017 11:04 16,4 C 22,2 C 86 % 1021,6 hPa 0,0 l/m 14,8 km/h (3 Bft) S-SW 205 2 min 0,000 mm 3,0 UV-I 787 W/m 14,1 C 12,9 C 20,9 km/h (4 Bft) 97,92 %
20.08.2017 11:06 16,4 C 22,2 C 85 % 1021,6 hPa 0,0 l/m 14,2 km/h (3 Bft) W-SW 237 0 min 0,000 mm 2,3 UV-I 345 W/m 13,9 C 13,1 C 22,5 km/h (4 Bft) 97,87 %
20.08.2017 11:08 16,4 C 22,2 C 85 % 1021,6 hPa 0,0 l/m 12,7 km/h (3 Bft) S-SW 202 2 min 0,000 mm 2,5 UV-I 460 W/m 13,9 C 13,6 C 20,9 km/h (4 Bft) 97,87 %
20.08.2017 11:10 16,5 C 22,2 C 84 % 1021,6 hPa 0,0 l/m 20,0 km/h (4 Bft) S-SW 202 2 min 0,000 mm 3,3 UV-I 740 W/m 13,8 C 11,7 C 29,0 km/h (5 Bft) 98,11 %
20.08.2017 11:12 16,7 C 22,2 C 84 % 1021,6 hPa 0,0 l/m 13,0 km/h (3 Bft) W-SW 239 2 min 0,000 mm 2,7 UV-I 821 W/m 14,0 C 13,9 C 19,3 km/h (3 Bft) 97,87 %
20.08.2017 11:14 16,8 C 22,2 C 84 % 1021,5 hPa 0,0 l/m 12,2 km/h (2 Bft) W-SW 239 2 min 0,000 mm 3,0 UV-I 821 W/m 14,1 C 14,3 C 20,9 km/h (4 Bft) 100,00 %
20.08.2017 11:16 16,9 C 22,2 C 84 % 1021,6 hPa 0,0 l/m 15,8 km/h (3 Bft) SW 231 2 min 0,000 mm 3,4 UV-I 821 W/m 14,2 C 13,3 C 22,5 km/h (4 Bft) 96,00 %
20.08.2017 11:18 17,0 C 22,2 C 83 % 1021,5 hPa 0,0 l/m 8,9 km/h (2 Bft) W-SW 242 0 min 0,000 mm 2,2 UV-I 379 W/m 14,1 C 15,8 C 16,1 km/h (3 Bft) 96,00 %
20.08.2017 11:20 17,0 C 22,2 C 83 % 1021,5 hPa 0,0 l/m 11,6 km/h (2 Bft) W-NW 284 0 min 0,000 mm 3,4 UV-I 330 W/m 14,1 C 14,7 C 17,7 km/h (3 Bft) 92,11 %
20.08.2017 11:22 17,1 C 22,2 C 83 % 1021,5 hPa 0,0 l/m 15,3 km/h (3 Bft) SW 236 0 min 0,000 mm 2,0 UV-I 344 W/m 14,2 C 13,6 C 20,9 km/h (4 Bft) 96,43 %
20.08.2017 11:24 16,9 C 22,2 C 82 % 1021,5 hPa 0,0 l/m 16,9 km/h (3 Bft) SW 226 0 min 0,000 mm 2,0 UV-I 252 W/m 13,8 C 13,0 C 24,1 km/h (4 Bft) 94,29 %
20.08.2017 11:26 16,9 C 22,2 C 82 % 1021,6 hPa 0,0 l/m 16,8 km/h (3 Bft) SW 219 0 min 0,000 mm 3,6 UV-I 239 W/m 13,8 C 13,0 C 25,7 km/h (4 Bft) 96,43 %
20.08.2017 11:28 17,2 C 22,2 C 81 % 1021,6 hPa 0,0 l/m 12,0 km/h (2 Bft) SW 235 2 min 0,000 mm 3,5 UV-I 735 W/m 13,9 C 14,8 C 20,9 km/h (4 Bft) 97,37 %
20.08.2017 11:30 17,2 C 22,2 C 80 % 1021,7 hPa 0,0 l/m 15,9 km/h (3 Bft) W-SW 254 2 min 0,000 mm 3,5 UV-I 905 W/m 13,7 C 13,6 C 22,5 km/h (4 Bft) 96,67 %
20.08.2017 11:32 17,1 C 22,2 C 80 % 1021,6 hPa 0,0 l/m 17,4 km/h (3 Bft) W-SW 254 2 min 0,000 mm 3,8 UV-I 849 W/m 13,6 C 13,1 C 25,7 km/h (4 Bft) 97,14 %
20.08.2017 11:34 17,2 C 22,2 C 80 % 1021,7 hPa 0,0 l/m 11,1 km/h (2 Bft) W-SW 251 2 min 0,000 mm 3,9 UV-I 798 W/m 13,7 C 15,1 C 19,3 km/h (3 Bft) 100,00 %
20.08.2017 11:36 17,3 C 22,2 C 78 % 1021,7 hPa 0,0 l/m 12,8 km/h (3 Bft) W-SW 246 2 min 0,000 mm 4,0 UV-I 816 W/m 13,4 C 14,7 C 27,4 km/h (4 Bft) 97,14 %
20.08.2017 11:38 17,3 C 22,2 C 78 % 1021,7 hPa 0,0 l/m 12,1 km/h (2 Bft) S-SW 202 2 min 0,000 mm 3,9 UV-I 850 W/m 13,4 C 14,9 C 17,7 km/h (3 Bft) 97,73 %
20.08.2017 11:40 17,6 C 22,2 C 77 % 1021,6 hPa 0,0 l/m 15,4 km/h (3 Bft) W-SW 246 2 min 0,000 mm 4,0 UV-I 821 W/m 13,5 C 14,2 C 25,7 km/h (4 Bft) 96,23 %
20.08.2017 11:42 17,7 C 22,2 C 78 % 1021,6 hPa 0,0 l/m 16,0 km/h (3 Bft) W-SW 248 2 min 0,000 mm 4,1 UV-I 851 W/m 13,8 C 14,2 C 24,1 km/h (4 Bft) 97,44 %
20.08.2017 11:44 17,8 C 22,2 C 77 % 1021,6 hPa 0,0 l/m 17,8 km/h (3 Bft) S-SW 195 2 min 0,000 mm 3,7 UV-I 824 W/m 13,7 C 13,9 C 25,7 km/h (4 Bft) 97,56 %
20.08.2017 11:46 17,8 C 22,2 C 77 % 1021,5 hPa 0,0 l/m 11,6 km/h (2 Bft) SW 228 2 min 0,000 mm 3,8 UV-I 820 W/m 13,7 C 15,6 C 17,7 km/h (3 Bft) 96,23 %
20.08.2017 11:48 17,9 C 22,2 C 78 % 1021,6 hPa 0,0 l/m 13,0 km/h (3 Bft) W-SW 245 2 min 0,000 mm 3,8 UV-I 825 W/m 14,0 C 15,3 C 24,1 km/h (4 Bft) 96,23 %
20.08.2017 11:50 17,8 C 22,2 C 76 % 1021,5 hPa 0,0 l/m 14,1 km/h (3 Bft) SW 227 2 min 0,000 mm 3,7 UV-I 851 W/m 13,5 C 14,8 C 24,1 km/h (4 Bft) 100,00 %
20.08.2017 11:52 17,9 C 22,2 C 78 % 1021,5 hPa 0,0 l/m 10,8 km/h (2 Bft) S-SW 194 2 min 0,000 mm 4,2 UV-I 821 W/m 14,0 C 16,0 C 19,3 km/h (3 Bft) 100,00 %
20.08.2017 11:54 17,9 C 22,2 C 76 % 1021,5 hPa 0,0 l/m 14,4 km/h (3 Bft) SW 235 2 min 0,000 mm 4,2 UV-I 852 W/m 13,6 C 14,9 C 19,3 km/h (3 Bft) 100,00 %
20.08.2017 11:56 18,0 C 22,2 C 76 % 1021,5 hPa 0,0 l/m 11,6 km/h (2 Bft) S-SW 200 2 min 0,000 mm 4,3 UV-I 884 W/m 13,7 C 15,9 C 19,3 km/h (3 Bft) 100,00 %
20.08.2017 11:58 18,1 C 22,2 C 76 % 1021,5 hPa 0,0 l/m 12,6 km/h (3 Bft) W 267 2 min 0,000 mm 4,5 UV-I 920 W/m 13,8 C 15,6 C 19,3 km/h (3 Bft) 100,00 %
20.08.2017 12:00 18,2 C 22,2 C 76 % 1021,5 hPa 0,0 l/m 15,2 km/h (3 Bft) W 278 2 min 0,406 mm 4,2 UV-I 1015 W/m 13,9 C 15,0 C 22,5 km/h (4 Bft) 100,00 %
20.08.2017 12:02 18,3 C 22,2 C 75 % 1021,4 hPa 0,0 l/m 15,1 km/h (3 Bft) W 265 2 min 0,000 mm 2,4 UV-I 563 W/m 13,8 C 15,2 C 20,9 km/h (4 Bft) 98,46 %
20.08.2017 12:04 18,2 C 22,2 C 74 % 1021,4 hPa 0,0 l/m 13,8 km/h (3 Bft) W-SW 240 0 min 0,000 mm 2,2 UV-I 275 W/m 13,5 C 15,4 C 20,9 km/h (4 Bft) 100,00 %
20.08.2017 12:06 18,1 C 22,2 C 74 % 1021,4 hPa 0,0 l/m 13,3 km/h (3 Bft) S-SW 197 0 min 0,000 mm 3,2 UV-I 331 W/m 13,4 C 15,4 C 20,9 km/h (4 Bft) 97,37 %
20.08.2017 12:08 17,9 C 22,2 C 73 % 1021,3 hPa 0,0 l/m 17,3 km/h (3 Bft) SW 225 0 min 0,000 mm 2,5 UV-I 322 W/m 13,0 C 14,1 C 25,7 km/h (4 Bft) 100,00 %
20.08.2017 12:10 17,8 C 22,2 C 74 % 1021,4 hPa 0,0 l/m 11,8 km/h (2 Bft) W 262 0 min 0,000 mm 2,1 UV-I 241 W/m 13,1 C 15,6 C 20,9 km/h (4 Bft) 97,37 %
20.08.2017 12:12 17,7 C 22,2 C 75 % 1021,3 hPa 0,0 l/m 13,8 km/h (3 Bft) SW 221 0 min 0,000 mm 3,9 UV-I 308 W/m 13,2 C 14,8 C 20,9 km/h (4 Bft) 98,00 %
20.08.2017 12:14 17,8 C 22,2 C 74 % 1021,3 hPa 0,0 l/m 15,0 km/h (3 Bft) W-SW 257 0 min 0,000 mm 2,9 UV-I 270 W/m 13,1 C 14,6 C 20,9 km/h (4 Bft) 100,00 %
20.08.2017 12:16 17,9 C 22,2 C 74 % 1021,4 hPa 0,0 l/m 9,0 km/h (2 Bft) SW 230 0 min 0,000 mm 4,0 UV-I 255 W/m 13,2 C 16,7 C 12,9 km/h (3 Bft) 100,00 %
20.08.2017 12:18 18,1 C 22,2 C 75 % 1021,3 hPa 0,0 l/m 10,4 km/h (2 Bft) W 281 0 min 0,000 mm 2,7 UV-I 265 W/m 13,6 C 16,4 C 20,9 km/h (4 Bft) 100,00 %
20.08.2017 12:20 18,2 C 22,2 C 72 % 1021,3 hPa 0,0 l/m 15,2 km/h (3 Bft) W-SW 243 2 min 0,000 mm 4,5 UV-I 766 W/m 13,1 C 15,0 C 24,1 km/h (4 Bft) 100,00 %
20.08.2017 12:22 18,3 C 22,2 C 70 % 1021,3 hPa 0,0 l/m 14,6 km/h (3 Bft) W-SW 251 2 min 0,000 mm 3,8 UV-I 967 W/m 12,7 C 15,3 C 20,9 km/h (4 Bft) 100,00 %
20.08.2017 12:24 18,4 C 22,2 C 71 % 1021,2 hPa 0,0 l/m 14,5 km/h (3 Bft) SW 226 2 min 0,000 mm 4,4 UV-I 930 W/m 13,0 C 15,4 C 25,7 km/h (4 Bft) 100,00 %
20.08.2017 12:26 18,6 C 22,2 C 70 % 1021,2 hPa 0,0 l/m 9,9 km/h (2 Bft) SW 235 2 min 0,000 mm 4,6 UV-I 880 W/m 13,0 C 17,1 C 16,1 km/h (3 Bft) 100,00 %
20.08.2017 12:28 18,7 C 22,2 C 70 % 1021,2 hPa 0,0 l/m 18,9 km/h (3 Bft) W-SW 247 2 min 0,000 mm 4,7 UV-I 862 W/m 13,1 C 14,8 C 29,0 km/h (5 Bft) 97,37 %
20.08.2017 12:30 18,8 C 22,2 C 70 % 1021,2 hPa 0,0 l/m 11,9 km/h (2 Bft) W-NW 290 2 min 0,000 mm 4,8 UV-I 874 W/m 13,2 C 16,7 C 24,1 km/h (4 Bft) 100,00 %
20.08.2017 12:32 18,9 C 22,2 C 71 % 1021,2 hPa 0,0 l/m 12,1 km/h (2 Bft) S-SW 211 2 min 0,000 mm 4,8 UV-I 896 W/m 13,5 C 16,7 C 19,3 km/h (3 Bft) 100,00 %
20.08.2017 12:34 19,0 C 22,2 C 68 % 1021,2 hPa 0,0 l/m 17,9 km/h (3 Bft) SW 226 2 min 0,000 mm 4,9 UV-I 920 W/m 13,0 C 15,4 C 29,0 km/h (5 Bft) 100,00 %
20.08.2017 12:36 19,0 C 22,2 C 69 % 1021,1 hPa 0,0 l/m 18,8 km/h (3 Bft) W 261 2 min 0,000 mm 4,9 UV-I 994 W/m 13,2 C 15,2 C 24,1 km/h (4 Bft) 100,00 %
20.08.2017 12:38 18,9 C 22,2 C 68 % 1021,2 hPa 0,0 l/m 19,8 km/h (3 Bft) W 259 2 min 0,000 mm 4,8 UV-I 1002 W/m 12,9 C 14,8 C 29,0 km/h (5 Bft) 100,00 %
20.08.2017 12:40 18,9 C 22,2 C 68 % 1021,2 hPa 0,0 l/m 16,5 km/h (3 Bft) SW 236 2 min 0,000 mm 4,1 UV-I 985 W/m 12,9 C 15,5 C 22,5 km/h (4 Bft) 100,00 %
20.08.2017 12:42 18,9 C 22,2 C 68 % 1021,1 hPa 0,0 l/m 12,9 km/h (3 Bft) SW 226 2 min 0,000 mm 4,5 UV-I 984 W/m 12,9 C 16,5 C 20,9 km/h (4 Bft) 100,00 %
20.08.2017 12:44 19,0 C 22,2 C 69 % 1021,1 hPa 0,0 l/m 14,4 km/h (3 Bft) W 260 2 min 0,000 mm 4,3 UV-I 984 W/m 13,2 C 16,2 C 22,5 km/h (4 Bft) 100,00 %
20.08.2017 12:46 18,9 C 22,2 C 67 % 1021,1 hPa 0,0 l/m 15,2 km/h (3 Bft) W 275 2 min 0,000 mm 4,8 UV-I 923 W/m 12,6 C 15,9 C 22,5 km/h (4 Bft) 100,00 %
20.08.2017 12:48 18,9 C 22,2 C 67 % 1021,1 hPa 0,0 l/m 16,6 km/h (3 Bft) S-SW 201 2 min 0,000 mm 4,8 UV-I 861 W/m 12,6 C 15,5 C 24,1 km/h (4 Bft) 100,00 %
20.08.2017 12:50 18,9 C 22,2 C 68 % 1021,1 hPa 0,0 l/m 15,4 km/h (3 Bft) W 265 2 min 0,000 mm 4,8 UV-I 889 W/m 12,9 C 15,8 C 25,7 km/h (4 Bft) 100,00 %
20.08.2017 12:52 19,0 C 22,2 C 67 % 1021,1 hPa 0,0 l/m 13,9 km/h (3 Bft) NW 315 2 min 0,000 mm 4,7 UV-I 947 W/m 12,7 C 16,3 C 19,3 km/h (3 Bft) 100,00 %
20.08.2017 12:54 18,9 C 22,2 C 67 % 1021,1 hPa 0,0 l/m 9,3 km/h (2 Bft) SW 223 2 min 0,000 mm 2,8 UV-I 600 W/m 12,6 C 17,7 C 17,7 km/h (3 Bft) 100,00 %
20.08.2017 12:56 18,9 C 22,2 C 69 % 1021,1 hPa 0,0 l/m 16,2 km/h (3 Bft) SW 225 0 min 0,000 mm 2,2 UV-I 267 W/m 13,1 C 15,6 C 24,1 km/h (4 Bft) 100,00 %
20.08.2017 12:58 18,8 C 22,2 C 68 % 1021,1 hPa 0,0 l/m 14,1 km/h (3 Bft) SW 232 0 min 0,000 mm 3,0 UV-I 258 W/m 12,8 C 16,0 C 20,9 km/h (4 Bft) 100,00 %
20.08.2017 13:00 18,7 C 22,2 C 67 % 1021,1 hPa 0,0 l/m 15,8 km/h (3 Bft) SW 219 0 min 0,432 mm 2,6 UV-I 214 W/m 12,4 C 15,5 C 27,4 km/h (4 Bft) 98,08 %
20.08.2017 13:02 18,6 C 22,2 C 66 % 1021,1 hPa 0,0 l/m 14,3 km/h (3 Bft) SW 233 2 min 0,000 mm 4,6 UV-I 727 W/m 12,1 C 15,7 C 22,5 km/h (4 Bft) 97,44 %
20.08.2017 13:04 18,7 C 22,2 C 68 % 1021,1 hPa 0,0 l/m 11,1 km/h (2 Bft) W-SW 244 2 min 0,000 mm 4,8 UV-I 923 W/m 12,7 C 16,8 C 14,5 km/h (3 Bft) 100,00 %
20.08.2017 13:06 19,1 C 22,2 C 68 % 1021,1 hPa 0,0 l/m 14,3 km/h (3 Bft) W 277 2 min 0,000 mm 5,1 UV-I 964 W/m 13,1 C 16,3 C 22,5 km/h (4 Bft) 100,00 %
20.08.2017 13:08 19,3 C 22,2 C 65 % 1021,1 hPa 0,0 l/m 11,8 km/h (2 Bft) W-SW 251 2 min 0,000 mm 4,8 UV-I 976 W/m 12,6 C 17,3 C 19,3 km/h (3 Bft) 95,12 %
20.08.2017 13:10 19,5 C 22,8 C 65 % 1021,1 hPa 0,0 l/m 12,0 km/h (2 Bft) SW 229 2 min 0,000 mm 4,9 UV-I 982 W/m 12,7 C 17,5 C 20,9 km/h (4 Bft) 95,12 %
20.08.2017 13:12 19,5 C 22,8 C 63 % 1021,1 hPa 0,0 l/m 10,1 km/h (2 Bft) W 269 2 min 0,000 mm 4,9 UV-I 1027 W/m 12,3 C 18,1 C 16,1 km/h (3 Bft) 94,64 %
20.08.2017 13:14 19,6 C 22,8 C 65 % 1021,0 hPa 0,0 l/m 5,0 km/h (1 Bft) W-NW 289 2 min 0,000 mm 4,4 UV-I 831 W/m 12,8 C 19,6 C 9,7 km/h (2 Bft) 97,37 %
20.08.2017 13:16 19,7 C 22,8 C 67 % 1021,0 hPa 0,0 l/m 9,0 km/h (2 Bft) S-SW 195 2 min 0,000 mm 4,7 UV-I 494 W/m 13,4 C 18,7 C 19,3 km/h (3 Bft) 97,87 %
20.08.2017 13:18 19,7 C 22,8 C 64 % 1021,0 hPa 0,0 l/m 14,4 km/h (3 Bft) S 171 0 min 0,000 mm 3,4 UV-I 388 W/m 12,7 C 17,0 C 17,7 km/h (3 Bft) 96,00 %
20.08.2017 13:20 19,5 C 22,8 C 63 % 1020,9 hPa 0,0 l/m 16,6 km/h (3 Bft) SW 225 0 min 0,000 mm 2,3 UV-I 338 W/m 12,3 C 16,3 C 25,7 km/h (4 Bft) 98,00 %
20.08.2017 13:22 19,3 C 22,8 C 62 % 1021,0 hPa 0,0 l/m 10,7 km/h (2 Bft) W-SW 252 0 min 0,000 mm 1,6 UV-I 236 W/m 11,8 C 17,6 C 19,3 km/h (3 Bft) 97,56 %
20.08.2017 13:24 19,1 C 22,8 C 63 % 1021,0 hPa 0,0 l/m 13,3 km/h (3 Bft) SW 230 0 min 0,000 mm 1,2 UV-I 180 W/m 11,9 C 16,6 C 25,7 km/h (4 Bft) 98,00 %
20.08.2017 13:26 18,9 C 22,8 C 65 % 1021,1 hPa 0,0 l/m 16,5 km/h (3 Bft) W-SW 244 0 min 0,000 mm 1,0 UV-I 157 W/m 12,2 C 15,5 C 24,1 km/h (4 Bft) 98,11 %
20.08.2017 13:28 18,7 C 22,8 C 66 % 1021,1 hPa 0,0 l/m 15,0 km/h (3 Bft) SW 227 0 min 0,000 mm 1,0 UV-I 153 W/m 12,2 C 15,7 C 24,1 km/h (4 Bft) 94,74 %
20.08.2017 13:30 18,5 C 22,8 C 66 % 1021,1 hPa 0,0 l/m 13,6 km/h (3 Bft) W-SW 252 0 min 0,000 mm 0,8 UV-I 132 W/m 12,0 C 15,8 C 19,3 km/h (3 Bft) 96,23 %
20.08.2017 13:32 18,3 C 22,8 C 65 % 1021,1 hPa 0,0 l/m 12,4 km/h (3 Bft) W-SW 248 0 min 0,000 mm 0,6 UV-I 102 W/m 11,6 C 15,9 C 17,7 km/h (3 Bft) 97,56 %
20.08.2017 13:34 18,2 C 22,2 C 67 % 1021,2 hPa 0,0 l/m 10,5 km/h (2 Bft) W-SW 242 0 min 0,000 mm 0,5 UV-I 84 W/m 12,0 C 16,5 C 17,7 km/h (3 Bft) 94,00 %
20.08.2017 13:36 18,1 C 22,8 C 67 % 1021,2 hPa 0,0 l/m 13,7 km/h (3 Bft) W-SW 258 0 min 0,000 mm 0,0 UV-I 70 W/m 11,9 C 15,3 C 20,9 km/h (4 Bft) 95,45 %
20.08.2017 13:38 17,9 C 22,2 C 70 % 1021,3 hPa 0,0 l/m 14,9 km/h (3 Bft) W 272 0 min 0,000 mm 0,0 UV-I 63 W/m 12,3 C 14,7 C 24,1 km/h (4 Bft) 100,00 %
20.08.2017 13:40 17,6 C 22,2 C 72 % 1021,3 hPa 0,2 l/m 18,6 km/h (3 Bft) W-SW 255 0 min 0,000 mm 0,2 UV-I 70 W/m 12,5 C 13,4 C 30,6 km/h (5 Bft) 97,73 %
20.08.2017 13:42 17,2 C 22,2 C 75 % 1021,3 hPa 0,0 l/m 12,5 km/h (3 Bft) W-SW 238 0 min 0,000 mm 0,5 UV-I 80 W/m 12,7 C 14,6 C 22,5 km/h (4 Bft) 100,00 %
20.08.2017 13:44 16,8 C 22,2 C 78 % 1021,4 hPa 0,0 l/m 14,9 km/h (3 Bft) W-SW 247 0 min 0,000 mm 0,6 UV-I 87 W/m 12,9 C 13,4 C 24,1 km/h (4 Bft) 100,00 %
20.08.2017 13:46 16,3 C 22,2 C 79 % 1021,4 hPa 0,0 l/m 14,7 km/h (3 Bft) W-SW 244 0 min 0,000 mm 0,7 UV-I 96 W/m 12,6 C 12,9 C 24,1 km/h (4 Bft) 98,04 %
20.08.2017 13:48 15,9 C 22,2 C 80 % 1021,5 hPa 0,2 l/m 14,8 km/h (3 Bft) W-SW 248 0 min 0,000 mm 0,8 UV-I 107 W/m 12,5 C 12,3 C 22,5 km/h (4 Bft) 100,00 %
20.08.2017 13:50 15,7 C 22,2 C 81 % 1021,6 hPa 0,0 l/m 15,7 km/h (3 Bft) W-SW 252 0 min 0,000 mm 0,8 UV-I 117 W/m 12,4 C 11,8 C 22,5 km/h (4 Bft) 100,00 %
20.08.2017 13:52 15,5 C 22,2 C 83 % 1021,7 hPa 0,0 l/m 12,3 km/h (3 Bft) W-SW 237 0 min 0,000 mm 0,9 UV-I 124 W/m 12,6 C 12,7 C 20,9 km/h (4 Bft) 100,00 %
20.08.2017 13:54 15,3 C 22,2 C 82 % 1021,7 hPa 0,0 l/m 13,5 km/h (3 Bft) SW 224 0 min 0,000 mm 0,9 UV-I 128 W/m 12,2 C 12,1 C 22,5 km/h (4 Bft) 100,00 %
20.08.2017 13:56 15,1 C 22,2 C 82 % 1021,7 hPa 0,0 l/m 11,9 km/h (2 Bft) W-SW 254 0 min 0,000 mm 0,9 UV-I 130 W/m 12,0 C 12,4 C 19,3 km/h (3 Bft) 98,11 %
20.08.2017 13:58 15,0 C 22,2 C 83 % 1021,7 hPa 0,0 l/m 11,2 km/h (2 Bft) W-SW 251 0 min 0,000 mm 0,9 UV-I 132 W/m 12,1 C 12,6 C 20,9 km/h (4 Bft) 93,62 %
20.08.2017 14:00 14,8 C 22,2 C 82 % 1021,6 hPa 0,0 l/m 10,6 km/h (2 Bft) W-SW 250 0 min 0,000 mm 0,9 UV-I 134 W/m 11,8 C 12,6 C 20,9 km/h (4 Bft) 100,00 %
20.08.2017 14:03 14,7 C 22,2 C 82 % 1021,6 hPa 0,0 l/m 10,3 km/h (2 Bft) W-SW 253 0 min 0,229 mm 0,9 UV-I 143 W/m 11,7 C 12,6 C 20,9 km/h (4 Bft) 100,00 %
20.08.2017 14:04 14,7 C 22,2 C 81 % 1021,6 hPa 0,0 l/m 15,8 km/h (3 Bft) W-SW 240 0 min 0,000 mm 1,0 UV-I 149 W/m 11,5 C 10,6 C 20,9 km/h (4 Bft) 98,27 %
20.08.2017 14:06 14,6 C 22,2 C 81 % 1021,6 hPa 0,0 l/m 13,1 km/h (3 Bft) SW 225 0 min 0,000 mm 1,0 UV-I 150 W/m 11,4 C 11,4 C 19,3 km/h (3 Bft) 100,00 %
20.08.2017 14:08 14,6 C 22,2 C 81 % 1021,5 hPa 0,0 l/m 12,8 km/h (3 Bft) SW 223 0 min 0,000 mm 1,0 UV-I 153 W/m 11,4 C 11,5 C 20,9 km/h (4 Bft) 97,56 %
20.08.2017 14:10 14,6 C 22,2 C 81 % 1021,5 hPa 0,2 l/m 13,6 km/h (3 Bft) W-SW 238 0 min 0,000 mm 1,0 UV-I 157 W/m 11,4 C 11,2 C 19,3 km/h (3 Bft) 98,00 %
20.08.2017 14:12 14,6 C 22,2 C 81 % 1021,4 hPa 0,0 l/m 12,2 km/h (2 Bft) S-SW 197 0 min 0,000 mm 1,1 UV-I 171 W/m 11,4 C 11,7 C 17,7 km/h (3 Bft) 100,00 %
20.08.2017 14:14 14,6 C 22,2 C 81 % 1021,4 hPa 0,0 l/m 12,4 km/h (3 Bft) SW 221 0 min 0,000 mm 1,2 UV-I 198 W/m 11,4 C 11,7 C 17,7 km/h (3 Bft) 100,00 %
20.08.2017 14:16 14,7 C 22,2 C 82 % 1021,5 hPa 0,0 l/m 13,3 km/h (3 Bft) SW 221 0 min 0,000 mm 1,5 UV-I 236 W/m 11,7 C 11,4 C 20,9 km/h (4 Bft) 100,00 %
20.08.2017 14:18 14,8 C 22,2 C 82 % 1021,5 hPa 0,0 l/m 13,4 km/h (3 Bft) SW 231 0 min 0,000 mm 1,7 UV-I 258 W/m 11,8 C 11,5 C 19,3 km/h (3 Bft) 100,00 %
20.08.2017 14:20 14,9 C 22,2 C 81 % 1021,5 hPa 0,0 l/m 9,0 km/h (2 Bft) S-SW 200 0 min 0,000 mm 1,9 UV-I 269 W/m 11,7 C 13,5 C 14,5 km/h (3 Bft) 100,00 %
20.08.2017 14:22 14,9 C 22,2 C 82 % 1021,5 hPa 0,0 l/m 8,9 km/h (2 Bft) S-SW 192 0 min 0,000 mm 1,9 UV-I 274 W/m 11,9 C 13,5 C 12,9 km/h (3 Bft) 100,00 %
20.08.2017 14:24 15,1 C 22,2 C 81 % 1021,4 hPa 0,0 l/m 9,9 km/h (2 Bft) S-SW 203 0 min 0,000 mm 2,0 UV-I 287 W/m 11,9 C 13,3 C 16,1 km/h (3 Bft) 98,11 %
20.08.2017 14:26 15,1 C 22,2 C 80 % 1021,4 hPa 0,0 l/m 7,9 km/h (2 Bft) S-SW 206 0 min 0,000 mm 2,1 UV-I 305 W/m 11,7 C 14,3 C 12,9 km/h (3 Bft) 100,00 %
20.08.2017 14:28 15,2 C 22,2 C 81 % 1021,4 hPa 0,0 l/m 7,0 km/h (2 Bft) S-SW 209 0 min 0,000 mm 2,2 UV-I 336 W/m 12,0 C 14,9 C 11,3 km/h (2 Bft) 98,00 %
20.08.2017 14:30 15,4 C 22,2 C 81 % 1021,4 hPa 0,0 l/m 5,8 km/h (2 Bft) SW 229 2 min 0,000 mm 2,4 UV-I 424 W/m 12,2 C 15,4 C 11,3 km/h (2 Bft) 100,00 %
20.08.2017 14:32 15,6 C 22,2 C 80 % 1021,4 hPa 0,0 l/m 8,0 km/h (2 Bft) S-SW 205 2 min 0,000 mm 3,0 UV-I 511 W/m 12,2 C 14,7 C 11,3 km/h (2 Bft) 100,00 %
20.08.2017 14:34 15,8 C 22,2 C 79 % 1021,4 hPa 0,0 l/m 6,5 km/h (2 Bft) S-SW 213 2 min 0,000 mm 2,6 UV-I 458 W/m 12,2 C 15,8 C 9,7 km/h (2 Bft) 98,11 %
20.08.2017 14:36 16,1 C 22,2 C 78 % 1021,4 hPa 0,0 l/m 8,3 km/h (2 Bft) S-SW 196 0 min 0,000 mm 2,5 UV-I 399 W/m 12,3 C 15,1 C 11,3 km/h (2 Bft) 100,00 %
20.08.2017 14:38 16,3 C 22,2 C 77 % 1021,5 hPa 0,0 l/m 7,9 km/h (2 Bft) W-SW 241 0 min 0,000 mm 2,3 UV-I 373 W/m 12,3 C 15,5 C 12,9 km/h (3 Bft) 98,11 %
20.08.2017 14:40 16,3 C 22,2 C 77 % 1021,5 hPa 0,0 l/m 8,3 km/h (2 Bft) S-SW 202 0 min 0,000 mm 2,2 UV-I 354 W/m 12,3 C 15,3 C 12,9 km/h (3 Bft) 97,56 %
20.08.2017 14:42 16,4 C 22,2 C 75 % 1021,5 hPa 0,0 l/m 7,8 km/h (2 Bft) SW 217 0 min 0,000 mm 2,1 UV-I 332 W/m 12,0 C 15,7 C 11,3 km/h (2 Bft) 98,00 %
20.08.2017 14:44 16,4 C 22,2 C 78 % 1021,5 hPa 0,0 l/m 9,1 km/h (2 Bft) S-SW 202 0 min 0,000 mm 2,0 UV-I 310 W/m 12,6 C 15,1 C 12,9 km/h (3 Bft) 96,00 %
20.08.2017 14:46 16,5 C 22,2 C 76 % 1021,5 hPa 0,0 l/m 9,3 km/h (2 Bft) S-SW 204 0 min 0,000 mm 1,9 UV-I 318 W/m 12,3 C 15,1 C 17,7 km/h (3 Bft) 97,37 %
20.08.2017 14:48 16,6 C 22,2 C 75 % 1021,4 hPa 0,0 l/m 9,6 km/h (2 Bft) SW 233 0 min 0,000 mm 2,1 UV-I 372 W/m 12,1 C 15,1 C 17,7 km/h (3 Bft) 96,23 %
20.08.2017 14:50 16,7 C 22,2 C 74 % 1021,4 hPa 0,0 l/m 10,0 km/h (2 Bft) S 190 0 min 0,000 mm 2,1 UV-I 376 W/m 12,0 C 15,0 C 16,1 km/h (3 Bft) 100,00 %
20.08.2017 14:53 16,8 C 22,2 C 73 % 1021,4 hPa 0,0 l/m 10,4 km/h (2 Bft) W-SW 237 0 min 0,000 mm 2,2 UV-I 390 W/m 11,9 C 14,9 C 16,1 km/h (3 Bft) 97,40 %
20.08.2017 14:54 16,8 C 22,2 C 73 % 1021,4 hPa 0,0 l/m 7,4 km/h (2 Bft) SW 223 0 min 0,000 mm 2,2 UV-I 379 W/m 11,9 C 16,3 C 9,7 km/h (2 Bft) 93,33 %
20.08.2017 14:56 16,8 C 22,2 C 74 % 1021,4 hPa 0,0 l/m 8,4 km/h (2 Bft) S 178 0 min 0,000 mm 2,2 UV-I 368 W/m 12,1 C 15,8 C 12,9 km/h (3 Bft) 97,37 %
20.08.2017 14:58 16,8 C 22,2 C 74 % 1021,3 hPa 0,0 l/m 11,6 km/h (2 Bft) W-SW 251 0 min 0,000 mm 2,1 UV-I 346 W/m 12,1 C 14,5 C 16,1 km/h (3 Bft) 98,21 %
20.08.2017 15:00 16,8 C 22,2 C 74 % 1021,3 hPa 0,0 l/m 9,8 km/h (2 Bft) S-SW 209 0 min 0,178 mm 2,0 UV-I 330 W/m 12,1 C 15,2 C 14,5 km/h (3 Bft) 96,36 %
20.08.2017 15:02 16,9 C 22,8 C 75 % 1021,4 hPa 0,0 l/m 7,7 km/h (2 Bft) W-SW 237 0 min 0,000 mm 2,0 UV-I 330 W/m 12,4 C 16,2 C 11,3 km/h (2 Bft) 95,24 %
20.08.2017 15:04 16,9 C 22,2 C 74 % 1021,3 hPa 0,0 l/m 9,7 km/h (2 Bft) S 190 0 min 0,000 mm 1,9 UV-I 322 W/m 12,2 C 15,3 C 14,5 km/h (3 Bft) 94,34 %
20.08.2017 15:06 17,0 C 22,2 C 74 % 1021,3 hPa 0,0 l/m 9,0 km/h (2 Bft) SW 223 0 min 0,000 mm 1,8 UV-I 315 W/m 12,3 C 15,7 C 12,9 km/h (3 Bft) 95,12 %
20.08.2017 15:08 17,0 C 22,2 C 74 % 1021,3 hPa 0,0 l/m 9,5 km/h (2 Bft) SW 215 0 min 0,000 mm 1,7 UV-I 302 W/m 12,3 C 15,5 C 12,9 km/h (3 Bft) 95,12 %
20.08.2017 15:10 17,0 C 22,2 C 74 % 1021,3 hPa 0,0 l/m 8,3 km/h (2 Bft) S-SW 200 0 min 0,000 mm 1,6 UV-I 283 W/m 12,3 C 16,1 C 12,9 km/h (3 Bft) 96,23 %
20.08.2017 15:12 17,1 C 22,2 C 76 % 1021,3 hPa 0,0 l/m 9,1 km/h (2 Bft) SW 219 0 min 0,000 mm 1,5 UV-I 271 W/m 12,8 C 15,8 C 16,1 km/h (3 Bft) 94,34 %
20.08.2017 15:14 17,1 C 22,2 C 74 % 1021,3 hPa 0,0 l/m 8,9 km/h (2 Bft) S-SW 202 0 min 0,000 mm 1,5 UV-I 284 W/m 12,4 C 15,9 C 12,9 km/h (3 Bft) 95,12 %
20.08.2017 15:16 17,1 C 22,2 C 75 % 1021,3 hPa 0,0 l/m 7,0 km/h (2 Bft) SW 221 0 min 0,000 mm 1,6 UV-I 302 W/m 12,6 C 16,8 C 11,3 km/h (2 Bft) 94,34 %
20.08.2017 15:18 17,1 C 22,2 C 75 % 1021,3 hPa 0,0 l/m 5,6 km/h (1 Bft) SW 215 0 min 0,000 mm 1,7 UV-I 315 W/m 12,6 C 17,1 C 8,0 km/h (2 Bft) 90,24 %
20.08.2017 15:20 17,1 C 22,2 C 75 % 1021,3 hPa 0,0 l/m 9,0 km/h (2 Bft) SW 227 0 min 0,000 mm 1,8 UV-I 329 W/m 12,6 C 15,9 C 11,3 km/h (2 Bft) 96,23 %
20.08.2017 15:23 17,2 C 22,2 C 76 % 1021,3 hPa 0,0 l/m 6,8 km/h (2 Bft) SW 222 0 min 0,000 mm 2,1 UV-I 352 W/m 12,9 C 17,0 C 11,3 km/h (2 Bft) 95,38 %
20.08.2017 15:24 17,3 C 22,2 C 75 % 1021,3 hPa 0,0 l/m 5,0 km/h (1 Bft) SW 220 1 min 0,000 mm 2,9 UV-I 849 W/m 12,8 C 17,3 C 6,4 km/h (2 Bft) 91,30 %
20.08.2017 15:26 17,8 C 22,8 C 77 % 1021,3 hPa 0,0 l/m 6,5 km/h (2 Bft) W-SW 248 2 min 0,000 mm 3,1 UV-I 842 W/m 13,7 C 17,8 C 11,3 km/h (2 Bft) 96,23 %
20.08.2017 15:28 18,2 C 22,8 C 74 % 1021,3 hPa 0,0 l/m 7,2 km/h (2 Bft) S-SW 194 2 min 0,000 mm 3,1 UV-I 810 W/m 13,5 C 17,8 C 12,9 km/h (3 Bft) 95,74 %
20.08.2017 15:30 18,3 C 22,8 C 74 % 1021,3 hPa 0,0 l/m 8,8 km/h (2 Bft) S-SW 202 2 min 0,000 mm 3,1 UV-I 777 W/m 13,6 C 17,2 C 11,3 km/h (2 Bft) 94,74 %
20.08.2017 15:32 18,4 C 22,8 C 73 % 1021,3 hPa 0,0 l/m 5,2 km/h (1 Bft) W-SW 244 2 min 0,000 mm 3,0 UV-I 728 W/m 13,5 C 18,4 C 11,3 km/h (2 Bft) 94,34 %
20.08.2017 15:34 18,7 C 22,8 C 74 % 1021,2 hPa 0,0 l/m 8,6 km/h (2 Bft) SW 235 2 min 0,000 mm 2,9 UV-I 688 W/m 14,0 C 17,7 C 14,5 km/h (3 Bft) 97,56 %
20.08.2017 15:36 18,8 C 22,8 C 73 % 1021,2 hPa 0,0 l/m 8,4 km/h (2 Bft) SW 226 2 min 0,000 mm 2,8 UV-I 673 W/m 13,9 C 17,9 C 14,5 km/h (3 Bft) 96,00 %
20.08.2017 15:38 19,1 C 22,8 C 73 % 1021,2 hPa 0,0 l/m 7,2 km/h (2 Bft) S 190 2 min 0,000 mm 2,7 UV-I 649 W/m 14,1 C 18,7 C 14,5 km/h (3 Bft) 96,00 %
20.08.2017 15:40 19,2 C 22,8 C 71 % 1021,2 hPa 0,0 l/m 10,3 km/h (2 Bft) SW 224 2 min 0,000 mm 2,7 UV-I 648 W/m 13,8 C 17,7 C 17,7 km/h (3 Bft) 97,87 %
20.08.2017 15:42 19,2 C 22,8 C 71 % 1021,2 hPa 0,0 l/m 11,4 km/h (2 Bft) S-SW 197 2 min 0,000 mm 2,7 UV-I 654 W/m 13,8 C 17,3 C 17,7 km/h (3 Bft) 91,67 %
20.08.2017 15:44 19,2 C 22,8 C 72 % 1021,2 hPa 0,0 l/m 11,6 km/h (2 Bft) S-SW 194 2 min 0,000 mm 2,2 UV-I 654 W/m 14,0 C 17,2 C 24,1 km/h (4 Bft) 98,00 %
20.08.2017 15:46 19,1 C 22,8 C 68 % 1021,2 hPa 0,0 l/m 15,4 km/h (3 Bft) W 265 2 min 0,000 mm 2,2 UV-I 654 W/m 13,1 C 16,1 C 24,1 km/h (4 Bft) 96,23 %
20.08.2017 15:48 19,0 C 22,8 C 69 % 1021,2 hPa 0,0 l/m 12,8 km/h (3 Bft) SW 236 2 min 0,000 mm 2,2 UV-I 365 W/m 13,2 C 16,6 C 17,7 km/h (3 Bft) 97,56 %
20.08.2017 15:50 19,0 C 22,8 C 69 % 1021,2 hPa 0,0 l/m 12,4 km/h (3 Bft) S-SW 213 2 min 0,000 mm 2,3 UV-I 553 W/m 13,2 C 16,8 C 19,3 km/h (3 Bft) 98,21 %
20.08.2017 15:52 19,2 C 22,8 C 70 % 1021,2 hPa 0,0 l/m 9,2 km/h (2 Bft) SW 234 2 min 0,000 mm 2,5 UV-I 666 W/m 13,6 C 18,0 C 19,3 km/h (3 Bft) 100,00 %
20.08.2017 15:54 19,2 C 22,8 C 69 % 1021,1 hPa 0,0 l/m 11,2 km/h (2 Bft) W 280 2 min 0,000 mm 1,9 UV-I 431 W/m 13,4 C 17,4 C 16,1 km/h (3 Bft) 98,11 %
20.08.2017 15:56 19,2 C 22,8 C 72 % 1021,2 hPa 0,0 l/m 9,3 km/h (2 Bft) SW 220 0 min 0,000 mm 1,6 UV-I 257 W/m 14,0 C 18,0 C 14,5 km/h (3 Bft) 97,67 %
20.08.2017 15:58 19,0 C 22,8 C 71 % 1021,1 hPa 0,0 l/m 7,2 km/h (2 Bft) SW 226 0 min 0,000 mm 1,5 UV-I 228 W/m 13,6 C 18,6 C 14,5 km/h (3 Bft) 100,00 %
20.08.2017 16:00 18,8 C 22,8 C 73 % 1021,2 hPa 0,0 l/m 6,8 km/h (2 Bft) SW 225 0 min 0,304 mm 1,4 UV-I 213 W/m 13,9 C 18,6 C 12,9 km/h (3 Bft) 100,00 %
20.08.2017 16:02 18,6 C 22,8 C 75 % 1021,2 hPa 0,0 l/m 6,8 km/h (2 Bft) SW 234 0 min 0,000 mm 1,4 UV-I 215 W/m 14,1 C 18,4 C 11,3 km/h (2 Bft) 100,00 %
20.08.2017 16:04 18,6 C 22,8 C 76 % 1021,2 hPa 0,0 l/m 7,4 km/h (2 Bft) S-SW 208 0 min 0,000 mm 1,4 UV-I 219 W/m 14,3 C 18,1 C 12,9 km/h (3 Bft) 98,21 %
20.08.2017 16:06 18,4 C 22,8 C 75 % 1021,2 hPa 0,0 l/m 7,3 km/h (2 Bft) W-SW 237 0 min 0,000 mm 1,3 UV-I 215 W/m 13,9 C 18,0 C 11,3 km/h (2 Bft) 100,00 %
20.08.2017 16:08 18,4 C 22,8 C 75 % 1021,2 hPa 0,0 l/m 9,7 km/h (2 Bft) W-SW 237 0 min 0,000 mm 1,3 UV-I 216 W/m 13,9 C 17,0 C 16,1 km/h (3 Bft) 100,00 %
20.08.2017 16:10 18,3 C 22,8 C 76 % 1021,2 hPa 0,0 l/m 9,2 km/h (2 Bft) S-SW 204 0 min 0,000 mm 1,3 UV-I 227 W/m 14,0 C 17,1 C 16,1 km/h (3 Bft) 100,00 %
20.08.2017 16:12 18,3 C 22,8 C 76 % 1021,2 hPa 0,0 l/m 9,3 km/h (2 Bft) S-SW 205 0 min 0,000 mm 1,4 UV-I 233 W/m 14,0 C 17,0 C 16,1 km/h (3 Bft) 100,00 %
20.08.2017 16:14 18,2 C 22,8 C 75 % 1021,2 hPa 0,0 l/m 11,7 km/h (2 Bft) S-SW 208 0 min 0,000 mm 1,4 UV-I 231 W/m 13,7 C 16,1 C 16,1 km/h (3 Bft) 100,00 %
20.08.2017 16:16 18,2 C 22,8 C 76 % 1021,2 hPa 0,0 l/m 8,7 km/h (2 Bft) S-SW 205 0 min 0,000 mm 1,4 UV-I 220 W/m 13,9 C 17,2 C 14,5 km/h (3 Bft) 100,00 %
20.08.2017 16:18 18,2 C 22,8 C 74 % 1021,2 hPa 0,0 l/m 7,6 km/h (2 Bft) SW 224 2 min 0,000 mm 1,8 UV-I 426 W/m 13,5 C 17,6 C 16,1 km/h (3 Bft) 100,00 %
20.08.2017 16:20 18,4 C 22,8 C 74 % 1021,2 hPa 0,0 l/m 7,7 km/h (2 Bft) SW 223 2 min 0,000 mm 1,8 UV-I 637 W/m 13,7 C 17,8 C 12,9 km/h (3 Bft) 97,62 %
20.08.2017 16:22 18,6 C 22,8 C 74 % 1021,2 hPa 0,0 l/m 10,5 km/h (2 Bft) W-SW 238 2 min 0,000 mm 1,6 UV-I 495 W/m 13,9 C 16,9 C 14,5 km/h (3 Bft) 100,00 %
20.08.2017 16:24 18,6 C 22,8 C 73 % 1021,2 hPa 0,0 l/m 10,4 km/h (2 Bft) S-SW 202 0 min 0,000 mm 1,4 UV-I 230 W/m 13,7 C 17,0 C 14,5 km/h (3 Bft) 100,00 %
20.08.2017 16:26 18,5 C 22,8 C 73 % 1021,2 hPa 0,0 l/m 8,9 km/h (2 Bft) S-SW 213 0 min 0,000 mm 1,4 UV-I 225 W/m 13,6 C 17,4 C 14,5 km/h (3 Bft) 100,00 %
20.08.2017 16:28 18,4 C 22,8 C 74 % 1021,2 hPa 0,0 l/m 8,2 km/h (2 Bft) S-SW 213 0 min 0,000 mm 1,4 UV-I 257 W/m 13,7 C 17,6 C 14,5 km/h (3 Bft) 97,73 %
20.08.2017 16:30 18,4 C 22,8 C 74 % 1021,2 hPa 0,0 l/m 8,5 km/h (2 Bft) W-SW 238 0 min 0,000 mm 1,4 UV-I 226 W/m 13,7 C 17,5 C 14,5 km/h (3 Bft) 100,00 %
20.08.2017 16:32 18,4 C 22,8 C 73 % 1021,1 hPa 0,0 l/m 8,6 km/h (2 Bft) SW 228 0 min 0,000 mm 1,5 UV-I 271 W/m 13,5 C 17,4 C 12,9 km/h (3 Bft) 100,00 %
20.08.2017 16:34 18,6 C 22,8 C 72 % 1021,1 hPa 0,0 l/m 8,3 km/h (2 Bft) W-SW 240 2 min 0,000 mm 1,9 UV-I 432 W/m 13,4 C 17,8 C 11,3 km/h (2 Bft) 100,00 %
20.08.2017 16:36 18,8 C 22,8 C 75 % 1021,1 hPa 0,0 l/m 6,1 km/h (2 Bft) W-SW 248 2 min 0,000 mm 1,9 UV-I 562 W/m 14,3 C 18,8 C 12,9 km/h (3 Bft) 100,00 %
20.08.2017 16:38 19,2 C 22,8 C 71 % 1021,1 hPa 0,0 l/m 13,6 km/h (3 Bft) S-SW 203 2 min 0,000 mm 1,9 UV-I 545 W/m 13,8 C 16,6 C 19,3 km/h (3 Bft) 100,00 %
20.08.2017 16:40 19,3 C 22,8 C 70 % 1021,1 hPa 0,0 l/m 10,4 km/h (2 Bft) S-SW 205 2 min 0,000 mm 1,9 UV-I 533 W/m 13,7 C 17,7 C 16,1 km/h (3 Bft) 100,00 %
20.08.2017 16:42 19,3 C 22,8 C 70 % 1021,0 hPa 0,0 l/m 12,7 km/h (3 Bft) SW 221 2 min 0,000 mm 1,8 UV-I 526 W/m 13,7 C 17,0 C 17,7 km/h (3 Bft) 100,00 %
20.08.2017 16:44 19,4 C 22,8 C 66 % 1021,1 hPa 0,0 l/m 9,3 km/h (2 Bft) W-SW 254 2 min 0,000 mm 1,8 UV-I 524 W/m 12,9 C 18,2 C 14,5 km/h (3 Bft) 100,00 %
20.08.2017 16:46 19,5 C 22,8 C 68 % 1021,1 hPa 0,0 l/m 10,3 km/h (2 Bft) NW 306 2 min 0,000 mm 1,8 UV-I 515 W/m 13,4 C 18,0 C 14,5 km/h (3 Bft) 100,00 %
20.08.2017 16:48 19,7 C 22,8 C 68 % 1021,0 hPa 0,0 l/m 13,2 km/h (3 Bft) W-SW 240 2 min 0,000 mm 1,7 UV-I 511 W/m 13,6 C 17,3 C 19,3 km/h (3 Bft) 97,56 %
20.08.2017 16:50 19,7 C 22,8 C 62 % 1021,0 hPa 0,0 l/m 10,8 km/h (2 Bft) W 278 2 min 0,000 mm 1,7 UV-I 505 W/m 12,2 C 18,0 C 19,3 km/h (3 Bft) 98,11 %
20.08.2017 16:52 19,7 C 22,8 C 62 % 1021,0 hPa 0,0 l/m 8,2 km/h (2 Bft) W 273 2 min 0,000 mm 1,6 UV-I 500 W/m 12,2 C 19,0 C 16,1 km/h (3 Bft) 97,87 %
20.08.2017 16:54 19,7 C 22,8 C 63 % 1021,1 hPa 0,0 l/m 12,3 km/h (3 Bft) SW 229 2 min 0,000 mm 1,6 UV-I 494 W/m 12,5 C 17,6 C 20,9 km/h (4 Bft) 100,00 %
20.08.2017 16:56 19,7 C 22,8 C 67 % 1021,1 hPa 0,0 l/m 11,8 km/h (2 Bft) SW 236 2 min 0,000 mm 1,6 UV-I 487 W/m 13,4 C 17,7 C 19,3 km/h (3 Bft) 100,00 %
20.08.2017 16:58 19,5 C 22,8 C 68 % 1021,0 hPa 0,0 l/m 12,2 km/h (2 Bft) SW 234 2 min 0,000 mm 1,5 UV-I 472 W/m 13,4 C 17,4 C 17,7 km/h (3 Bft) 97,44 %
20.08.2017 17:00 19,5 C 22,8 C 70 % 1021,0 hPa 0,0 l/m 8,5 km/h (2 Bft) SW 221 2 min 0,000 mm 1,5 UV-I 465 W/m 13,9 C 18,6 C 12,9 km/h (3 Bft) 98,00 %
20.08.2017 17:02 19,6 C 22,8 C 70 % 1021,1 hPa 0,0 l/m 9,0 km/h (2 Bft) SW 223 2 min 0,254 mm 1,4 UV-I 457 W/m 14,0 C 18,6 C 12,9 km/h (3 Bft) 95,12 %
20.08.2017 17:04 19,7 C 22,8 C 69 % 1021,1 hPa 0,0 l/m 9,3 km/h (2 Bft) SW 233 2 min 0,000 mm 1,4 UV-I 448 W/m 13,8 C 18,6 C 14,5 km/h (3 Bft) 96,23 %
20.08.2017 17:06 19,7 C 22,8 C 69 % 1021,1 hPa 0,0 l/m 8,9 km/h (2 Bft) W-SW 252 2 min 0,000 mm 1,4 UV-I 439 W/m 13,8 C 18,7 C 14,5 km/h (3 Bft) 97,87 %
20.08.2017 17:08 19,6 C 22,8 C 68 % 1021,2 hPa 0,0 l/m 7,7 km/h (2 Bft) S-SW 192 2 min 0,000 mm 1,3 UV-I 438 W/m 13,5 C 19,1 C 12,9 km/h (3 Bft) 98,00 %
20.08.2017 17:10 19,6 C 22,8 C 67 % 1021,2 hPa 0,0 l/m 9,7 km/h (2 Bft) SW 216 2 min 0,000 mm 1,2 UV-I 365 W/m 13,3 C 18,3 C 16,1 km/h (3 Bft) 97,37 %
20.08.2017 17:12 19,5 C 22,8 C 68 % 1021,1 hPa 0,0 l/m 7,5 km/h (2 Bft) W 267 2 min 0,000 mm 1,2 UV-I 376 W/m 13,4 C 19,0 C 14,5 km/h (3 Bft) 98,00 %
20.08.2017 17:14 19,6 C 22,8 C 66 % 1021,1 hPa 0,0 l/m 10,3 km/h (2 Bft) W-SW 245 2 min 0,000 mm 1,3 UV-I 435 W/m 13,1 C 18,1 C 16,1 km/h (3 Bft) 98,11 %
20.08.2017 17:16 19,7 C 22,8 C 63 % 1021,1 hPa 0,0 l/m 8,2 km/h (2 Bft) W-SW 245 2 min 0,000 mm 1,2 UV-I 428 W/m 12,5 C 19,0 C 14,5 km/h (3 Bft) 96,00 %
20.08.2017 17:18 19,8 C 22,8 C 64 % 1021,1 hPa 0,0 l/m 7,5 km/h (2 Bft) S-SW 211 2 min 0,000 mm 1,2 UV-I 423 W/m 12,8 C 19,3 C 11,3 km/h (2 Bft) 95,12 %
20.08.2017 17:20 19,8 C 22,8 C 67 % 1021,1 hPa 0,0 l/m 9,5 km/h (2 Bft) SW 232 2 min 0,000 mm 1,2 UV-I 409 W/m 13,5 C 18,6 C 14,5 km/h (3 Bft) 98,00 %
20.08.2017 17:22 19,8 C 22,8 C 66 % 1021,1 hPa 0,0 l/m 11,7 km/h (2 Bft) W-SW 254 2 min 0,000 mm 1,2 UV-I 396 W/m 13,3 C 17,9 C 19,3 km/h (3 Bft) 98,00 %
20.08.2017 17:24 19,8 C 22,8 C 65 % 1021,1 hPa 0,0 l/m 9,0 km/h (2 Bft) S-SW 205 2 min 0,000 mm 1,1 UV-I 387 W/m 13,0 C 18,8 C 16,1 km/h (3 Bft) 97,56 %
20.08.2017 17:26 19,9 C 22,8 C 65 % 1021,1 hPa 0,0 l/m 6,4 km/h (2 Bft) W 267 2 min 0,000 mm 1,1 UV-I 382 W/m 13,1 C 19,9 C 9,7 km/h (2 Bft) 97,56 %
20.08.2017 17:28 19,9 C 22,8 C 62 % 1021,1 hPa 0,0 l/m 6,7 km/h (2 Bft) SW 227 2 min 0,000 mm 1,1 UV-I 376 W/m 12,4 C 19,8 C 14,5 km/h (3 Bft) 98,11 %
20.08.2017 17:30 19,9 C 22,8 C 59 % 1021,1 hPa 0,0 l/m 8,6 km/h (2 Bft) W-SW 238 2 min 0,000 mm 1,1 UV-I 370 W/m 11,6 C 19,0 C 11,3 km/h (2 Bft) 100,00 %
20.08.2017 17:32 19,9 C 22,8 C 60 % 1021,1 hPa 0,0 l/m 4,0 km/h (1 Bft) W 276 2 min 0,000 mm 1,0 UV-I 361 W/m 11,9 C 19,9 C 12,9 km/h (3 Bft) 100,00 %
20.08.2017 17:34 19,9 C 22,8 C 59 % 1021,1 hPa 0,0 l/m 9,6 km/h (2 Bft) W 262 2 min 0,000 mm 1,0 UV-I 351 W/m 11,6 C 18,7 C 16,1 km/h (3 Bft) 100,00 %
20.08.2017 17:36 20,0 C 22,8 C 58 % 1021,1 hPa 0,0 l/m 12,5 km/h (3 Bft) W-SW 242 2 min 0,000 mm 0,9 UV-I 347 W/m 11,5 C 17,9 C 17,7 km/h (3 Bft) 100,00 %
20.08.2017 17:38 20,0 C 22,8 C 56 % 1021,1 hPa 0,0 l/m 8,7 km/h (2 Bft) W-SW 254 2 min 0,000 mm 0,9 UV-I 342 W/m 11,0 C 19,1 C 14,5 km/h (3 Bft) 100,00 %
20.08.2017 17:40 20,0 C 22,8 C 57 % 1021,1 hPa 0,0 l/m 7,4 km/h (2 Bft) NW 324 2 min 0,000 mm 0,9 UV-I 340 W/m 11,2 C 19,6 C 14,5 km/h (3 Bft) 100,00 %
20.08.2017 17:42 20,0 C 22,8 C 60 % 1021,1 hPa 0,0 l/m 11,0 km/h (2 Bft) W 260 2 min 0,000 mm 0,9 UV-I 343 W/m 12,0 C 18,3 C 22,5 km/h (4 Bft) 100,00 %
20.08.2017 17:44 19,9 C 22,8 C 56 % 1021,0 hPa 0,0 l/m 12,4 km/h (3 Bft) SW 230 2 min 0,000 mm 0,8 UV-I 343 W/m 10,9 C 17,8 C 17,7 km/h (3 Bft) 100,00 %
20.08.2017 17:46 19,9 C 22,8 C 55 % 1021,0 hPa 0,0 l/m 10,5 km/h (2 Bft) W-SW 240 2 min 0,000 mm 0,8 UV-I 334 W/m 10,6 C 18,4 C 14,5 km/h (3 Bft) 100,00 %
20.08.2017 17:48 19,9 C 22,8 C 56 % 1021,0 hPa 0,0 l/m 7,6 km/h (2 Bft) W 277 2 min 0,000 mm 0,8 UV-I 342 W/m 10,9 C 19,4 C 11,3 km/h (2 Bft) 97,87 %
20.08.2017 17:50 20,0 C 22,8 C 60 % 1021,0 hPa 0,0 l/m 4,3 km/h (1 Bft) W-NW 285 2 min 0,000 mm 0,8 UV-I 336 W/m 12,0 C 20,0 C 8,0 km/h (2 Bft) 100,00 %
20.08.2017 17:52 20,2 C 22,8 C 57 % 1021,0 hPa 0,0 l/m 7,9 km/h (2 Bft) W 264 2 min 0,000 mm 0,7 UV-I 314 W/m 11,4 C 19,6 C 17,7 km/h (3 Bft) 100,00 %
20.08.2017 17:54 20,2 C 22,8 C 56 % 1021,0 hPa 0,0 l/m 12,3 km/h (3 Bft) W-SW 242 2 min 0,000 mm 0,7 UV-I 297 W/m 11,1 C 18,2 C 17,7 km/h (3 Bft) 100,00 %
20.08.2017 17:56 20,1 C 22,8 C 56 % 1021,0 hPa 0,0 l/m 9,0 km/h (2 Bft) W-NW 283 2 min 0,000 mm 0,7 UV-I 282 W/m 11,0 C 19,1 C 14,5 km/h (3 Bft) 100,00 %
20.08.2017 17:58 20,0 C 22,8 C 55 % 1021,0 hPa 0,0 l/m 10,5 km/h (2 Bft) W-NW 287 2 min 0,000 mm 0,7 UV-I 245 W/m 10,7 C 18,5 C 16,1 km/h (3 Bft) 100,00 %
20.08.2017 18:00 19,9 C 22,8 C 55 % 1021,1 hPa 0,0 l/m 9,5 km/h (2 Bft) W 263 2 min 0,000 mm 0,6 UV-I 245 W/m 10,6 C 18,7 C 20,9 km/h (4 Bft) 100,00 %
20.08.2017 18:02 19,7 C 22,8 C 56 % 1021,1 hPa 0,0 l/m 8,0 km/h (2 Bft) W-SW 257 0 min 0,254 mm 0,5 UV-I 180 W/m 10,7 C 19,0 C 14,5 km/h (3 Bft) 100,00 %
20.08.2017 18:04 19,6 C 22,8 C 57 % 1021,1 hPa 0,0 l/m 7,5 km/h (2 Bft) W-NW 296 0 min 0,000 mm 0,5 UV-I 127 W/m 10,8 C 19,1 C 16,1 km/h (3 Bft) 100,00 %
20.08.2017 18:06 19,5 C 22,8 C 57 % 1021,1 hPa 0,0 l/m 6,3 km/h (2 Bft) W-SW 246 2 min 0,000 mm 0,6 UV-I 191 W/m 10,8 C 19,5 C 11,3 km/h (2 Bft) 100,00 %
20.08.2017 18:08 19,4 C 22,8 C 56 % 1021,1 hPa 0,0 l/m 7,5 km/h (2 Bft) W-SW 257 0 min 0,000 mm 0,5 UV-I 124 W/m 10,4 C 18,9 C 12,9 km/h (3 Bft) 100,00 %
20.08.2017 18:10 19,3 C 22,8 C 54 % 1021,1 hPa 0,0 l/m 6,7 km/h (2 Bft) W 259 2 min 0,000 mm 0,5 UV-I 185 W/m 9,8 C 19,2 C 11,3 km/h (2 Bft) 98,04 %
20.08.2017 18:12 19,3 C 22,8 C 57 % 1021,0 hPa 0,0 l/m 6,7 km/h (2 Bft) W-SW 248 0 min 0,000 mm 0,0 UV-I 92 W/m 10,6 C 19,2 C 11,3 km/h (2 Bft) 100,00 %
20.08.2017 18:14 19,1 C 22,8 C 57 % 1021,1 hPa 0,0 l/m 5,6 km/h (1 Bft) W 266 0 min 0,000 mm 0,0 UV-I 95 W/m 10,4 C 19,1 C 11,3 km/h (2 Bft) 100,00 %
20.08.2017 18:16 19,0 C 22,8 C 57 % 1021,1 hPa 0,0 l/m 5,8 km/h (2 Bft) W-SW 250 0 min 0,000 mm 0,0 UV-I 93 W/m 10,3 C 19,0 C 11,3 km/h (2 Bft) 100,00 %
20.08.2017 18:18 18,9 C 22,8 C 58 % 1021,1 hPa 0,0 l/m 6,2 km/h (2 Bft) W-SW 250 0 min 0,000 mm 0,0 UV-I 96 W/m 10,5 C 18,9 C 12,9 km/h (3 Bft) 100,00 %
20.08.2017 18:20 18,8 C 22,8 C 58 % 1021,1 hPa 0,0 l/m 10,3 km/h (2 Bft) W-SW 251 0 min 0,000 mm 0,0 UV-I 98 W/m 10,4 C 17,2 C 16,1 km/h (3 Bft) 100,00 %
20.08.2017 18:22 18,8 C 22,8 C 58 % 1021,1 hPa 0,0 l/m 6,1 km/h (2 Bft) W 265 0 min 0,000 mm 0,0 UV-I 92 W/m 10,4 C 18,8 C 11,3 km/h (2 Bft) 100,00 %
20.08.2017 18:24 18,7 C 22,8 C 57 % 1021,1 hPa 0,0 l/m 8,2 km/h (2 Bft) W 267 0 min 0,000 mm 0,0 UV-I 92 W/m 10,0 C 17,9 C 14,5 km/h (3 Bft) 100,00 %
20.08.2017 18:26 18,7 C 22,8 C 57 % 1021,2 hPa 0,0 l/m 6,4 km/h (2 Bft) W-SW 257 0 min 0,000 mm 0,0 UV-I 101 W/m 10,0 C 18,7 C 11,3 km/h (2 Bft) 100,00 %
20.08.2017 18:28 18,7 C 22,8 C 59 % 1021,1 hPa 0,0 l/m 7,3 km/h (2 Bft) W-SW 255 0 min 0,000 mm 0,0 UV-I 105 W/m 10,5 C 18,3 C 12,9 km/h (3 Bft) 100,00 %
20.08.2017 18:30 18,7 C 22,8 C 60 % 1021,2 hPa 0,0 l/m 5,1 km/h (1 Bft) W-SW 257 2 min 0,000 mm 0,0 UV-I 148 W/m 10,8 C 18,7 C 9,7 km/h (2 Bft) 100,00 %
20.08.2017 18:32 18,7 C 22,8 C 62 % 1021,2 hPa 0,0 l/m 6,0 km/h (2 Bft) W-SW 241 2 min 0,000 mm 0,0 UV-I 209 W/m 11,3 C 18,7 C 9,7 km/h (2 Bft) 100,00 %
20.08.2017 18:34 18,8 C 22,8 C 61 % 1021,2 hPa 0,0 l/m 6,4 km/h (2 Bft) W-SW 248 2 min 0,000 mm 0,0 UV-I 214 W/m 11,1 C 18,8 C 12,9 km/h (3 Bft) 100,00 %
20.08.2017 18:36 19,0 C 22,8 C 60 % 1021,2 hPa 0,0 l/m 5,6 km/h (1 Bft) W 261 2 min 0,000 mm 0,0 UV-I 218 W/m 11,1 C 19,0 C 9,7 km/h (2 Bft) 100,00 %
20.08.2017 18:38 19,2 C 22,8 C 59 % 1021,2 hPa 0,0 l/m 6,6 km/h (2 Bft) W-SW 237 2 min 0,000 mm 0,0 UV-I 222 W/m 11,0 C 19,1 C 11,3 km/h (2 Bft) 97,56 %
20.08.2017 18:40 19,2 C 22,8 C 59 % 1021,2 hPa 0,0 l/m 6,8 km/h (2 Bft) W 267 2 min 0,000 mm 0,0 UV-I 213 W/m 11,0 C 19,0 C 11,3 km/h (2 Bft) 100,00 %
20.08.2017 18:42 19,3 C 22,8 C 57 % 1021,2 hPa 0,0 l/m 6,0 km/h (2 Bft) W-NW 287 2 min 0,000 mm 0,0 UV-I 198 W/m 10,6 C 19,3 C 8,0 km/h (2 Bft) 100,00 %
20.08.2017 18:44 19,4 C 22,8 C 58 % 1021,2 hPa 0,0 l/m 4,9 km/h (1 Bft) SW 234 2 min 0,000 mm 0,0 UV-I 182 W/m 10,9 C 19,4 C 8,0 km/h (2 Bft) 100,00 %
20.08.2017 18:46 19,4 C 22,8 C 56 % 1021,2 hPa 0,0 l/m 7,5 km/h (2 Bft) SW 231 2 min 0,000 mm 0,0 UV-I 164 W/m 10,4 C 18,9 C 11,3 km/h (2 Bft) 100,00 %
20.08.2017 18:48 19,4 C 22,8 C 56 % 1021,2 hPa 0,0 l/m 9,8 km/h (2 Bft) W 261 2 min 0,000 mm 0,0 UV-I 148 W/m 10,4 C 18,0 C 12,9 km/h (3 Bft) 100,00 %
20.08.2017 18:50 19,3 C 22,8 C 56 % 1021,2 hPa 0,0 l/m 6,5 km/h (2 Bft) W-SW 246 2 min 0,000 mm 0,0 UV-I 136 W/m 10,3 C 19,3 C 11,3 km/h (2 Bft) 98,00 %
20.08.2017 18:52 19,3 C 22,8 C 56 % 1021,2 hPa 0,0 l/m 4,6 km/h (1 Bft) W-SW 246 2 min 0,000 mm 0,0 UV-I 124 W/m 10,3 C 19,3 C 8,0 km/h (2 Bft) 97,44 %
20.08.2017 18:54 19,3 C 22,8 C 58 % 1021,2 hPa 0,0 l/m 4,1 km/h (1 Bft) W-SW 246 2 min 0,000 mm 0,0 UV-I 114 W/m 10,8 C 19,3 C 8,0 km/h (2 Bft) 98,00 %
20.08.2017 18:56 19,2 C 22,8 C 58 % 1021,3 hPa 0,0 l/m 4,4 km/h (1 Bft) W-SW 248 2 min 0,000 mm 0,0 UV-I 106 W/m 10,7 C 19,2 C 6,4 km/h (2 Bft) 98,11 %
20.08.2017 18:58 19,2 C 22,8 C 58 % 1021,3 hPa 0,0 l/m 5,9 km/h (2 Bft) W-SW 250 2 min 0,000 mm 0,0 UV-I 100 W/m 10,7 C 19,2 C 8,0 km/h (2 Bft) 95,12 %
20.08.2017 19:00 19,1 C 22,8 C 58 % 1021,3 hPa 0,0 l/m 5,2 km/h (1 Bft) W-SW 258 0 min 0,000 mm 0,0 UV-I 95 W/m 10,6 C 19,1 C 9,7 km/h (2 Bft) 96,23 %
20.08.2017 19:02 19,1 C 22,8 C 59 % 1021,3 hPa 0,0 l/m 5,6 km/h (1 Bft) SW 236 0 min 0,127 mm 0,0 UV-I 90 W/m 10,9 C 19,1 C 11,3 km/h (2 Bft) 100,00 %
20.08.2017 19:04 19,0 C 22,8 C 59 % 1021,3 hPa 0,0 l/m 8,0 km/h (2 Bft) W-SW 248 0 min 0,000 mm 0,0 UV-I 86 W/m 10,8 C 18,3 C 14,5 km/h (3 Bft) 96,43 %
20.08.2017 19:06 18,9 C 22,8 C 57 % 1021,3 hPa 0,0 l/m 8,4 km/h (2 Bft) W-SW 252 0 min 0,000 mm 0,0 UV-I 83 W/m 10,2 C 18,0 C 12,9 km/h (3 Bft) 97,37 %
20.08.2017 19:08 18,8 C 22,8 C 59 % 1021,4 hPa 0,0 l/m 6,8 km/h (2 Bft) SW 227 0 min 0,000 mm 0,0 UV-I 78 W/m 10,6 C 18,6 C 11,3 km/h (2 Bft) 98,21 %
20.08.2017 19:10 18,8 C 22,8 C 60 % 1021,3 hPa 0,0 l/m 5,6 km/h (1 Bft) SW 228 0 min 0,000 mm 0,0 UV-I 75 W/m 10,9 C 18,8 C 8,0 km/h (2 Bft) 97,14 %
20.08.2017 19:12 18,7 C 22,8 C 61 % 1021,3 hPa 0,0 l/m 4,4 km/h (1 Bft) SW 228 0 min 0,000 mm 0,0 UV-I 68 W/m 11,0 C 18,7 C 6,4 km/h (2 Bft) 98,00 %
20.08.2017 19:14 18,6 C 22,8 C 61 % 1021,3 hPa 0,0 l/m 3,3 km/h (1 Bft) SW 228 0 min 0,000 mm 0,0 UV-I 62 W/m 10,9 C 18,6 C 4,8 km/h (1 Bft) 98,11 %
20.08.2017 19:16 18,5 C 22,8 C 64 % 1021,4 hPa 0,0 l/m 4,1 km/h (1 Bft) SW 228 0 min 0,000 mm 0,0 UV-I 61 W/m 11,6 C 18,5 C 6,4 km/h (2 Bft) 97,87 %
20.08.2017 19:18 18,4 C 22,8 C 67 % 1021,3 hPa 0,0 l/m 3,9 km/h (1 Bft) SW 228 0 min 0,000 mm 0,0 UV-I 56 W/m 12,2 C 18,4 C 6,4 km/h (2 Bft) 95,74 %
20.08.2017 19:20 18,3 C 22,8 C 68 % 1021,4 hPa 0,0 l/m 4,4 km/h (1 Bft) SW 228 0 min 0,000 mm 0,0 UV-I 49 W/m 12,3 C 18,3 C 6,4 km/h (2 Bft) 97,87 %
20.08.2017 19:22 18,2 C 22,8 C 70 % 1021,4 hPa 0,0 l/m 4,0 km/h (1 Bft) SW 228 0 min 0,000 mm 0,0 UV-I 46 W/m 12,6 C 18,2 C 6,4 km/h (2 Bft) 97,37 %
20.08.2017 19:24 18,1 C 22,8 C 71 % 1021,3 hPa 0,0 l/m 4,6 km/h (1 Bft) SW 227 0 min 0,000 mm 0,0 UV-I 42 W/m 12,8 C 18,1 C 6,4 km/h (2 Bft) 96,23 %
20.08.2017 19:26 17,9 C 22,8 C 72 % 1021,3 hPa 0,0 l/m 4,3 km/h (1 Bft) SW 221 0 min 0,000 mm 0,0 UV-I 42 W/m 12,8 C 17,9 C 6,4 km/h (2 Bft) 97,92 %
20.08.2017 19:28 17,8 C 22,8 C 73 % 1021,4 hPa 0,0 l/m 3,9 km/h (1 Bft) SW 221 0 min 0,000 mm 0,0 UV-I 35 W/m 12,9 C 17,8 C 6,4 km/h (2 Bft) 97,62 %
20.08.2017 19:30 17,7 C 22,8 C 73 % 1021,4 hPa 0,0 l/m 3,2 km/h (1 Bft) SW 220 0 min 0,000 mm 0,0 UV-I 31 W/m 12,8 C 17,7 C 4,8 km/h (1 Bft) 91,84 %
20.08.2017 19:32 17,5 C 22,8 C 74 % 1021,4 hPa 0,0 l/m 4,0 km/h (1 Bft) SW 220 0 min 0,000 mm 0,0 UV-I 28 W/m 12,8 C 17,5 C 4,8 km/h (1 Bft) 100,00 %
20.08.2017 19:34 17,4 C 22,8 C 75 % 1021,3 hPa 0,0 l/m 3,4 km/h (1 Bft) SW 220 0 min 0,000 mm 0,0 UV-I 27 W/m 12,9 C 17,4 C 4,8 km/h (1 Bft) 96,61 %
20.08.2017 19:36 17,3 C 22,8 C 75 % 1021,4 hPa 0,0 l/m 2,9 km/h (1 Bft) SW 220 0 min 0,000 mm 0,0 UV-I 24 W/m 12,8 C 17,3 C 4,8 km/h (1 Bft) 97,87 %
20.08.2017 19:38 17,2 C 22,8 C 76 % 1021,3 hPa 0,0 l/m 2,7 km/h (1 Bft) SW 220 0 min 0,000 mm 0,0 UV-I 22 W/m 12,9 C 17,2 C 4,8 km/h (1 Bft) 96,00 %
20.08.2017 19:40 17,1 C 22,8 C 76 % 1021,4 hPa 0,0 l/m 2,1 km/h (1 Bft) SW 220 0 min 0,000 mm 0,0 UV-I 21 W/m 12,8 C 17,1 C 4,8 km/h (1 Bft) 96,55 %
20.08.2017 19:42 17,1 C 22,8 C 77 % 1021,4 hPa 0,0 l/m 1,5 km/h (1 Bft) SW 220 0 min 0,000 mm 0,0 UV-I 19 W/m 13,0 C 17,1 C 3,2 km/h (1 Bft) 98,39 %
20.08.2017 19:44 16,9 C 22,8 C 78 % 1021,4 hPa 0,0 l/m 1,9 km/h (1 Bft) SW 220 0 min 0,000 mm 0,0 UV-I 18 W/m 13,0 C 16,9 C 4,8 km/h (1 Bft) 97,56 %
20.08.2017 19:46 16,9 C 22,8 C 78 % 1021,4 hPa 0,0 l/m 2,6 km/h (1 Bft) SW 220 0 min 0,000 mm 0,0 UV-I 18 W/m 13,0 C 16,9 C 6,4 km/h (2 Bft) 96,00 %
20.08.2017 19:48 16,9 C 22,8 C 79 % 1021,4 hPa 0,0 l/m 3,3 km/h (1 Bft) SW 220 0 min 0,000 mm 0,0 UV-I 18 W/m 13,2 C 16,9 C 6,4 km/h (2 Bft) 97,87 %
20.08.2017 19:50 16,8 C 22,8 C 79 % 1021,4 hPa 0,0 l/m 2,7 km/h (1 Bft) SW 220 0 min 0,000 mm 0,0 UV-I 17 W/m 13,1 C 16,8 C 4,8 km/h (1 Bft) 94,74 %
20.08.2017 19:52 16,8 C 22,8 C 80 % 1021,4 hPa 0,0 l/m 2,6 km/h (1 Bft) SW 220 0 min 0,000 mm 0,0 UV-I 14 W/m 13,3 C 16,8 C 4,8 km/h (1 Bft) 96,43 %
20.08.2017 19:54 16,8 C 22,8 C 80 % 1021,4 hPa 0,0 l/m 2,8 km/h (1 Bft) SW 220 0 min 0,000 mm 0,0 UV-I 13 W/m 13,3 C 16,8 C 4,8 km/h (1 Bft) 92,68 %
20.08.2017 19:56 16,7 C 22,8 C 80 % 1021,5 hPa 0,0 l/m 3,3 km/h (1 Bft) SW 220 2 min 0,000 mm 0,0 UV-I 12 W/m 13,2 C 16,7 C 6,4 km/h (2 Bft) 96,23 %
20.08.2017 19:58 16,7 C 22,8 C 80 % 1021,5 hPa 0,0 l/m 3,6 km/h (1 Bft) SW 220 0 min 0,000 mm 0,0 UV-I 11 W/m 13,2 C 16,7 C 6,4 km/h (2 Bft) 97,87 %
20.08.2017 20:00 16,6 C 22,8 C 81 % 1021,6 hPa 0,0 l/m 3,6 km/h (1 Bft) SW 220 0 min 0,051 mm 0,0 UV-I 10 W/m 13,3 C 16,6 C 6,4 km/h (2 Bft) 95,12 %
20.08.2017 20:02 16,5 C 22,8 C 81 % 1021,5 hPa 0,0 l/m 3,5 km/h (1 Bft) SW 220 0 min 0,000 mm 0,0 UV-I 9 W/m 13,2 C 16,5 C 4,8 km/h (1 Bft) 97,87 %
20.08.2017 20:04 16,4 C 22,2 C 82 % 1021,5 hPa 0,0 l/m 2,5 km/h (1 Bft) SW 220 0 min 0,000 mm 0,0 UV-I 7 W/m 13,3 C 16,4 C 4,8 km/h (1 Bft) 97,87 %
20.08.2017 20:06 16,4 C 22,8 C 82 % 1021,5 hPa 0,0 l/m 3,7 km/h (1 Bft) S-SW 205 0 min 0,000 mm 0,0 UV-I 6 W/m 13,3 C 16,4 C 6,4 km/h (2 Bft) 93,62 %
20.08.2017 20:08 16,3 C 22,2 C 82 % 1021,5 hPa 0,0 l/m 2,4 km/h (1 Bft) S-SW 205 0 min 0,000 mm 0,0 UV-I 5 W/m 13,2 C 16,3 C 4,8 km/h (1 Bft) 98,00 %
20.08.2017 20:10 16,3 C 22,2 C 83 % 1021,5 hPa 0,0 l/m 2,4 km/h (1 Bft) S-SW 205 0 min 0,000 mm 0,0 UV-I 5 W/m 13,4 C 16,3 C 6,4 km/h (2 Bft) 98,00 %
20.08.2017 20:12 16,2 C 22,2 C 82 % 1021,5 hPa 0,0 l/m 1,6 km/h (1 Bft) S-SW 205 0 min 0,000 mm 0,0 UV-I 5 W/m 13,1 C 16,2 C 4,8 km/h (1 Bft) 97,22 %
20.08.2017 20:14 16,1 C 22,2 C 83 % 1021,6 hPa 0,0 l/m 1,2 km/h (1 Bft) S-SW 205 0 min 0,000 mm 0,0 UV-I 5 W/m 13,2 C 16,1 C 3,2 km/h (1 Bft) 98,11 %
20.08.2017 20:16 16,0 C 22,2 C 83 % 1021,6 hPa 0,0 l/m 2,6 km/h (1 Bft) S-SW 205 0 min 0,000 mm 0,0 UV-I 5 W/m 13,1 C 16,0 C 4,8 km/h (1 Bft) 96,00 %
20.08.2017 20:18 15,9 C 22,2 C 83 % 1021,5 hPa 0,0 l/m 1,3 km/h (1 Bft) S-SW 205 0 min 0,000 mm 0,0 UV-I 5 W/m 13,0 C 15,9 C 3,2 km/h (1 Bft) 97,87 %
20.08.2017 20:20 15,9 C 22,2 C 83 % 1021,6 hPa 0,0 l/m 0,5 km/h (0 Bft) S-SW 205 0 min 0,000 mm 0,0 UV-I 2 W/m 13,0 C 15,9 C 3,2 km/h (1 Bft) 95,74 %
20.08.2017 20:22 15,8 C 22,2 C 84 % 1021,6 hPa 0,0 l/m 0,3 km/h (0 Bft) S-SW 205 0 min 0,000 mm 0,0 UV-I 0 W/m 13,1 C 15,8 C 1,6 km/h (1 Bft) 95,83 %
20.08.2017 20:24 15,7 C 22,2 C 84 % 1021,6 hPa 0,0 l/m 0,4 km/h (0 Bft) S-SW 205 0 min 0,000 mm 0,0 UV-I 0 W/m 13,0 C 15,7 C 1,6 km/h (1 Bft) 98,00 %
20.08.2017 20:26 15,6 C 22,2 C 85 % 1021,6 hPa 0,0 l/m 0,6 km/h (0 Bft) S-SW 205 0 min 0,000 mm 0,0 UV-I 0 W/m 13,1 C 15,6 C 3,2 km/h (1 Bft) 97,67 %
20.08.2017 20:28 15,6 C 22,2 C 85 % 1021,7 hPa 0,0 l/m 0,4 km/h (0 Bft) S-SW 205 0 min 0,000 mm 0,0 UV-I 0 W/m 13,1 C 15,6 C 3,2 km/h (1 Bft) 98,00 %
20.08.2017 20:30 15,5 C 22,2 C 85 % 1021,7 hPa 0,0 l/m 0,4 km/h (0 Bft) S-SW 205 0 min 0,000 mm 0,0 UV-I 0 W/m 13,0 C 15,5 C 1,6 km/h (1 Bft) 97,87 %
20.08.2017 20:32 15,4 C 22,2 C 86 % 1021,6 hPa 0,0 l/m 0,3 km/h (0 Bft) S-SW 205 0 min 0,000 mm 0,0 UV-I 0 W/m 13,1 C 15,4 C 1,6 km/h (1 Bft) 97,44 %
20.08.2017 20:34 15,4 C 22,2 C 86 % 1021,6 hPa 0,0 l/m 0,5 km/h (0 Bft) S-SW 205 0 min 0,000 mm 0,0 UV-I 0 W/m 13,1 C 15,4 C 3,2 km/h (1 Bft) 100,00 %
20.08.2017 20:36 15,3 C 22,2 C 86 % 1021,7 hPa 0,0 l/m 0,2 km/h (0 Bft) S-SW 205 0 min 0,000 mm 0,0 UV-I 0 W/m 13,0 C 15,3 C 1,6 km/h (1 Bft) 97,96 %
20.08.2017 20:38 15,2 C 22,2 C 86 % 1021,7 hPa 0,0 l/m 0,5 km/h (0 Bft) S-SW 205 0 min 0,000 mm 0,0 UV-I 0 W/m 12,9 C 15,2 C 1,6 km/h (1 Bft) 100,00 %
20.08.2017 20:40 15,1 C 22,2 C 87 % 1021,7 hPa 0,0 l/m 0,5 km/h (0 Bft) S-SW 205 0 min 0,000 mm 0,0 UV-I 0 W/m 13,0 C 15,1 C 1,6 km/h (1 Bft) 98,11 %
20.08.2017 20:42 15,1 C 22,2 C 87 % 1021,7 hPa 0,0 l/m 0,7 km/h (0 Bft) S-SW 205 0 min 0,000 mm 0,0 UV-I 0 W/m 13,0 C 15,1 C 1,6 km/h (1 Bft) 100,00 %
20.08.2017 20:44 15,1 C 22,2 C 87 % 1021,7 hPa 0,0 l/m 0,7 km/h (0 Bft) S-SW 205 0 min 0,000 mm 0,0 UV-I 0 W/m 13,0 C 15,1 C 1,6 km/h (1 Bft) 100,00 %
20.08.2017 20:46 15,0 C 22,2 C 87 % 1021,7 hPa 0,0 l/m 1,8 km/h (1 Bft) S-SW 205 0 min 0,000 mm 0,0 UV-I 0 W/m 12,9 C 15,0 C 4,8 km/h (1 Bft) 98,44 %
20.08.2017 20:48 14,9 C 22,2 C 87 % 1021,8 hPa 0,0 l/m 2,2 km/h (1 Bft) S-SW 205 0 min 0,000 mm 0,0 UV-I 0 W/m 12,8 C 14,9 C 4,8 km/h (1 Bft) 100,00 %
20.08.2017 20:50 14,9 C 22,2 C 87 % 1021,8 hPa 0,0 l/m 3,3 km/h (1 Bft) S-SW 205 0 min 0,000 mm 0,0 UV-I 0 W/m 12,8 C 14,9 C 4,8 km/h (1 Bft) 100,00 %
20.08.2017 20:52 14,9 C 22,2 C 87 % 1021,8 hPa 0,0 l/m 2,6 km/h (1 Bft) S-SW 205 0 min 0,000 mm 0,0 UV-I 0 W/m 12,8 C 14,9 C 4,8 km/h (1 Bft) 98,18 %
20.08.2017 20:54 14,9 C 22,2 C 87 % 1021,9 hPa 0,0 l/m 0,9 km/h (0 Bft) S-SW 205 0 min 0,000 mm 0,0 UV-I 0 W/m 12,8 C 14,9 C 3,2 km/h (1 Bft) 95,24 %
20.08.2017 20:56 14,9 C 22,2 C 87 % 1021,9 hPa 0,0 l/m 1,7 km/h (1 Bft) S-SW 205 0 min 0,000 mm 0,0 UV-I 0 W/m 12,8 C 14,9 C 3,2 km/h (1 Bft) 98,00 %
20.08.2017 20:58 14,9 C 22,2 C 87 % 1021,9 hPa 0,0 l/m 0,1 km/h (0 Bft) S-SW 205 0 min 0,000 mm 0,0 UV-I 0 W/m 12,8 C 14,9 C 1,6 km/h (1 Bft) 97,56 %
20.08.2017 21:00 14,9 C 22,2 C 88 % 1021,9 hPa 0,0 l/m 0,0 km/h (0 Bft) S-SW 205 0 min 0,000 mm 0,0 UV-I 0 W/m 12,9 C 14,9 C 0,0 km/h (0 Bft) 97,87 %
20.08.2017 21:02 14,8 C 22,2 C 88 % 1021,9 hPa 0,0 l/m 0,2 km/h (0 Bft) S-SW 205 0 min 0,000 mm 0,0 UV-I 0 W/m 12,8 C 14,8 C 1,6 km/h (1 Bft) 96,23 %
20.08.2017 21:04 14,7 C 22,2 C 88 % 1021,9 hPa 0,0 l/m 0,3 km/h (0 Bft) S-SW 205 0 min 0,000 mm 0,0 UV-I 0 W/m 12,7 C 14,7 C 1,6 km/h (1 Bft) 100,00 %
20.08.2017 21:06 14,7 C 22,2 C 88 % 1021,9 hPa 0,0 l/m 0,4 km/h (0 Bft) S-SW 205 0 min 0,000 mm 0,0 UV-I 0 W/m 12,7 C 14,7 C 1,6 km/h (1 Bft) 96,00 %
20.08.2017 21:08 14,6 C 22,2 C 89 % 1021,9 hPa 0,0 l/m 0,7 km/h (0 Bft) S-SW 205 0 min 0,000 mm 0,0 UV-I 0 W/m 12,8 C 14,6 C 3,2 km/h (1 Bft) 97,87 %
20.08.2017 21:10 14,6 C 22,2 C 89 % 1021,9 hPa 0,0 l/m 1,5 km/h (1 Bft) S-SW 205 0 min 0,000 mm 0,0 UV-I 0 W/m 12,8 C 14,6 C 3,2 km/h (1 Bft) 98,00 %
20.08.2017 21:12 14,5 C 22,2 C 89 % 1021,9 hPa 0,0 l/m 0,2 km/h (0 Bft) S-SW 205 0 min 0,000 mm 0,0 UV-I 0 W/m 12,7 C 14,5 C 1,6 km/h (1 Bft) 95,74 %
20.08.2017 21:14 14,4 C 22,2 C 88 % 1021,9 hPa 0,0 l/m 0,0 km/h (0 Bft) S-SW 205 0 min 0,000 mm 0,0 UV-I 0 W/m 12,4 C 14,4 C 0,0 km/h (0 Bft) 95,74 %
20.08.2017 21:16 14,3 C 22,2 C 88 % 1021,9 hPa 0,0 l/m 0,4 km/h (0 Bft) S-SW 205 0 min 0,000 mm 0,0 UV-I 0 W/m 12,3 C 14,3 C 1,6 km/h (1 Bft) 98,00 %
20.08.2017 21:18 14,3 C 22,2 C 89 % 1021,9 hPa 0,0 l/m 0,8 km/h (0 Bft) S-SW 205 0 min 0,000 mm 0,0 UV-I 0 W/m 12,5 C 14,3 C 3,2 km/h (1 Bft) 97,87 %
20.08.2017 21:20 14,3 C 22,2 C 89 % 1021,9 hPa 0,0 l/m 0,8 km/h (0 Bft) S-SW 205 0 min 0,000 mm 0,0 UV-I 0 W/m 12,5 C 14,3 C 3,2 km/h (1 Bft) 97,56 %
20.08.2017 21:22 14,3 C 22,2 C 88 % 1021,9 hPa 0,0 l/m 1,3 km/h (1 Bft) S-SW 205 0 min 0,000 mm 0,0 UV-I 0 W/m 12,3 C 14,3 C 3,2 km/h (1 Bft) 95,74 %
20.08.2017 21:24 14,2 C 22,2 C 88 % 1021,9 hPa 0,0 l/m 0,9 km/h (0 Bft) S-SW 205 0 min 0,000 mm 0,0 UV-I 0 W/m 12,2 C 14,2 C 1,6 km/h (1 Bft) 98,11 %
20.08.2017 21:26 14,2 C 22,2 C 89 % 1021,9 hPa 0,0 l/m 2,9 km/h (1 Bft) S-SW 205 0 min 0,000 mm 0,0 UV-I 0 W/m 12,4 C 14,2 C 4,8 km/h (1 Bft) 100,00 %
20.08.2017 21:28 14,2 C 22,2 C 89 % 1021,9 hPa 0,0 l/m 1,5 km/h (1 Bft) S-SW 205 0 min 0,000 mm 0,0 UV-I 0 W/m 12,4 C 14,2 C 3,2 km/h (1 Bft) 100,00 %
20.08.2017 21:30 14,2 C 22,2 C 89 % 1021,9 hPa 0,0 l/m 2,3 km/h (1 Bft) S-SW 205 0 min 0,000 mm 0,0 UV-I 0 W/m 12,4 C 14,2 C 4,8 km/h (1 Bft) 100,00 %
20.08.2017 21:32 14,1 C 22,2 C 89 % 1021,9 hPa 0,0 l/m 3,2 km/h (1 Bft) S-SW 205 0 min 0,000 mm 0,0 UV-I 0 W/m 12,3 C 14,1 C 4,8 km/h (1 Bft) 100,00 %
20.08.2017 21:34 14,0 C 22,2 C 89 % 1022,0 hPa 0,0 l/m 2,6 km/h (1 Bft) S-SW 205 0 min 0,000 mm 0,0 UV-I 0 W/m 12,2 C 14,0 C 4,8 km/h (1 Bft) 100,00 %
20.08.2017 21:36 13,9 C 22,2 C 89 % 1021,9 hPa 0,0 l/m 2,6 km/h (1 Bft) S-SW 205 0 min 0,000 mm 0,0 UV-I 0 W/m 12,1 C 13,9 C 4,8 km/h (1 Bft) 100,00 %
20.08.2017 21:38 13,9 C 22,2 C 89 % 1021,9 hPa 0,0 l/m 2,4 km/h (1 Bft) S-SW 205 0 min 0,000 mm 0,0 UV-I 0 W/m 12,1 C 13,9 C 4,8 km/h (1 Bft) 100,00 %
20.08.2017 21:40 13,8 C 22,2 C 89 % 1022,0 hPa 0,0 l/m 2,9 km/h (1 Bft) S-SW 205 0 min 0,000 mm 0,0 UV-I 0 W/m 12,0 C 13,8 C 4,8 km/h (1 Bft) 100,00 %
20.08.2017 21:42 13,8 C 22,2 C 89 % 1021,9 hPa 0,0 l/m 4,3 km/h (1 Bft) S-SW 204 0 min 0,000 mm 0,0 UV-I 0 W/m 12,0 C 13,8 C 6,4 km/h (2 Bft) 98,00 %
20.08.2017 21:44 13,8 C 22,2 C 89 % 1021,9 hPa 0,0 l/m 4,0 km/h (1 Bft) S-SW 204 0 min 0,000 mm 0,0 UV-I 0 W/m 12,0 C 13,8 C 6,4 km/h (2 Bft) 100,00 %
20.08.2017 21:46 13,7 C 22,2 C 89 % 1022,0 hPa 0,0 l/m 4,5 km/h (1 Bft) S-SW 194 0 min 0,000 mm 0,0 UV-I 0 W/m 11,9 C 13,7 C 6,4 km/h (2 Bft) 100,00 %
20.08.2017 21:48 13,7 C 22,2 C 89 % 1022,0 hPa 0,0 l/m 4,6 km/h (1 Bft) S 190 0 min 0,000 mm 0,0 UV-I 0 W/m 11,9 C 13,7 C 6,4 km/h (2 Bft) 100,00 %
20.08.2017 21:50 13,7 C 22,2 C 89 % 1022,0 hPa 0,0 l/m 3,4 km/h (1 Bft) S 190 0 min 0,000 mm 0,0 UV-I 0 W/m 11,9 C 13,7 C 6,4 km/h (2 Bft) 100,00 %
20.08.2017 21:52 13,7 C 22,2 C 89 % 1022,0 hPa 0,0 l/m 5,1 km/h (1 Bft) S 190 0 min 0,000 mm 0,0 UV-I 0 W/m 11,9 C 13,7 C 6,4 km/h (2 Bft) 100,00 %
20.08.2017 21:54 13,7 C 22,2 C 89 % 1022,0 hPa 0,0 l/m 4,7 km/h (1 Bft) S 190 0 min 0,000 mm 0,0 UV-I 0 W/m 11,9 C 13,7 C 6,4 km/h (2 Bft) 97,37 %
20.08.2017 21:56 13,7 C 22,2 C 89 % 1022,1 hPa 0,0 l/m 4,7 km/h (1 Bft) S 190 0 min 0,000 mm 0,0 UV-I 0 W/m 11,9 C 13,7 C 6,4 km/h (2 Bft) 98,00 %
20.08.2017 21:58 13,7 C 22,2 C 89 % 1022,1 hPa 0,0 l/m 4,4 km/h (1 Bft) S 190 0 min 0,000 mm 0,0 UV-I 0 W/m 11,9 C 13,7 C 8,0 km/h (2 Bft) 97,87 %
20.08.2017 22:00 13,7 C 22,2 C 89 % 1022,1 hPa 0,0 l/m 3,2 km/h (1 Bft) S 190 0 min 0,000 mm 0,0 UV-I 0 W/m 11,9 C 13,7 C 6,4 km/h (2 Bft) 98,00 %
20.08.2017 22:02 13,7 C 22,2 C 88 % 1022,0 hPa 0,0 l/m 2,5 km/h (1 Bft) S 190 0 min 0,000 mm 0,0 UV-I 0 W/m 11,7 C 13,7 C 4,8 km/h (1 Bft) 96,30 %
20.08.2017 22:04 13,7 C 22,2 C 88 % 1022,0 hPa 0,0 l/m 4,0 km/h (1 Bft) S 190 0 min 0,000 mm 0,0 UV-I 0 W/m 11,7 C 13,7 C 6,4 km/h (2 Bft) 96,77 %
20.08.2017 22:06 13,8 C 22,2 C 88 % 1022,1 hPa 0,0 l/m 4,6 km/h (1 Bft) S-SW 198 0 min 0,000 mm 0,0 UV-I 0 W/m 11,8 C 13,8 C 6,4 km/h (2 Bft) 100,00 %
20.08.2017 22:08 13,8 C 22,2 C 88 % 1022,0 hPa 0,0 l/m 5,2 km/h (1 Bft) S-SW 195 0 min 0,000 mm 0,0 UV-I 0 W/m 11,8 C 13,8 C 6,4 km/h (2 Bft) 100,00 %
20.08.2017 22:10 13,8 C 22,2 C 88 % 1022,0 hPa 0,0 l/m 4,1 km/h (1 Bft) S 188 0 min 0,000 mm 0,0 UV-I 0 W/m 11,8 C 13,8 C 6,4 km/h (2 Bft) 98,21 %
20.08.2017 22:12 13,8 C 22,2 C 88 % 1022,0 hPa 0,0 l/m 3,9 km/h (1 Bft) S 188 0 min 0,000 mm 0,0 UV-I 0 W/m 11,8 C 13,8 C 6,4 km/h (2 Bft) 100,00 %
20.08.2017 22:14 13,8 C 22,2 C 88 % 1022,0 hPa 0,0 l/m 4,4 km/h (1 Bft) S 188 0 min 0,000 mm 0,0 UV-I 0 W/m 11,8 C 13,8 C 6,4 km/h (2 Bft) 100,00 %
20.08.2017 22:16 13,7 C 22,2 C 88 % 1022,1 hPa 0,0 l/m 5,2 km/h (1 Bft) S-SW 193 0 min 0,000 mm 0,0 UV-I 0 W/m 11,7 C 13,7 C 8,0 km/h (2 Bft) 100,00 %
20.08.2017 22:18 13,7 C 22,2 C 88 % 1022,1 hPa 0,0 l/m 4,6 km/h (1 Bft) S 180 0 min 0,000 mm 0,0 UV-I 0 W/m 11,7 C 13,7 C 6,4 km/h (2 Bft) 100,00 %
20.08.2017 22:20 13,7 C 22,2 C 88 % 1022,1 hPa 0,0 l/m 6,2 km/h (2 Bft) S-SW 197 0 min 0,000 mm 0,0 UV-I 0 W/m 11,7 C 13,7 C 9,7 km/h (2 Bft) 100,00 %
20.08.2017 22:22 13,7 C 22,2 C 88 % 1022,1 hPa 0,0 l/m 5,9 km/h (2 Bft) S 182 0 min 0,000 mm 0,0 UV-I 0 W/m 11,7 C 13,7 C 8,0 km/h (2 Bft) 100,00 %
20.08.2017 22:24 13,6 C 22,2 C 89 % 1022,1 hPa 0,0 l/m 4,5 km/h (1 Bft) S-SW 197 0 min 0,000 mm 0,0 UV-I 0 W/m 11,8 C 13,6 C 6,4 km/h (2 Bft) 100,00 %
20.08.2017 22:26 13,6 C 22,2 C 89 % 1022,1 hPa 0,0 l/m 5,9 km/h (2 Bft) S-SW 204 0 min 0,000 mm 0,0 UV-I 0 W/m 11,8 C 13,6 C 9,7 km/h (2 Bft) 100,00 %
20.08.2017 22:28 13,6 C 22,2 C 89 % 1022,1 hPa 0,0 l/m 6,0 km/h (2 Bft) S 189 0 min 0,000 mm 0,0 UV-I 0 W/m 11,8 C 13,6 C 9,7 km/h (2 Bft) 100,00 %
20.08.2017 22:30 13,6 C 22,2 C 89 % 1022,1 hPa 0,0 l/m 4,5 km/h (1 Bft) S-SW 198 0 min 0,000 mm 0,0 UV-I 0 W/m 11,8 C 13,6 C 8,0 km/h (2 Bft) 100,00 %
20.08.2017 22:32 13,6 C 22,2 C 89 % 1022,1 hPa 0,0 l/m 5,1 km/h (1 Bft) S-SW 199 0 min 0,000 mm 0,0 UV-I 0 W/m 11,8 C 13,6 C 8,0 km/h (2 Bft) 100,00 %
20.08.2017 22:34 13,6 C 22,2 C 89 % 1022,1 hPa 0,0 l/m 4,0 km/h (1 Bft) S-SW 199 0 min 0,000 mm 0,0 UV-I 0 W/m 11,8 C 13,6 C 6,4 km/h (2 Bft) 100,00 %
20.08.2017 22:36 13,6 C 22,2 C 89 % 1022,1 hPa 0,0 l/m 4,9 km/h (1 Bft) S-SW 197 0 min 0,000 mm 0,0 UV-I 0 W/m 11,8 C 13,6 C 8,0 km/h (2 Bft) 98,00 %
20.08.2017 22:38 13,5 C 22,2 C 89 % 1022,1 hPa 0,0 l/m 4,5 km/h (1 Bft) S-SW 193 0 min 0,000 mm 0,0 UV-I 0 W/m 11,7 C 13,5 C 6,4 km/h (2 Bft) 100,00 %
20.08.2017 22:40 13,4 C 22,2 C 89 % 1022,1 hPa 0,0 l/m 5,3 km/h (1 Bft) S-SW 196 0 min 0,000 mm 0,0 UV-I 0 W/m 11,6 C 13,4 C 8,0 km/h (2 Bft) 100,00 %
20.08.2017 22:42 13,4 C 22,2 C 89 % 1022,2 hPa 0,0 l/m 5,0 km/h (1 Bft) S-SW 193 0 min 0,000 mm 0,0 UV-I 0 W/m 11,6 C 13,4 C 8,0 km/h (2 Bft) 97,87 %
20.08.2017 22:44 13,4 C 22,2 C 89 % 1022,2 hPa 0,0 l/m 5,2 km/h (1 Bft) S-SW 205 0 min 0,000 mm 0,0 UV-I 0 W/m 11,6 C 13,4 C 8,0 km/h (2 Bft) 97,87 %
20.08.2017 22:46 13,4 C 22,2 C 89 % 1022,2 hPa 0,0 l/m 4,4 km/h (1 Bft) S-SW 196 0 min 0,000 mm 0,0 UV-I 0 W/m 11,6 C 13,4 C 8,0 km/h (2 Bft) 100,00 %
20.08.2017 22:48 13,3 C 22,2 C 89 % 1022,2 hPa 0,0 l/m 5,8 km/h (2 Bft) S-SW 208 0 min 0,000 mm 0,0 UV-I 0 W/m 11,5 C 13,3 C 9,7 km/h (2 Bft) 100,00 %
20.08.2017 22:50 13,3 C 22,2 C 89 % 1022,2 hPa 0,0 l/m 4,6 km/h (1 Bft) S-SW 202 0 min 0,000 mm 0,0 UV-I 0 W/m 11,5 C 13,3 C 8,0 km/h (2 Bft) 100,00 %
20.08.2017 22:52 13,3 C 22,2 C 89 % 1022,2 hPa 0,0 l/m 4,8 km/h (1 Bft) S-SW 199 0 min 0,000 mm 0,0 UV-I 0 W/m 11,5 C 13,3 C 8,0 km/h (2 Bft) 98,00 %
20.08.2017 22:54 13,3 C 22,2 C 89 % 1022,1 hPa 0,0 l/m 5,4 km/h (1 Bft) S 182 0 min 0,000 mm 0,0 UV-I 0 W/m 11,5 C 13,3 C 9,7 km/h (2 Bft) 96,23 %
20.08.2017 22:56 13,3 C 22,2 C 89 % 1022,2 hPa 0,0 l/m 5,1 km/h (1 Bft) S-SW 195 0 min 0,000 mm 0,0 UV-I 0 W/m 11,5 C 13,3 C 8,0 km/h (2 Bft) 93,62 %
20.08.2017 22:58 13,3 C 22,2 C 89 % 1022,2 hPa 0,0 l/m 5,9 km/h (2 Bft) S-SW 207 0 min 0,000 mm 0,0 UV-I 0 W/m 11,5 C 13,3 C 8,0 km/h (2 Bft) 95,74 %
20.08.2017 23:00 13,3 C 22,2 C 89 % 1022,2 hPa 0,0 l/m 5,4 km/h (1 Bft) S-SW 205 0 min 0,000 mm 0,0 UV-I 0 W/m 11,5 C 13,3 C 8,0 km/h (2 Bft) 92,11 %
20.08.2017 23:02 13,2 C 22,2 C 90 % 1022,2 hPa 0,0 l/m 5,4 km/h (1 Bft) S-SW 211 0 min 0,000 mm 0,0 UV-I 0 W/m 11,6 C 13,2 C 9,7 km/h (2 Bft) 96,23 %
20.08.2017 23:04 13,2 C 22,2 C 90 % 1022,2 hPa 0,0 l/m 6,5 km/h (2 Bft) S-SW 209 0 min 0,000 mm 0,0 UV-I 0 W/m 11,6 C 13,2 C 11,3 km/h (2 Bft) 93,18 %
20.08.2017 23:06 13,2 C 22,2 C 90 % 1022,2 hPa 0,0 l/m 6,0 km/h (2 Bft) SW 219 0 min 0,000 mm 0,0 UV-I 0 W/m 11,6 C 13,2 C 9,7 km/h (2 Bft) 94,00 %
20.08.2017 23:08 13,2 C 22,2 C 90 % 1022,2 hPa 0,0 l/m 4,2 km/h (1 Bft) S 183 0 min 0,000 mm 0,0 UV-I 0 W/m 11,6 C 13,2 C 6,4 km/h (2 Bft) 95,74 %
20.08.2017 23:10 13,2 C 22,2 C 90 % 1022,3 hPa 0,0 l/m 6,6 km/h (2 Bft) S-SW 203 0 min 0,000 mm 0,0 UV-I 0 W/m 11,6 C 13,1 C 9,7 km/h (2 Bft) 95,74 %
20.08.2017 23:12 13,2 C 22,2 C 89 % 1022,4 hPa 0,0 l/m 5,9 km/h (2 Bft) SW 214 0 min 0,000 mm 0,0 UV-I 0 W/m 11,4 C 13,2 C 8,0 km/h (2 Bft) 92,11 %
20.08.2017 23:14 13,2 C 22,2 C 90 % 1022,4 hPa 0,0 l/m 4,6 km/h (1 Bft) S 191 0 min 0,000 mm 0,0 UV-I 0 W/m 11,6 C 13,2 C 8,0 km/h (2 Bft) 96,23 %
20.08.2017 23:16 13,2 C 22,2 C 90 % 1022,3 hPa 0,0 l/m 5,2 km/h (1 Bft) S 182 0 min 0,000 mm 0,0 UV-I 0 W/m 11,6 C 13,2 C 8,0 km/h (2 Bft) 93,62 %
20.08.2017 23:18 13,2 C 22,2 C 90 % 1022,4 hPa 0,0 l/m 5,1 km/h (1 Bft) S-SW 199 0 min 0,000 mm 0,0 UV-I 0 W/m 11,6 C 13,2 C 8,0 km/h (2 Bft) 89,74 %
20.08.2017 23:20 13,1 C 22,2 C 90 % 1022,4 hPa 0,0 l/m 4,1 km/h (1 Bft) SW 214 0 min 0,000 mm 0,0 UV-I 0 W/m 11,5 C 13,1 C 8,0 km/h (2 Bft) 96,15 %
20.08.2017 23:22 13,1 C 22,2 C 90 % 1022,4 hPa 0,0 l/m 4,5 km/h (1 Bft) S-SW 206 0 min 0,000 mm 0,0 UV-I 0 W/m 11,5 C 13,1 C 8,0 km/h (2 Bft) 94,00 %
20.08.2017 23:24 13,1 C 22,2 C 90 % 1022,3 hPa 0,0 l/m 5,1 km/h (1 Bft) S 189 0 min 0,000 mm 0,0 UV-I 0 W/m 11,5 C 13,1 C 8,0 km/h (2 Bft) 95,24 %
20.08.2017 23:26 13,1 C 22,2 C 90 % 1022,3 hPa 0,0 l/m 6,0 km/h (2 Bft) S-SW 196 0 min 0,000 mm 0,0 UV-I 0 W/m 11,5 C 13,1 C 9,7 km/h (2 Bft) 93,62 %
20.08.2017 23:28 13,1 C 22,2 C 90 % 1022,3 hPa 0,0 l/m 4,6 km/h (1 Bft) S 191 0 min 0,000 mm 0,0 UV-I 0 W/m 11,5 C 13,1 C 8,0 km/h (2 Bft) 96,00 %
20.08.2017 23:30 13,1 C 22,2 C 90 % 1022,2 hPa 0,0 l/m 3,9 km/h (1 Bft) S-SW 198 0 min 0,000 mm 0,0 UV-I 0 W/m 11,5 C 13,1 C 6,4 km/h (2 Bft) 98,11 %
20.08.2017 23:33 13,1 C 22,2 C 90 % 1022,3 hPa 0,0 l/m 4,9 km/h (1 Bft) S-SW 208 0 min 0,000 mm 0,0 UV-I 0 W/m 11,5 C 13,1 C 8,0 km/h (2 Bft) 97,14 %
20.08.2017 23:34 13,1 C 22,2 C 89 % 1022,3 hPa 0,0 l/m 5,7 km/h (1 Bft) S-SW 209 0 min 0,000 mm 0,0 UV-I 0 W/m 11,3 C 13,1 C 6,4 km/h (2 Bft) 93,33 %
20.08.2017 23:36 13,1 C 22,2 C 90 % 1022,4 hPa 0,0 l/m 5,0 km/h (1 Bft) SW 217 0 min 0,000 mm 0,0 UV-I 0 W/m 11,5 C 13,1 C 8,0 km/h (2 Bft) 98,00 %
20.08.2017 23:38 13,1 C 22,2 C 90 % 1022,4 hPa 0,0 l/m 6,3 km/h (2 Bft) S-SW 207 0 min 0,000 mm 0,0 UV-I 0 W/m 11,5 C 13,1 C 9,7 km/h (2 Bft) 95,12 %
20.08.2017 23:40 13,1 C 22,2 C 90 % 1022,4 hPa 0,0 l/m 6,1 km/h (2 Bft) S-SW 211 0 min 0,000 mm 0,0 UV-I 0 W/m 11,5 C 13,1 C 9,7 km/h (2 Bft) 98,00 %
20.08.2017 23:42 13,1 C 22,2 C 90 % 1022,4 hPa 0,0 l/m 5,6 km/h (1 Bft) S-SW 211 0 min 0,000 mm 0,0 UV-I 0 W/m 11,5 C 13,1 C 8,0 km/h (2 Bft) 98,11 %
20.08.2017 23:44 13,2 C 22,2 C 89 % 1022,3 hPa 0,0 l/m 5,3 km/h (1 Bft) S-SW 210 0 min 0,000 mm 0,0 UV-I 0 W/m 11,4 C 13,2 C 8,0 km/h (2 Bft) 97,56 %
20.08.2017 23:46 13,2 C 22,2 C 89 % 1022,3 hPa 0,0 l/m 5,1 km/h (1 Bft) S 185 0 min 0,000 mm 0,0 UV-I 0 W/m 11,4 C 13,2 C 9,7 km/h (2 Bft) 97,87 %
20.08.2017 23:48 13,2 C 22,2 C 89 % 1022,3 hPa 0,0 l/m 5,1 km/h (1 Bft) S 185 0 min 0,000 mm 0,0 UV-I 0 W/m 11,4 C 13,2 C 8,0 km/h (2 Bft) 98,11 %
20.08.2017 23:50 13,2 C 22,2 C 89 % 1022,3 hPa 0,0 l/m 4,2 km/h (1 Bft) S-SW 204 0 min 0,000 mm 0,0 UV-I 0 W/m 11,4 C 13,2 C 8,0 km/h (2 Bft) 100,00 %
20.08.2017 23:52 13,2 C 22,2 C 89 % 1022,4 hPa 0,0 l/m 4,3 km/h (1 Bft) S-SW 204 0 min 0,000 mm 0,0 UV-I 0 W/m 11,4 C 13,2 C 6,4 km/h (2 Bft) 100,00 %
20.08.2017 23:54 13,2 C 22,2 C 89 % 1022,3 hPa 0,0 l/m 4,7 km/h (1 Bft) SW 216 0 min 0,000 mm 0,0 UV-I 0 W/m 11,4 C 13,2 C 6,4 km/h (2 Bft) 100,00 %
20.08.2017 23:56 13,2 C 22,2 C 89 % 1022,3 hPa 0,0 l/m 4,8 km/h (1 Bft) S-SW 204 0 min 0,000 mm 0,0 UV-I 0 W/m 11,4 C 13,2 C 9,7 km/h (2 Bft) 100,00 %
20.08.2017 23:58 13,2 C 22,2 C 89 % 1022,3 hPa 0,0 l/m 4,2 km/h (1 Bft) S-SW 213 0 min 0,000 mm 0,0 UV-I 0 W/m 11,4 C 13,2 C 6,4 km/h (2 Bft) 100,00 %
_ Min-Zeit 23:20 03:40 18:10 00:06 - 00:00 - - - - - - 18:10 14:04 00:00 23:18
Minimum _ 13,1 C 22,2 C 54 % 1019,1 hPa - 0,0 km/h (0 Bft) - - - - - - 9,8 C 10,6 C 0,0 km/h (0 Bft) 89,74 %
_ Max-Zeit 17:52 00:00 00:44 23:12 06:06 10:48 - - 06:16 13:00 13:06 13:12 08:36 17:50 09:16 00:28
Maximum _ 20,2 C 22,8 C 96 % 1022,4 hPa 0,2 l/m 21,1 km/h
S-SW (4 Bft)
- - 2 min 0,432 mm 5,1 UV-I 1027 W/m 14,6 C 20,0 C 30,6 km/h
S-SW (5 Bft)
100,00 %
Durchschnitt _ 15,8 C 22,4 C 84 % 1020,7 hPa #1,2 l/m 7,1 km/h (2 Bft) SW - #5:25 h #2,743 mm 1,9 UV-I 294 W/m 13,0 C 15,0 C 11,5 km/h (2 Bft) 98,11 %